<?xml version="1.0" encoding="UTF-8" standalone="no" ?>
<gpx xmlns="http://www.topografix.com/GPX/1/1" xmlns:xsi="http://www.w3.org/2001/XMLSchema-instance" xsi:schemaLocation="http://www.topografix.com/GPX/1/1 http://www.topografix.com/GPX/1/1/gpx.xsd" version="1.1" creator="VisuGPX - https://www.visugpx.com">
  <metadata>
    <name>Barrage de Malpasset</name>
    <desc><![CDATA[Sortie au barrage de Malpasset avec Pierre 57]]></desc>
  </metadata>
  <trk>
    <name><![CDATA[ACTIVE LOG-F-MNT]]></name>
    <trkseg>
      <trkpt lat="43.54169" lon="6.69997">
        <ele>289.118286</ele>
        <time>2010-06-27T07:16:51Z</time>
      </trkpt>
      <trkpt lat="43.54169" lon="6.69997">
        <ele>289.118286</ele>
        <time>2010-06-27T07:17:22Z</time>
      </trkpt>
      <trkpt lat="43.54165" lon="6.69992">
        <ele>287.825317</ele>
        <time>2010-06-27T07:17:28Z</time>
      </trkpt>
      <trkpt lat="43.54165" lon="6.70001">
        <ele>287.355072</ele>
        <time>2010-06-27T07:17:31Z</time>
      </trkpt>
      <trkpt lat="43.54167" lon="6.70009">
        <ele>287.657227</ele>
        <time>2010-06-27T07:17:34Z</time>
      </trkpt>
      <trkpt lat="43.5418" lon="6.70022">
        <ele>290.956573</ele>
        <time>2010-06-27T07:17:42Z</time>
      </trkpt>
      <trkpt lat="43.54199" lon="6.70031">
        <ele>294.136658</ele>
        <time>2010-06-27T07:17:56Z</time>
      </trkpt>
      <trkpt lat="43.54204" lon="6.70033">
        <ele>294.845734</ele>
        <time>2010-06-27T07:17:59Z</time>
      </trkpt>
      <trkpt lat="43.5421" lon="6.70033">
        <ele>296.064087</ele>
        <time>2010-06-27T07:18:04Z</time>
      </trkpt>
      <trkpt lat="43.54221" lon="6.70039">
        <ele>297.805206</ele>
        <time>2010-06-27T07:18:11Z</time>
      </trkpt>
      <trkpt lat="43.54227" lon="6.70042">
        <ele>298.659973</ele>
        <time>2010-06-27T07:18:17Z</time>
      </trkpt>
      <trkpt lat="43.54234" lon="6.70046">
        <ele>299.441406</ele>
        <time>2010-06-27T07:18:23Z</time>
      </trkpt>
      <trkpt lat="43.54244" lon="6.70048">
        <ele>300.953003</ele>
        <time>2010-06-27T07:18:29Z</time>
      </trkpt>
      <trkpt lat="43.54253" lon="6.70048">
        <ele>302.222504</ele>
        <time>2010-06-27T07:18:35Z</time>
      </trkpt>
      <trkpt lat="43.54259" lon="6.70052">
        <ele>303.050049</ele>
        <time>2010-06-27T07:18:41Z</time>
      </trkpt>
      <trkpt lat="43.54268" lon="6.70054">
        <ele>304.271484</ele>
        <time>2010-06-27T07:18:47Z</time>
      </trkpt>
      <trkpt lat="43.54277" lon="6.70057">
        <ele>305.502197</ele>
        <time>2010-06-27T07:18:53Z</time>
      </trkpt>
      <trkpt lat="43.54294" lon="6.70061">
        <ele>307.991455</ele>
        <time>2010-06-27T07:19:05Z</time>
      </trkpt>
      <trkpt lat="43.54302" lon="6.70063">
        <ele>309.25</ele>
        <time>2010-06-27T07:19:11Z</time>
      </trkpt>
      <trkpt lat="43.54317" lon="6.70074">
        <ele>310.490356</ele>
        <time>2010-06-27T07:19:23Z</time>
      </trkpt>
      <trkpt lat="43.54326" lon="6.7008">
        <ele>310.797607</ele>
        <time>2010-06-27T07:19:29Z</time>
      </trkpt>
      <trkpt lat="43.54337" lon="6.70082">
        <ele>311.25824</ele>
        <time>2010-06-27T07:19:35Z</time>
      </trkpt>
      <trkpt lat="43.5436" lon="6.70095">
        <ele>311.680389</ele>
        <time>2010-06-27T07:19:48Z</time>
      </trkpt>
      <trkpt lat="43.54362" lon="6.70099">
        <ele>311.577301</ele>
        <time>2010-06-27T07:19:50Z</time>
      </trkpt>
      <trkpt lat="43.54365" lon="6.70112">
        <ele>311.458832</ele>
        <time>2010-06-27T07:19:54Z</time>
      </trkpt>
      <trkpt lat="43.54365" lon="6.70125">
        <ele>311.435699</ele>
        <time>2010-06-27T07:19:58Z</time>
      </trkpt>
      <trkpt lat="43.54347" lon="6.70166">
        <ele>312.205261</ele>
        <time>2010-06-27T07:20:11Z</time>
      </trkpt>
      <trkpt lat="43.54341" lon="6.70187">
        <ele>312.417145</ele>
        <time>2010-06-27T07:20:17Z</time>
      </trkpt>
      <trkpt lat="43.54324" lon="6.70228">
        <ele>312.631012</ele>
        <time>2010-06-27T07:20:29Z</time>
      </trkpt>
      <trkpt lat="43.54294" lon="6.70353">
        <ele>311.392395</ele>
        <time>2010-06-27T07:20:50Z</time>
      </trkpt>
      <trkpt lat="43.5427" lon="6.70527">
        <ele>310.110565</ele>
        <time>2010-06-27T07:21:19Z</time>
      </trkpt>
      <trkpt lat="43.5427" lon="6.70533">
        <ele>309.445007</ele>
        <time>2010-06-27T07:21:20Z</time>
      </trkpt>
      <trkpt lat="43.5427" lon="6.70546">
        <ele>308.110291</ele>
        <time>2010-06-27T07:21:22Z</time>
      </trkpt>
      <trkpt lat="43.54305" lon="6.70548">
        <ele>309.893219</ele>
        <time>2010-06-27T07:21:28Z</time>
      </trkpt>
      <trkpt lat="43.54311" lon="6.7055">
        <ele>309.996063</ele>
        <time>2010-06-27T07:21:30Z</time>
      </trkpt>
      <trkpt lat="43.54362" lon="6.70557">
        <ele>312.013428</ele>
        <time>2010-06-27T07:21:48Z</time>
      </trkpt>
      <trkpt lat="43.5439" lon="6.70561">
        <ele>313.330811</ele>
        <time>2010-06-27T07:21:59Z</time>
      </trkpt>
      <trkpt lat="43.54438" lon="6.70582">
        <ele>314.989258</ele>
        <time>2010-06-27T07:22:16Z</time>
      </trkpt>
      <trkpt lat="43.5445" lon="6.70576">
        <ele>316.149597</ele>
        <time>2010-06-27T07:22:21Z</time>
      </trkpt>
      <trkpt lat="43.54476" lon="6.70554">
        <ele>319.148376</ele>
        <time>2010-06-27T07:22:35Z</time>
      </trkpt>
      <trkpt lat="43.54523" lon="6.70537">
        <ele>322.747467</ele>
        <time>2010-06-27T07:22:55Z</time>
      </trkpt>
      <trkpt lat="43.54562" lon="6.70529">
        <ele>324.117981</ele>
        <time>2010-06-27T07:23:11Z</time>
      </trkpt>
      <trkpt lat="43.54603" lon="6.70524">
        <ele>327.334534</ele>
        <time>2010-06-27T07:23:28Z</time>
      </trkpt>
      <trkpt lat="43.54682" lon="6.70484">
        <ele>331.400665</ele>
        <time>2010-06-27T07:24:00Z</time>
      </trkpt>
      <trkpt lat="43.54708" lon="6.70471">
        <ele>331.869659</ele>
        <time>2010-06-27T07:24:10Z</time>
      </trkpt>
      <trkpt lat="43.54714" lon="6.70481">
        <ele>332.959656</ele>
        <time>2010-06-27T07:24:14Z</time>
      </trkpt>
      <trkpt lat="43.54717" lon="6.7049">
        <ele>333.561829</ele>
        <time>2010-06-27T07:24:18Z</time>
      </trkpt>
      <trkpt lat="43.54721" lon="6.70494">
        <ele>334.051605</ele>
        <time>2010-06-27T07:24:21Z</time>
      </trkpt>
      <trkpt lat="43.54723" lon="6.70499">
        <ele>334.406342</ele>
        <time>2010-06-27T07:24:24Z</time>
      </trkpt>
      <trkpt lat="43.54729" lon="6.70501">
        <ele>334.921387</ele>
        <time>2010-06-27T07:24:28Z</time>
      </trkpt>
      <trkpt lat="43.5474" lon="6.70503">
        <ele>335.706573</ele>
        <time>2010-06-27T07:24:34Z</time>
      </trkpt>
      <trkpt lat="43.54747" lon="6.70501">
        <ele>336.189819</ele>
        <time>2010-06-27T07:24:37Z</time>
      </trkpt>
      <trkpt lat="43.54762" lon="6.7049">
        <ele>337.243073</ele>
        <time>2010-06-27T07:24:44Z</time>
      </trkpt>
      <trkpt lat="43.54781" lon="6.70479">
        <ele>338.490021</ele>
        <time>2010-06-27T07:24:51Z</time>
      </trkpt>
      <trkpt lat="43.54822" lon="6.70449">
        <ele>336.006561</ele>
        <time>2010-06-27T07:25:10Z</time>
      </trkpt>
      <trkpt lat="43.54835" lon="6.70445">
        <ele>335.236481</ele>
        <time>2010-06-27T07:25:17Z</time>
      </trkpt>
      <trkpt lat="43.54835" lon="6.70449">
        <ele>335.620422</ele>
        <time>2010-06-27T07:25:19Z</time>
      </trkpt>
      <trkpt lat="43.54835" lon="6.70456">
        <ele>336.189331</ele>
        <time>2010-06-27T07:25:21Z</time>
      </trkpt>
      <trkpt lat="43.54835" lon="6.70481">
        <ele>338.380646</ele>
        <time>2010-06-27T07:25:33Z</time>
      </trkpt>
      <trkpt lat="43.54835" lon="6.70488">
        <ele>338.90741</ele>
        <time>2010-06-27T07:25:36Z</time>
      </trkpt>
      <trkpt lat="43.54837" lon="6.70494">
        <ele>338.792114</ele>
        <time>2010-06-27T07:25:39Z</time>
      </trkpt>
      <trkpt lat="43.54837" lon="6.70501">
        <ele>338.919373</ele>
        <time>2010-06-27T07:25:42Z</time>
      </trkpt>
      <trkpt lat="43.54837" lon="6.7052">
        <ele>339.293945</ele>
        <time>2010-06-27T07:25:52Z</time>
      </trkpt>
      <trkpt lat="43.54837" lon="6.70522">
        <ele>339.3349</ele>
        <time>2010-06-27T07:25:53Z</time>
      </trkpt>
      <trkpt lat="43.54839" lon="6.70531">
        <ele>338.891724</ele>
        <time>2010-06-27T07:25:58Z</time>
      </trkpt>
      <trkpt lat="43.54839" lon="6.70542">
        <ele>339.083557</ele>
        <time>2010-06-27T07:26:04Z</time>
      </trkpt>
      <trkpt lat="43.54837" lon="6.70554">
        <ele>339.933075</ele>
        <time>2010-06-27T07:26:10Z</time>
      </trkpt>
      <trkpt lat="43.54839" lon="6.70567">
        <ele>339.382111</ele>
        <time>2010-06-27T07:26:17Z</time>
      </trkpt>
      <trkpt lat="43.54832" lon="6.7063">
        <ele>341.553772</ele>
        <time>2010-06-27T07:26:38Z</time>
      </trkpt>
      <trkpt lat="43.54828" lon="6.7067">
        <ele>343.015594</ele>
        <time>2010-06-27T07:26:44Z</time>
      </trkpt>
      <trkpt lat="43.54826" lon="6.70728">
        <ele>341.553772</ele>
        <time>2010-06-27T07:26:53Z</time>
      </trkpt>
      <trkpt lat="43.54826" lon="6.70748">
        <ele>340.838257</ele>
        <time>2010-06-27T07:26:55Z</time>
      </trkpt>
      <trkpt lat="43.54826" lon="6.70769">
        <ele>340.156586</ele>
        <time>2010-06-27T07:26:57Z</time>
      </trkpt>
      <trkpt lat="43.54824" lon="6.7079">
        <ele>340.07193</ele>
        <time>2010-06-27T07:26:59Z</time>
      </trkpt>
      <trkpt lat="43.5482" lon="6.70844">
        <ele>341.111511</ele>
        <time>2010-06-27T07:27:05Z</time>
      </trkpt>
      <trkpt lat="43.54817" lon="6.70883">
        <ele>340.992249</ele>
        <time>2010-06-27T07:27:11Z</time>
      </trkpt>
      <trkpt lat="43.54805" lon="6.70962">
        <ele>340.692596</ele>
        <time>2010-06-27T07:27:27Z</time>
      </trkpt>
      <trkpt lat="43.54787" lon="6.71044">
        <ele>340.571289</ele>
        <time>2010-06-27T07:27:47Z</time>
      </trkpt>
      <trkpt lat="43.54753" lon="6.71162">
        <ele>342.464386</ele>
        <time>2010-06-27T07:28:10Z</time>
      </trkpt>
      <trkpt lat="43.54747" lon="6.71183">
        <ele>339.768524</ele>
        <time>2010-06-27T07:28:13Z</time>
      </trkpt>
      <trkpt lat="43.54736" lon="6.71213">
        <ele>336.498566</ele>
        <time>2010-06-27T07:28:17Z</time>
      </trkpt>
      <trkpt lat="43.54725" lon="6.71243">
        <ele>334.555206</ele>
        <time>2010-06-27T07:28:21Z</time>
      </trkpt>
      <trkpt lat="43.54717" lon="6.71263">
        <ele>333.919159</ele>
        <time>2010-06-27T07:28:23Z</time>
      </trkpt>
      <trkpt lat="43.54682" lon="6.7135">
        <ele>329.56366</ele>
        <time>2010-06-27T07:28:25Z</time>
      </trkpt>
      <trkpt lat="43.54669" lon="6.71417">
        <ele>329.121643</ele>
        <time>2010-06-27T07:28:30Z</time>
      </trkpt>
      <trkpt lat="43.54629" lon="6.71578">
        <ele>325.60495</ele>
        <time>2010-06-27T07:28:45Z</time>
      </trkpt>
      <trkpt lat="43.5462" lon="6.71608">
        <ele>324.885864</ele>
        <time>2010-06-27T07:28:48Z</time>
      </trkpt>
      <trkpt lat="43.5459" lon="6.71705">
        <ele>323.492096</ele>
        <time>2010-06-27T07:28:57Z</time>
      </trkpt>
      <trkpt lat="43.54588" lon="6.71717">
        <ele>323.110382</ele>
        <time>2010-06-27T07:28:58Z</time>
      </trkpt>
      <trkpt lat="43.54553" lon="6.71885">
        <ele>326.37674</ele>
        <time>2010-06-27T07:29:14Z</time>
      </trkpt>
      <trkpt lat="43.54523" lon="6.72022">
        <ele>325.798096</ele>
        <time>2010-06-27T07:29:32Z</time>
      </trkpt>
      <trkpt lat="43.54478" lon="6.7225">
        <ele>319.46814</ele>
        <time>2010-06-27T07:30:08Z</time>
      </trkpt>
      <trkpt lat="43.5445" lon="6.72361">
        <ele>304.404816</ele>
        <time>2010-06-27T07:30:27Z</time>
      </trkpt>
      <trkpt lat="43.54427" lon="6.72443">
        <ele>306.64679</ele>
        <time>2010-06-27T07:30:41Z</time>
      </trkpt>
      <trkpt lat="43.54427" lon="6.72443">
        <ele>306.64679</ele>
        <time>2010-06-27T07:30:49Z</time>
      </trkpt>
      <trkpt lat="43.54427" lon="6.72443">
        <ele>306.64679</ele>
        <time>2010-06-27T07:30:53Z</time>
      </trkpt>
      <trkpt lat="43.54427" lon="6.72443">
        <ele>306.64679</ele>
        <time>2010-06-27T07:30:57Z</time>
      </trkpt>
      <trkpt lat="43.54427" lon="6.72443">
        <ele>306.64679</ele>
        <time>2010-06-27T07:30:59Z</time>
      </trkpt>
      <trkpt lat="43.54427" lon="6.72443">
        <ele>306.64679</ele>
        <time>2010-06-27T07:31:01Z</time>
      </trkpt>
      <trkpt lat="43.54575" lon="6.72089">
        <ele>305.054413</ele>
        <time>2010-06-27T07:31:05Z</time>
      </trkpt>
      <trkpt lat="43.54584" lon="6.72076">
        <ele>302.830048</ele>
        <time>2010-06-27T07:31:06Z</time>
      </trkpt>
      <trkpt lat="43.54599" lon="6.72084">
        <ele>295.114227</ele>
        <time>2010-06-27T07:31:10Z</time>
      </trkpt>
      <trkpt lat="43.54603" lon="6.72086">
        <ele>292.94577</ele>
        <time>2010-06-27T07:31:11Z</time>
      </trkpt>
      <trkpt lat="43.54594" lon="6.72125">
        <ele>290.795624</ele>
        <time>2010-06-27T07:31:15Z</time>
      </trkpt>
      <trkpt lat="43.54581" lon="6.72187">
        <ele>289.14679</ele>
        <time>2010-06-27T07:31:19Z</time>
      </trkpt>
      <trkpt lat="43.54575" lon="6.7222">
        <ele>287.613708</ele>
        <time>2010-06-27T07:31:21Z</time>
      </trkpt>
      <trkpt lat="43.54571" lon="6.7225">
        <ele>283.848999</ele>
        <time>2010-06-27T07:31:23Z</time>
      </trkpt>
      <trkpt lat="43.54558" lon="6.72303">
        <ele>275.490845</ele>
        <time>2010-06-27T07:31:27Z</time>
      </trkpt>
      <trkpt lat="43.54543" lon="6.7234">
        <ele>271.90329</ele>
        <time>2010-06-27T07:31:30Z</time>
      </trkpt>
      <trkpt lat="43.54538" lon="6.72353">
        <ele>271.597198</ele>
        <time>2010-06-27T07:31:31Z</time>
      </trkpt>
      <trkpt lat="43.54523" lon="6.72402">
        <ele>272.288086</ele>
        <time>2010-06-27T07:31:35Z</time>
      </trkpt>
      <trkpt lat="43.54519" lon="6.72415">
        <ele>273.690552</ele>
        <time>2010-06-27T07:31:36Z</time>
      </trkpt>
      <trkpt lat="43.5453" lon="6.72458">
        <ele>269.392426</ele>
        <time>2010-06-27T07:31:39Z</time>
      </trkpt>
      <trkpt lat="43.54534" lon="6.72473">
        <ele>266.309875</ele>
        <time>2010-06-27T07:31:40Z</time>
      </trkpt>
      <trkpt lat="43.54534" lon="6.72518">
        <ele>260.826324</ele>
        <time>2010-06-27T07:31:43Z</time>
      </trkpt>
      <trkpt lat="43.54532" lon="6.72533">
        <ele>259.181152</ele>
        <time>2010-06-27T07:31:44Z</time>
      </trkpt>
      <trkpt lat="43.54521" lon="6.72595">
        <ele>254.093521</ele>
        <time>2010-06-27T07:31:48Z</time>
      </trkpt>
      <trkpt lat="43.54513" lon="6.7264">
        <ele>253.155853</ele>
        <time>2010-06-27T07:31:51Z</time>
      </trkpt>
      <trkpt lat="43.54508" lon="6.72655">
        <ele>253.01123</ele>
        <time>2010-06-27T07:31:52Z</time>
      </trkpt>
      <trkpt lat="43.54528" lon="6.72683">
        <ele>248.711655</ele>
        <time>2010-06-27T07:31:56Z</time>
      </trkpt>
      <trkpt lat="43.54545" lon="6.72687">
        <ele>246.843384</ele>
        <time>2010-06-27T07:31:58Z</time>
      </trkpt>
      <trkpt lat="43.54556" lon="6.72689">
        <ele>245.738541</ele>
        <time>2010-06-27T07:31:59Z</time>
      </trkpt>
      <trkpt lat="43.54564" lon="6.72694">
        <ele>244.90033</ele>
        <time>2010-06-27T07:32:00Z</time>
      </trkpt>
      <trkpt lat="43.54584" lon="6.72741">
        <ele>243.817535</ele>
        <time>2010-06-27T07:32:05Z</time>
      </trkpt>
      <trkpt lat="43.54588" lon="6.72807">
        <ele>245.944412</ele>
        <time>2010-06-27T07:32:14Z</time>
      </trkpt>
      <trkpt lat="43.54588" lon="6.72822">
        <ele>246.559128</ele>
        <time>2010-06-27T07:32:17Z</time>
      </trkpt>
      <trkpt lat="43.54584" lon="6.72833">
        <ele>246.834106</ele>
        <time>2010-06-27T07:32:21Z</time>
      </trkpt>
      <trkpt lat="43.54575" lon="6.7285">
        <ele>246.902023</ele>
        <time>2010-06-27T07:32:27Z</time>
      </trkpt>
      <trkpt lat="43.54571" lon="6.7287">
        <ele>247.273895</ele>
        <time>2010-06-27T07:32:34Z</time>
      </trkpt>
      <trkpt lat="43.54566" lon="6.72887">
        <ele>247.2603</ele>
        <time>2010-06-27T07:32:40Z</time>
      </trkpt>
      <trkpt lat="43.54577" lon="6.72917">
        <ele>249.946793</ele>
        <time>2010-06-27T07:32:52Z</time>
      </trkpt>
      <trkpt lat="43.54599" lon="6.7294">
        <ele>256.578827</ele>
        <time>2010-06-27T07:33:05Z</time>
      </trkpt>
      <trkpt lat="43.54605" lon="6.72953">
        <ele>257.444366</ele>
        <time>2010-06-27T07:33:11Z</time>
      </trkpt>
      <trkpt lat="43.54616" lon="6.73009">
        <ele>255.321014</ele>
        <time>2010-06-27T07:33:32Z</time>
      </trkpt>
      <trkpt lat="43.5462" lon="6.73024">
        <ele>254.584641</ele>
        <time>2010-06-27T07:33:37Z</time>
      </trkpt>
      <trkpt lat="43.54624" lon="6.73033">
        <ele>254.385086</ele>
        <time>2010-06-27T07:33:39Z</time>
      </trkpt>
      <trkpt lat="43.54633" lon="6.7305">
        <ele>253.985992</ele>
        <time>2010-06-27T07:33:42Z</time>
      </trkpt>
      <trkpt lat="43.54656" lon="6.73082">
        <ele>254.411591</ele>
        <time>2010-06-27T07:33:47Z</time>
      </trkpt>
      <trkpt lat="43.54693" lon="6.73134">
        <ele>255.394806</ele>
        <time>2010-06-27T07:33:54Z</time>
      </trkpt>
      <trkpt lat="43.54704" lon="6.73149">
        <ele>255.313309</ele>
        <time>2010-06-27T07:33:56Z</time>
      </trkpt>
      <trkpt lat="43.54712" lon="6.73164">
        <ele>254.74321</ele>
        <time>2010-06-27T07:33:58Z</time>
      </trkpt>
      <trkpt lat="43.54699" lon="6.73209">
        <ele>250.526047</ele>
        <time>2010-06-27T07:34:04Z</time>
      </trkpt>
      <trkpt lat="43.54697" lon="6.73237">
        <ele>250.810196</ele>
        <time>2010-06-27T07:34:10Z</time>
      </trkpt>
      <trkpt lat="43.54697" lon="6.73243">
        <ele>250.853012</ele>
        <time>2010-06-27T07:34:12Z</time>
      </trkpt>
      <trkpt lat="43.5471" lon="6.73333">
        <ele>258.449341</ele>
        <time>2010-06-27T07:34:37Z</time>
      </trkpt>
      <trkpt lat="43.54712" lon="6.73348">
        <ele>259.177338</ele>
        <time>2010-06-27T07:34:41Z</time>
      </trkpt>
      <trkpt lat="43.54712" lon="6.73378">
        <ele>260.933289</ele>
        <time>2010-06-27T07:34:50Z</time>
      </trkpt>
      <trkpt lat="43.54714" lon="6.73391">
        <ele>261.90918</ele>
        <time>2010-06-27T07:34:53Z</time>
      </trkpt>
      <trkpt lat="43.54714" lon="6.73408">
        <ele>261.000702</ele>
        <time>2010-06-27T07:34:58Z</time>
      </trkpt>
      <trkpt lat="43.54723" lon="6.7343">
        <ele>260.382813</ele>
        <time>2010-06-27T07:35:04Z</time>
      </trkpt>
      <trkpt lat="43.54755" lon="6.73468">
        <ele>262.668457</ele>
        <time>2010-06-27T07:35:17Z</time>
      </trkpt>
      <trkpt lat="43.54781" lon="6.73518">
        <ele>262.057526</ele>
        <time>2010-06-27T07:35:29Z</time>
      </trkpt>
      <trkpt lat="43.54813" lon="6.73612">
        <ele>257.547394</ele>
        <time>2010-06-27T07:35:47Z</time>
      </trkpt>
      <trkpt lat="43.54815" lon="6.73621">
        <ele>257.509064</ele>
        <time>2010-06-27T07:35:48Z</time>
      </trkpt>
      <trkpt lat="43.5482" lon="6.73653">
        <ele>258.828552</ele>
        <time>2010-06-27T07:35:52Z</time>
      </trkpt>
      <trkpt lat="43.54807" lon="6.73681">
        <ele>259.68338</ele>
        <time>2010-06-27T07:35:56Z</time>
      </trkpt>
      <trkpt lat="43.54807" lon="6.73711">
        <ele>259.695709</ele>
        <time>2010-06-27T07:36:00Z</time>
      </trkpt>
      <trkpt lat="43.54807" lon="6.73722">
        <ele>259.828003</ele>
        <time>2010-06-27T07:36:01Z</time>
      </trkpt>
      <trkpt lat="43.54807" lon="6.73749">
        <ele>260.156281</ele>
        <time>2010-06-27T07:36:04Z</time>
      </trkpt>
      <trkpt lat="43.54785" lon="6.73807">
        <ele>256.529388</ele>
        <time>2010-06-27T07:36:11Z</time>
      </trkpt>
      <trkpt lat="43.54774" lon="6.73846">
        <ele>251.620316</ele>
        <time>2010-06-27T07:36:15Z</time>
      </trkpt>
      <trkpt lat="43.54768" lon="6.73867">
        <ele>248.616837</ele>
        <time>2010-06-27T07:36:17Z</time>
      </trkpt>
      <trkpt lat="43.54749" lon="6.73891">
        <ele>246.319885</ele>
        <time>2010-06-27T07:36:20Z</time>
      </trkpt>
      <trkpt lat="43.54704" lon="6.73921">
        <ele>241.600159</ele>
        <time>2010-06-27T07:36:27Z</time>
      </trkpt>
      <trkpt lat="43.54686" lon="6.73932">
        <ele>241.806137</ele>
        <time>2010-06-27T07:36:30Z</time>
      </trkpt>
      <trkpt lat="43.54605" lon="6.74011">
        <ele>247.055862</ele>
        <time>2010-06-27T07:36:47Z</time>
      </trkpt>
      <trkpt lat="43.54541" lon="6.74101">
        <ele>248.951599</ele>
        <time>2010-06-27T07:37:04Z</time>
      </trkpt>
      <trkpt lat="43.54504" lon="6.74189">
        <ele>253.586136</ele>
        <time>2010-06-27T07:37:21Z</time>
      </trkpt>
      <trkpt lat="43.54483" lon="6.74258">
        <ele>262.136627</ele>
        <time>2010-06-27T07:37:34Z</time>
      </trkpt>
      <trkpt lat="43.54493" lon="6.74241">
        <ele>257.673767</ele>
        <time>2010-06-27T07:37:39Z</time>
      </trkpt>
      <trkpt lat="43.54496" lon="6.74237">
        <ele>257.206146</ele>
        <time>2010-06-27T07:37:40Z</time>
      </trkpt>
      <trkpt lat="43.54506" lon="6.74224">
        <ele>256.53244</ele>
        <time>2010-06-27T07:37:44Z</time>
      </trkpt>
      <trkpt lat="43.54515" lon="6.74215">
        <ele>256.556641</ele>
        <time>2010-06-27T07:37:47Z</time>
      </trkpt>
      <trkpt lat="43.54558" lon="6.74187">
        <ele>256.112091</ele>
        <time>2010-06-27T07:38:05Z</time>
      </trkpt>
      <trkpt lat="43.54562" lon="6.74185">
        <ele>256.981476</ele>
        <time>2010-06-27T07:38:07Z</time>
      </trkpt>
      <trkpt lat="43.54568" lon="6.74181">
        <ele>257.934265</ele>
        <time>2010-06-27T07:38:10Z</time>
      </trkpt>
      <trkpt lat="43.54584" lon="6.7417">
        <ele>258.930481</ele>
        <time>2010-06-27T07:38:17Z</time>
      </trkpt>
      <trkpt lat="43.5462" lon="6.74168">
        <ele>265.512573</ele>
        <time>2010-06-27T07:38:34Z</time>
      </trkpt>
      <trkpt lat="43.54624" lon="6.74161">
        <ele>264.235443</ele>
        <time>2010-06-27T07:38:37Z</time>
      </trkpt>
      <trkpt lat="43.54646" lon="6.74142">
        <ele>261.540039</ele>
        <time>2010-06-27T07:38:48Z</time>
      </trkpt>
      <trkpt lat="43.54654" lon="6.74144">
        <ele>262.864502</ele>
        <time>2010-06-27T07:38:52Z</time>
      </trkpt>
      <trkpt lat="43.54682" lon="6.74138">
        <ele>263.285767</ele>
        <time>2010-06-27T07:39:05Z</time>
      </trkpt>
      <trkpt lat="43.54691" lon="6.74142">
        <ele>263.797424</ele>
        <time>2010-06-27T07:39:10Z</time>
      </trkpt>
      <trkpt lat="43.54693" lon="6.74155">
        <ele>266.894409</ele>
        <time>2010-06-27T07:39:14Z</time>
      </trkpt>
      <trkpt lat="43.54697" lon="6.74164">
        <ele>268.513855</ele>
        <time>2010-06-27T07:39:17Z</time>
      </trkpt>
      <trkpt lat="43.54699" lon="6.74166">
        <ele>268.752136</ele>
        <time>2010-06-27T07:39:18Z</time>
      </trkpt>
      <trkpt lat="43.5471" lon="6.7417">
        <ele>268.257172</ele>
        <time>2010-06-27T07:39:23Z</time>
      </trkpt>
      <trkpt lat="43.54723" lon="6.74176">
        <ele>267.846405</ele>
        <time>2010-06-27T07:39:29Z</time>
      </trkpt>
      <trkpt lat="43.54734" lon="6.74187">
        <ele>267.251282</ele>
        <time>2010-06-27T07:39:34Z</time>
      </trkpt>
      <trkpt lat="43.54742" lon="6.74211">
        <ele>266.427551</ele>
        <time>2010-06-27T07:39:41Z</time>
      </trkpt>
      <trkpt lat="43.54747" lon="6.74226">
        <ele>264.921448</ele>
        <time>2010-06-27T07:39:46Z</time>
      </trkpt>
      <trkpt lat="43.54744" lon="6.74234">
        <ele>265.701111</ele>
        <time>2010-06-27T07:39:49Z</time>
      </trkpt>
      <trkpt lat="43.54742" lon="6.74237">
        <ele>266.470123</ele>
        <time>2010-06-27T07:39:50Z</time>
      </trkpt>
      <trkpt lat="43.54736" lon="6.74245">
        <ele>268.780762</ele>
        <time>2010-06-27T07:39:53Z</time>
      </trkpt>
      <trkpt lat="43.54693" lon="6.74273">
        <ele>278.681702</ele>
        <time>2010-06-27T07:40:10Z</time>
      </trkpt>
      <trkpt lat="43.5468" lon="6.74284">
        <ele>280.750305</ele>
        <time>2010-06-27T07:40:16Z</time>
      </trkpt>
      <trkpt lat="43.54671" lon="6.74297">
        <ele>280.873901</ele>
        <time>2010-06-27T07:40:22Z</time>
      </trkpt>
      <trkpt lat="43.54667" lon="6.74309">
        <ele>280.635254</ele>
        <time>2010-06-27T07:40:28Z</time>
      </trkpt>
      <trkpt lat="43.54674" lon="6.7432">
        <ele>279.478821</ele>
        <time>2010-06-27T07:40:31Z</time>
      </trkpt>
      <trkpt lat="43.54678" lon="6.74331">
        <ele>278.990387</ele>
        <time>2010-06-27T07:40:34Z</time>
      </trkpt>
      <trkpt lat="43.5468" lon="6.74333">
        <ele>278.495117</ele>
        <time>2010-06-27T07:40:35Z</time>
      </trkpt>
      <trkpt lat="43.54682" lon="6.74346">
        <ele>278.208099</ele>
        <time>2010-06-27T07:40:38Z</time>
      </trkpt>
      <trkpt lat="43.54684" lon="6.74357">
        <ele>277.857117</ele>
        <time>2010-06-27T07:40:41Z</time>
      </trkpt>
      <trkpt lat="43.54669" lon="6.74436">
        <ele>284.811035</ele>
        <time>2010-06-27T07:41:03Z</time>
      </trkpt>
      <trkpt lat="43.54669" lon="6.74438">
        <ele>284.943817</ele>
        <time>2010-06-27T07:41:04Z</time>
      </trkpt>
      <trkpt lat="43.54671" lon="6.74462">
        <ele>288.281708</ele>
        <time>2010-06-27T07:41:11Z</time>
      </trkpt>
      <trkpt lat="43.54699" lon="6.74466">
        <ele>284.958282</ele>
        <time>2010-06-27T07:41:21Z</time>
      </trkpt>
      <trkpt lat="43.54719" lon="6.7446">
        <ele>280.671661</ele>
        <time>2010-06-27T07:41:28Z</time>
      </trkpt>
      <trkpt lat="43.54727" lon="6.7447">
        <ele>281.183075</ele>
        <time>2010-06-27T07:41:32Z</time>
      </trkpt>
      <trkpt lat="43.54729" lon="6.74479">
        <ele>282.507813</ele>
        <time>2010-06-27T07:41:34Z</time>
      </trkpt>
      <trkpt lat="43.54736" lon="6.74492">
        <ele>283.870636</ele>
        <time>2010-06-27T07:41:38Z</time>
      </trkpt>
      <trkpt lat="43.54738" lon="6.74494">
        <ele>283.889679</ele>
        <time>2010-06-27T07:41:39Z</time>
      </trkpt>
      <trkpt lat="43.54753" lon="6.74537">
        <ele>287.979919</ele>
        <time>2010-06-27T07:41:52Z</time>
      </trkpt>
      <trkpt lat="43.54774" lon="6.74608">
        <ele>291.538208</ele>
        <time>2010-06-27T07:42:11Z</time>
      </trkpt>
      <trkpt lat="43.54783" lon="6.74625">
        <ele>291.651733</ele>
        <time>2010-06-27T07:42:17Z</time>
      </trkpt>
      <trkpt lat="43.54787" lon="6.7464">
        <ele>292.400604</ele>
        <time>2010-06-27T07:42:21Z</time>
      </trkpt>
      <trkpt lat="43.54796" lon="6.74685">
        <ele>294.856537</ele>
        <time>2010-06-27T07:42:34Z</time>
      </trkpt>
      <trkpt lat="43.54798" lon="6.74689">
        <ele>295.03714</ele>
        <time>2010-06-27T07:42:35Z</time>
      </trkpt>
      <trkpt lat="43.54815" lon="6.74739">
        <ele>293.408295</ele>
        <time>2010-06-27T07:42:52Z</time>
      </trkpt>
      <trkpt lat="43.54824" lon="6.74773">
        <ele>289.616852</ele>
        <time>2010-06-27T07:43:04Z</time>
      </trkpt>
      <trkpt lat="43.54824" lon="6.74786">
        <ele>287.230988</ele>
        <time>2010-06-27T07:43:10Z</time>
      </trkpt>
      <trkpt lat="43.54798" lon="6.74786">
        <ele>288.780396</ele>
        <time>2010-06-27T07:43:18Z</time>
      </trkpt>
      <trkpt lat="43.54787" lon="6.74786">
        <ele>289.666382</ele>
        <time>2010-06-27T07:43:21Z</time>
      </trkpt>
      <trkpt lat="43.54781" lon="6.74786">
        <ele>290.364868</ele>
        <time>2010-06-27T07:43:23Z</time>
      </trkpt>
      <trkpt lat="43.54669" lon="6.74792">
        <ele>303.592834</ele>
        <time>2010-06-27T07:44:01Z</time>
      </trkpt>
      <trkpt lat="43.54588" lon="6.7482">
        <ele>312.440094</ele>
        <time>2010-06-27T07:44:22Z</time>
      </trkpt>
      <trkpt lat="43.54584" lon="6.74822">
        <ele>312.632111</ele>
        <time>2010-06-27T07:44:23Z</time>
      </trkpt>
      <trkpt lat="43.54566" lon="6.74831">
        <ele>313.624573</ele>
        <time>2010-06-27T07:44:28Z</time>
      </trkpt>
      <trkpt lat="43.54549" lon="6.74848">
        <ele>316.029388</ele>
        <time>2010-06-27T07:44:34Z</time>
      </trkpt>
      <trkpt lat="43.54566" lon="6.74958">
        <ele>299.658508</ele>
        <time>2010-06-27T07:44:39Z</time>
      </trkpt>
      <trkpt lat="43.54575" lon="6.74966">
        <ele>296.310791</ele>
        <time>2010-06-27T07:44:41Z</time>
      </trkpt>
      <trkpt lat="43.54581" lon="6.74981">
        <ele>294.403259</ele>
        <time>2010-06-27T07:44:44Z</time>
      </trkpt>
      <trkpt lat="43.54594" lon="6.75056">
        <ele>296.54834</ele>
        <time>2010-06-27T07:44:59Z</time>
      </trkpt>
      <trkpt lat="43.54609" lon="6.75093">
        <ele>294.168457</ele>
        <time>2010-06-27T07:45:06Z</time>
      </trkpt>
      <trkpt lat="43.54624" lon="6.75121">
        <ele>292.799347</ele>
        <time>2010-06-27T07:45:10Z</time>
      </trkpt>
      <trkpt lat="43.54635" lon="6.75131">
        <ele>290.158112</ele>
        <time>2010-06-27T07:45:12Z</time>
      </trkpt>
      <trkpt lat="43.54644" lon="6.7514">
        <ele>288.148956</ele>
        <time>2010-06-27T07:45:14Z</time>
      </trkpt>
      <trkpt lat="43.54652" lon="6.75148">
        <ele>286.053406</ele>
        <time>2010-06-27T07:45:16Z</time>
      </trkpt>
      <trkpt lat="43.54671" lon="6.75181">
        <ele>283.274384</ele>
        <time>2010-06-27T07:45:22Z</time>
      </trkpt>
      <trkpt lat="43.54669" lon="6.75219">
        <ele>282.47171</ele>
        <time>2010-06-27T07:45:26Z</time>
      </trkpt>
      <trkpt lat="43.54659" lon="6.75258">
        <ele>281.488464</ele>
        <time>2010-06-27T07:45:30Z</time>
      </trkpt>
      <trkpt lat="43.54629" lon="6.75292">
        <ele>280.707642</ele>
        <time>2010-06-27T07:45:36Z</time>
      </trkpt>
      <trkpt lat="43.54616" lon="6.75297">
        <ele>281.343658</ele>
        <time>2010-06-27T07:45:38Z</time>
      </trkpt>
      <trkpt lat="43.54573" lon="6.75305">
        <ele>285.390015</ele>
        <time>2010-06-27T07:45:44Z</time>
      </trkpt>
      <trkpt lat="43.54566" lon="6.75309">
        <ele>285.601501</ele>
        <time>2010-06-27T07:45:45Z</time>
      </trkpt>
      <trkpt lat="43.54541" lon="6.75342">
        <ele>284.854553</ele>
        <time>2010-06-27T07:45:51Z</time>
      </trkpt>
      <trkpt lat="43.54541" lon="6.75348">
        <ele>283.561066</ele>
        <time>2010-06-27T07:45:52Z</time>
      </trkpt>
      <trkpt lat="43.54543" lon="6.75363">
        <ele>280.898468</ele>
        <time>2010-06-27T07:45:54Z</time>
      </trkpt>
      <trkpt lat="43.54556" lon="6.75387">
        <ele>279.313507</ele>
        <time>2010-06-27T07:45:57Z</time>
      </trkpt>
      <trkpt lat="43.54592" lon="6.75415">
        <ele>272.029541</ele>
        <time>2010-06-27T07:46:02Z</time>
      </trkpt>
      <trkpt lat="43.54599" lon="6.75421">
        <ele>270.956909</ele>
        <time>2010-06-27T07:46:03Z</time>
      </trkpt>
      <trkpt lat="43.54609" lon="6.75438">
        <ele>269.114014</ele>
        <time>2010-06-27T07:46:05Z</time>
      </trkpt>
      <trkpt lat="43.54616" lon="6.75447">
        <ele>267.587402</ele>
        <time>2010-06-27T07:46:06Z</time>
      </trkpt>
      <trkpt lat="43.54622" lon="6.75455">
        <ele>265.942535</ele>
        <time>2010-06-27T07:46:07Z</time>
      </trkpt>
      <trkpt lat="43.54629" lon="6.75485">
        <ele>264.941467</ele>
        <time>2010-06-27T07:46:10Z</time>
      </trkpt>
      <trkpt lat="43.54629" lon="6.75496">
        <ele>264.255035</ele>
        <time>2010-06-27T07:46:11Z</time>
      </trkpt>
      <trkpt lat="43.54618" lon="6.75548">
        <ele>260.491699</ele>
        <time>2010-06-27T07:46:16Z</time>
      </trkpt>
      <trkpt lat="43.54579" lon="6.75578">
        <ele>262.324036</ele>
        <time>2010-06-27T07:46:23Z</time>
      </trkpt>
      <trkpt lat="43.54562" lon="6.7556">
        <ele>268.11911</ele>
        <time>2010-06-27T07:46:28Z</time>
      </trkpt>
      <trkpt lat="43.54549" lon="6.75582">
        <ele>264.018616</ele>
        <time>2010-06-27T07:46:32Z</time>
      </trkpt>
      <trkpt lat="43.54536" lon="6.75608">
        <ele>258.456757</ele>
        <time>2010-06-27T07:46:36Z</time>
      </trkpt>
      <trkpt lat="43.54521" lon="6.75623">
        <ele>259.944397</ele>
        <time>2010-06-27T07:46:39Z</time>
      </trkpt>
      <trkpt lat="43.54487" lon="6.75646">
        <ele>269.874908</ele>
        <time>2010-06-27T07:46:46Z</time>
      </trkpt>
      <trkpt lat="43.545" lon="6.75663">
        <ele>260.872437</ele>
        <time>2010-06-27T07:46:49Z</time>
      </trkpt>
      <trkpt lat="43.54517" lon="6.75698">
        <ele>255.321732</ele>
        <time>2010-06-27T07:46:54Z</time>
      </trkpt>
      <trkpt lat="43.54523" lon="6.75724">
        <ele>254.453522</ele>
        <time>2010-06-27T07:46:57Z</time>
      </trkpt>
      <trkpt lat="43.54528" lon="6.75762">
        <ele>253.5672</ele>
        <time>2010-06-27T07:47:02Z</time>
      </trkpt>
      <trkpt lat="43.5453" lon="6.75777">
        <ele>253.469833</ele>
        <time>2010-06-27T07:47:04Z</time>
      </trkpt>
      <trkpt lat="43.54538" lon="6.75784">
        <ele>251.266968</ele>
        <time>2010-06-27T07:47:05Z</time>
      </trkpt>
      <trkpt lat="43.54553" lon="6.75818">
        <ele>249.407059</ele>
        <time>2010-06-27T07:47:09Z</time>
      </trkpt>
      <trkpt lat="43.54562" lon="6.75846">
        <ele>249.993896</ele>
        <time>2010-06-27T07:47:12Z</time>
      </trkpt>
      <trkpt lat="43.54558" lon="6.75887">
        <ele>246.956192</ele>
        <time>2010-06-27T07:47:16Z</time>
      </trkpt>
      <trkpt lat="43.54558" lon="6.75895">
        <ele>245.659988</ele>
        <time>2010-06-27T07:47:17Z</time>
      </trkpt>
      <trkpt lat="43.54545" lon="6.75932">
        <ele>246.843857</ele>
        <time>2010-06-27T07:47:21Z</time>
      </trkpt>
      <trkpt lat="43.54543" lon="6.7594">
        <ele>247.542084</ele>
        <time>2010-06-27T07:47:22Z</time>
      </trkpt>
      <trkpt lat="43.54541" lon="6.75983">
        <ele>247.214615</ele>
        <time>2010-06-27T07:47:27Z</time>
      </trkpt>
      <trkpt lat="43.54543" lon="6.75992">
        <ele>245.575592</ele>
        <time>2010-06-27T07:47:28Z</time>
      </trkpt>
      <trkpt lat="43.54562" lon="6.76018">
        <ele>239.25946</ele>
        <time>2010-06-27T07:47:31Z</time>
      </trkpt>
      <trkpt lat="43.54575" lon="6.76045">
        <ele>234.946442</ele>
        <time>2010-06-27T07:47:34Z</time>
      </trkpt>
      <trkpt lat="43.54566" lon="6.7609">
        <ele>220.255386</ele>
        <time>2010-06-27T07:47:40Z</time>
      </trkpt>
      <trkpt lat="43.54562" lon="6.76093">
        <ele>219.797745</ele>
        <time>2010-06-27T07:47:41Z</time>
      </trkpt>
      <trkpt lat="43.54538" lon="6.76093">
        <ele>220.838745</ele>
        <time>2010-06-27T07:47:45Z</time>
      </trkpt>
      <trkpt lat="43.54526" lon="6.76093">
        <ele>221.338562</ele>
        <time>2010-06-27T07:47:47Z</time>
      </trkpt>
      <trkpt lat="43.54448" lon="6.76093">
        <ele>247.282211</ele>
        <time>2010-06-27T07:47:58Z</time>
      </trkpt>
      <trkpt lat="43.54442" lon="6.76093">
        <ele>250.632248</ele>
        <time>2010-06-27T07:47:59Z</time>
      </trkpt>
      <trkpt lat="43.54448" lon="6.76116">
        <ele>246.99411</ele>
        <time>2010-06-27T07:48:02Z</time>
      </trkpt>
      <trkpt lat="43.54465" lon="6.76133">
        <ele>238.749619</ele>
        <time>2010-06-27T07:48:05Z</time>
      </trkpt>
      <trkpt lat="43.54504" lon="6.76178">
        <ele>225.779358</ele>
        <time>2010-06-27T07:48:11Z</time>
      </trkpt>
      <trkpt lat="43.54521" lon="6.76204">
        <ele>222.896667</ele>
        <time>2010-06-27T07:48:14Z</time>
      </trkpt>
      <trkpt lat="43.54538" lon="6.76234">
        <ele>219.43541</ele>
        <time>2010-06-27T07:48:17Z</time>
      </trkpt>
      <trkpt lat="43.5456" lon="6.76281">
        <ele>216.314072</ele>
        <time>2010-06-27T07:48:21Z</time>
      </trkpt>
      <trkpt lat="43.54566" lon="6.7629">
        <ele>215.529953</ele>
        <time>2010-06-27T07:48:22Z</time>
      </trkpt>
      <trkpt lat="43.54596" lon="6.76333">
        <ele>207.708252</ele>
        <time>2010-06-27T07:48:28Z</time>
      </trkpt>
      <trkpt lat="43.54611" lon="6.76374">
        <ele>205.594025</ele>
        <time>2010-06-27T07:48:37Z</time>
      </trkpt>
      <trkpt lat="43.54614" lon="6.76372">
        <ele>206.064316</ele>
        <time>2010-06-27T07:48:46Z</time>
      </trkpt>
      <trkpt lat="43.54616" lon="6.76367">
        <ele>206.819382</ele>
        <time>2010-06-27T07:49:38Z</time>
      </trkpt>
      <trkpt lat="43.54618" lon="6.76367">
        <ele>206.994659</ele>
        <time>2010-06-27T07:49:54Z</time>
      </trkpt>
      <trkpt lat="43.54618" lon="6.76367">
        <ele>206.994659</ele>
        <time>2010-06-27T07:49:59Z</time>
      </trkpt>
      <trkpt lat="43.54614" lon="6.76367">
        <ele>206.643845</ele>
        <time>2010-06-27T07:50:02Z</time>
      </trkpt>
      <trkpt lat="43.54609" lon="6.76372">
        <ele>205.705887</ele>
        <time>2010-06-27T07:50:17Z</time>
      </trkpt>
      <trkpt lat="43.54605" lon="6.76376">
        <ele>204.754272</ele>
        <time>2010-06-27T07:50:37Z</time>
      </trkpt>
      <trkpt lat="43.54605" lon="6.76374">
        <ele>205.050278</ele>
        <time>2010-06-27T07:50:54Z</time>
      </trkpt>
      <trkpt lat="43.54601" lon="6.76374">
        <ele>204.686493</ele>
        <time>2010-06-27T07:50:58Z</time>
      </trkpt>
      <trkpt lat="43.54601" lon="6.76372">
        <ele>204.985947</ele>
        <time>2010-06-27T07:50:59Z</time>
      </trkpt>
      <trkpt lat="43.54596" lon="6.76369">
        <ele>204.927307</ele>
        <time>2010-06-27T07:51:32Z</time>
      </trkpt>
      <trkpt lat="43.54596" lon="6.76372">
        <ele>204.624435</ele>
        <time>2010-06-27T07:51:58Z</time>
      </trkpt>
      <trkpt lat="43.54581" lon="6.76378">
        <ele>204.823669</ele>
        <time>2010-06-27T07:52:01Z</time>
      </trkpt>
      <trkpt lat="43.54581" lon="6.76397">
        <ele>201.973007</ele>
        <time>2010-06-27T07:52:06Z</time>
      </trkpt>
      <trkpt lat="43.54584" lon="6.76399">
        <ele>201.356842</ele>
        <time>2010-06-27T07:52:07Z</time>
      </trkpt>
      <trkpt lat="43.54594" lon="6.76412">
        <ele>198.683121</ele>
        <time>2010-06-27T07:52:10Z</time>
      </trkpt>
      <trkpt lat="43.54596" lon="6.76434">
        <ele>195.042557</ele>
        <time>2010-06-27T07:52:14Z</time>
      </trkpt>
      <trkpt lat="43.54594" lon="6.76455">
        <ele>190.797104</ele>
        <time>2010-06-27T07:52:17Z</time>
      </trkpt>
      <trkpt lat="43.54562" lon="6.76468">
        <ele>193.50415</ele>
        <time>2010-06-27T07:52:24Z</time>
      </trkpt>
      <trkpt lat="43.5456" lon="6.76479">
        <ele>193.093216</ele>
        <time>2010-06-27T07:52:29Z</time>
      </trkpt>
      <trkpt lat="43.5456" lon="6.76479">
        <ele>193.093216</ele>
        <time>2010-06-27T07:52:32Z</time>
      </trkpt>
      <trkpt lat="43.54566" lon="6.76481">
        <ele>191.483047</ele>
        <time>2010-06-27T07:52:34Z</time>
      </trkpt>
      <trkpt lat="43.54573" lon="6.76487">
        <ele>189.836136</ele>
        <time>2010-06-27T07:52:36Z</time>
      </trkpt>
      <trkpt lat="43.54584" lon="6.76509">
        <ele>186.543564</ele>
        <time>2010-06-27T07:52:40Z</time>
      </trkpt>
      <trkpt lat="43.54586" lon="6.76517">
        <ele>185.665863</ele>
        <time>2010-06-27T07:52:41Z</time>
      </trkpt>
      <trkpt lat="43.5459" lon="6.76556">
        <ele>182.325516</ele>
        <time>2010-06-27T07:52:46Z</time>
      </trkpt>
      <trkpt lat="43.5459" lon="6.76565">
        <ele>181.202744</ele>
        <time>2010-06-27T07:52:47Z</time>
      </trkpt>
      <trkpt lat="43.54584" lon="6.76599">
        <ele>177.101059</ele>
        <time>2010-06-27T07:52:51Z</time>
      </trkpt>
      <trkpt lat="43.54579" lon="6.76605">
        <ele>176.519379</ele>
        <time>2010-06-27T07:52:52Z</time>
      </trkpt>
      <trkpt lat="43.54551" lon="6.76623">
        <ele>180.31543</ele>
        <time>2010-06-27T07:52:57Z</time>
      </trkpt>
      <trkpt lat="43.54547" lon="6.76625">
        <ele>181.289886</ele>
        <time>2010-06-27T07:52:58Z</time>
      </trkpt>
      <trkpt lat="43.54543" lon="6.76625">
        <ele>182.547058</ele>
        <time>2010-06-27T07:52:59Z</time>
      </trkpt>
      <trkpt lat="43.5453" lon="6.76638">
        <ele>185.809448</ele>
        <time>2010-06-27T07:53:06Z</time>
      </trkpt>
      <trkpt lat="43.54528" lon="6.76648">
        <ele>186.098557</ele>
        <time>2010-06-27T07:53:11Z</time>
      </trkpt>
      <trkpt lat="43.54528" lon="6.76659">
        <ele>185.838104</ele>
        <time>2010-06-27T07:53:16Z</time>
      </trkpt>
      <trkpt lat="43.54545" lon="6.76678">
        <ele>180.51297</ele>
        <time>2010-06-27T07:53:19Z</time>
      </trkpt>
      <trkpt lat="43.54549" lon="6.76685">
        <ele>179.286896</ele>
        <time>2010-06-27T07:53:20Z</time>
      </trkpt>
      <trkpt lat="43.54558" lon="6.76698">
        <ele>176.654984</ele>
        <time>2010-06-27T07:53:22Z</time>
      </trkpt>
      <trkpt lat="43.54566" lon="6.76711">
        <ele>173.783432</ele>
        <time>2010-06-27T07:53:24Z</time>
      </trkpt>
      <trkpt lat="43.54571" lon="6.76719">
        <ele>172.441315</ele>
        <time>2010-06-27T07:53:25Z</time>
      </trkpt>
      <trkpt lat="43.54575" lon="6.76756">
        <ele>167.651947</ele>
        <time>2010-06-27T07:53:29Z</time>
      </trkpt>
      <trkpt lat="43.54577" lon="6.76764">
        <ele>166.079224</ele>
        <time>2010-06-27T07:53:30Z</time>
      </trkpt>
      <trkpt lat="43.54581" lon="6.76792">
        <ele>160.442276</ele>
        <time>2010-06-27T07:53:33Z</time>
      </trkpt>
      <trkpt lat="43.54581" lon="6.76811">
        <ele>156.1362</ele>
        <time>2010-06-27T07:53:35Z</time>
      </trkpt>
      <trkpt lat="43.54579" lon="6.76833">
        <ele>152.223969</ele>
        <time>2010-06-27T07:53:38Z</time>
      </trkpt>
      <trkpt lat="43.54556" lon="6.76837">
        <ele>160.435349</ele>
        <time>2010-06-27T07:53:44Z</time>
      </trkpt>
      <trkpt lat="43.54549" lon="6.76835">
        <ele>163.474442</ele>
        <time>2010-06-27T07:53:46Z</time>
      </trkpt>
      <trkpt lat="43.54517" lon="6.76841">
        <ele>176.381607</ele>
        <time>2010-06-27T07:53:57Z</time>
      </trkpt>
      <trkpt lat="43.54517" lon="6.76844">
        <ele>176.294891</ele>
        <time>2010-06-27T07:53:58Z</time>
      </trkpt>
      <trkpt lat="43.54545" lon="6.76874">
        <ele>164.029816</ele>
        <time>2010-06-27T07:54:03Z</time>
      </trkpt>
      <trkpt lat="43.54551" lon="6.76882">
        <ele>161.274048</ele>
        <time>2010-06-27T07:54:04Z</time>
      </trkpt>
      <trkpt lat="43.54566" lon="6.76919">
        <ele>153.429123</ele>
        <time>2010-06-27T07:54:08Z</time>
      </trkpt>
      <trkpt lat="43.54571" lon="6.76929">
        <ele>150.289124</ele>
        <time>2010-06-27T07:54:09Z</time>
      </trkpt>
      <trkpt lat="43.54584" lon="6.76983">
        <ele>139.398651</ele>
        <time>2010-06-27T07:54:14Z</time>
      </trkpt>
      <trkpt lat="43.54581" lon="6.76996">
        <ele>138.003632</ele>
        <time>2010-06-27T07:54:16Z</time>
      </trkpt>
      <trkpt lat="43.54586" lon="6.77009">
        <ele>135.180679</ele>
        <time>2010-06-27T07:54:19Z</time>
      </trkpt>
      <trkpt lat="43.54603" lon="6.77054">
        <ele>127.308861</ele>
        <time>2010-06-27T07:54:27Z</time>
      </trkpt>
      <trkpt lat="43.54605" lon="6.77063">
        <ele>126.25705</ele>
        <time>2010-06-27T07:54:28Z</time>
      </trkpt>
      <trkpt lat="43.54609" lon="6.77078">
        <ele>124.538475</ele>
        <time>2010-06-27T07:54:30Z</time>
      </trkpt>
      <trkpt lat="43.54616" lon="6.77099">
        <ele>122.68853</ele>
        <time>2010-06-27T07:54:33Z</time>
      </trkpt>
      <trkpt lat="43.54624" lon="6.77095">
        <ele>122.832443</ele>
        <time>2010-06-27T07:54:35Z</time>
      </trkpt>
      <trkpt lat="43.54648" lon="6.77071">
        <ele>122.854034</ele>
        <time>2010-06-27T07:54:40Z</time>
      </trkpt>
      <trkpt lat="43.54654" lon="6.77065">
        <ele>122.568398</ele>
        <time>2010-06-27T07:54:41Z</time>
      </trkpt>
      <trkpt lat="43.5468" lon="6.77039">
        <ele>119.618675</ele>
        <time>2010-06-27T07:54:46Z</time>
      </trkpt>
      <trkpt lat="43.54689" lon="6.77039">
        <ele>118.42704</ele>
        <time>2010-06-27T07:54:47Z</time>
      </trkpt>
      <trkpt lat="43.54717" lon="6.77035">
        <ele>112.814713</ele>
        <time>2010-06-27T07:54:51Z</time>
      </trkpt>
      <trkpt lat="43.54738" lon="6.77039">
        <ele>107.891441</ele>
        <time>2010-06-27T07:54:54Z</time>
      </trkpt>
      <trkpt lat="43.5477" lon="6.77052">
        <ele>102.723068</ele>
        <time>2010-06-27T07:54:59Z</time>
      </trkpt>
      <trkpt lat="43.54759" lon="6.77088">
        <ele>104.758881</ele>
        <time>2010-06-27T07:55:02Z</time>
      </trkpt>
      <trkpt lat="43.54751" lon="6.77105">
        <ele>106.032684</ele>
        <time>2010-06-27T07:55:04Z</time>
      </trkpt>
      <trkpt lat="43.54744" lon="6.77114">
        <ele>106.552841</ele>
        <time>2010-06-27T07:55:05Z</time>
      </trkpt>
      <trkpt lat="43.5474" lon="6.77138">
        <ele>106.175781</ele>
        <time>2010-06-27T07:55:08Z</time>
      </trkpt>
      <trkpt lat="43.54759" lon="6.77146">
        <ele>104.225281</ele>
        <time>2010-06-27T07:55:14Z</time>
      </trkpt>
      <trkpt lat="43.54764" lon="6.77142">
        <ele>103.95356</ele>
        <time>2010-06-27T07:55:15Z</time>
      </trkpt>
      <trkpt lat="43.54783" lon="6.77125">
        <ele>102.377777</ele>
        <time>2010-06-27T07:55:20Z</time>
      </trkpt>
      <trkpt lat="43.54787" lon="6.77135">
        <ele>101.947525</ele>
        <time>2010-06-27T07:55:25Z</time>
      </trkpt>
      <trkpt lat="43.54787" lon="6.77135">
        <ele>101.947525</ele>
        <time>2010-06-27T07:55:28Z</time>
      </trkpt>
      <trkpt lat="43.54789" lon="6.7714">
        <ele>101.818825</ele>
        <time>2010-06-27T07:55:32Z</time>
      </trkpt>
      <trkpt lat="43.54792" lon="6.77138">
        <ele>101.710526</ele>
        <time>2010-06-27T07:55:33Z</time>
      </trkpt>
      <trkpt lat="43.54789" lon="6.77142">
        <ele>101.811378</ele>
        <time>2010-06-27T07:56:03Z</time>
      </trkpt>
      <trkpt lat="43.54783" lon="6.77146">
        <ele>102.244759</ele>
        <time>2010-06-27T07:56:25Z</time>
      </trkpt>
      <trkpt lat="43.54779" lon="6.77148">
        <ele>102.59108</ele>
        <time>2010-06-27T07:57:31Z</time>
      </trkpt>
      <trkpt lat="43.54772" lon="6.7715">
        <ele>103.096397</ele>
        <time>2010-06-27T07:57:59Z</time>
      </trkpt>
      <trkpt lat="43.5477" lon="6.77153">
        <ele>103.238815</ele>
        <time>2010-06-27T07:58:04Z</time>
      </trkpt>
      <trkpt lat="43.54766" lon="6.77157">
        <ele>103.503151</ele>
        <time>2010-06-27T07:58:10Z</time>
      </trkpt>
      <trkpt lat="43.54753" lon="6.77178">
        <ele>103.61499</ele>
        <time>2010-06-27T07:58:28Z</time>
      </trkpt>
      <trkpt lat="43.54747" lon="6.77187">
        <ele>103.569183</ele>
        <time>2010-06-27T07:58:31Z</time>
      </trkpt>
      <trkpt lat="43.54729" lon="6.77206">
        <ele>103.781975</ele>
        <time>2010-06-27T07:58:36Z</time>
      </trkpt>
      <trkpt lat="43.54652" lon="6.77275">
        <ele>101.742752</ele>
        <time>2010-06-27T07:58:57Z</time>
      </trkpt>
      <trkpt lat="43.54571" lon="6.77389">
        <ele>101.695915</ele>
        <time>2010-06-27T07:59:26Z</time>
      </trkpt>
      <trkpt lat="43.54543" lon="6.77427">
        <ele>99.620552</ele>
        <time>2010-06-27T07:59:35Z</time>
      </trkpt>
      <trkpt lat="43.54508" lon="6.77483">
        <ele>97.347488</ele>
        <time>2010-06-27T07:59:47Z</time>
      </trkpt>
      <trkpt lat="43.5447" lon="6.77515">
        <ele>96.116905</ele>
        <time>2010-06-27T07:59:54Z</time>
      </trkpt>
      <trkpt lat="43.54455" lon="6.77526">
        <ele>95.748085</ele>
        <time>2010-06-27T07:59:57Z</time>
      </trkpt>
      <trkpt lat="43.54433" lon="6.77528">
        <ele>96.556168</ele>
        <time>2010-06-27T08:00:01Z</time>
      </trkpt>
      <trkpt lat="43.54412" lon="6.7753">
        <ele>97.364243</ele>
        <time>2010-06-27T08:00:05Z</time>
      </trkpt>
      <trkpt lat="43.54382" lon="6.77535">
        <ele>99.708344</ele>
        <time>2010-06-27T08:00:11Z</time>
      </trkpt>
      <trkpt lat="43.54326" lon="6.77573">
        <ele>99.831421</ele>
        <time>2010-06-27T08:00:24Z</time>
      </trkpt>
      <trkpt lat="43.54307" lon="6.7758">
        <ele>99.348808</ele>
        <time>2010-06-27T08:00:28Z</time>
      </trkpt>
      <trkpt lat="43.54234" lon="6.7758">
        <ele>96.966705</ele>
        <time>2010-06-27T08:00:41Z</time>
      </trkpt>
      <trkpt lat="43.54204" lon="6.77584">
        <ele>95.845749</ele>
        <time>2010-06-27T08:00:46Z</time>
      </trkpt>
      <trkpt lat="43.54169" lon="6.77612">
        <ele>92.044304</ele>
        <time>2010-06-27T08:00:53Z</time>
      </trkpt>
      <trkpt lat="43.54137" lon="6.77623">
        <ele>91.884209</ele>
        <time>2010-06-27T08:00:59Z</time>
      </trkpt>
      <trkpt lat="43.54116" lon="6.77633">
        <ele>89.79734</ele>
        <time>2010-06-27T08:01:03Z</time>
      </trkpt>
      <trkpt lat="43.54041" lon="6.77663">
        <ele>86.692924</ele>
        <time>2010-06-27T08:01:17Z</time>
      </trkpt>
      <trkpt lat="43.54013" lon="6.77653">
        <ele>86.711433</ele>
        <time>2010-06-27T08:01:22Z</time>
      </trkpt>
      <trkpt lat="43.53918" lon="6.77612">
        <ele>84.378624</ele>
        <time>2010-06-27T08:01:40Z</time>
      </trkpt>
      <trkpt lat="43.53914" lon="6.77608">
        <ele>84.477966</ele>
        <time>2010-06-27T08:01:41Z</time>
      </trkpt>
      <trkpt lat="43.53826" lon="6.77547">
        <ele>83.785072</ele>
        <time>2010-06-27T08:01:59Z</time>
      </trkpt>
      <trkpt lat="43.53717" lon="6.77474">
        <ele>83.912766</ele>
        <time>2010-06-27T08:02:18Z</time>
      </trkpt>
      <trkpt lat="43.53614" lon="6.77408">
        <ele>84.446426</ele>
        <time>2010-06-27T08:02:37Z</time>
      </trkpt>
      <trkpt lat="43.53463" lon="6.77344">
        <ele>81.085754</ele>
        <time>2010-06-27T08:03:04Z</time>
      </trkpt>
      <trkpt lat="43.53459" lon="6.77341">
        <ele>81.316841</ele>
        <time>2010-06-27T08:03:05Z</time>
      </trkpt>
      <trkpt lat="43.53453" lon="6.77341">
        <ele>81.183891</ele>
        <time>2010-06-27T08:03:07Z</time>
      </trkpt>
      <trkpt lat="43.5344" lon="6.77341">
        <ele>80.911049</ele>
        <time>2010-06-27T08:03:11Z</time>
      </trkpt>
      <trkpt lat="43.53431" lon="6.77339">
        <ele>81.067322</ele>
        <time>2010-06-27T08:03:13Z</time>
      </trkpt>
      <trkpt lat="43.53365" lon="6.77329">
        <ele>78.285828</ele>
        <time>2010-06-27T08:03:30Z</time>
      </trkpt>
      <trkpt lat="43.5335" lon="6.77326">
        <ele>77.342926</ele>
        <time>2010-06-27T08:03:34Z</time>
      </trkpt>
      <trkpt lat="43.53356" lon="6.77335">
        <ele>77.002686</ele>
        <time>2010-06-27T08:03:36Z</time>
      </trkpt>
      <trkpt lat="43.53369" lon="6.77346">
        <ele>76.695076</ele>
        <time>2010-06-27T08:03:39Z</time>
      </trkpt>
      <trkpt lat="43.5344" lon="6.77402">
        <ele>76.372299</ele>
        <time>2010-06-27T08:03:57Z</time>
      </trkpt>
      <trkpt lat="43.53446" lon="6.77406">
        <ele>76.616638</ele>
        <time>2010-06-27T08:03:59Z</time>
      </trkpt>
      <trkpt lat="43.53453" lon="6.77417">
        <ele>77.092934</ele>
        <time>2010-06-27T08:04:04Z</time>
      </trkpt>
      <trkpt lat="43.53453" lon="6.77419">
        <ele>77.175987</ele>
        <time>2010-06-27T08:04:15Z</time>
      </trkpt>
      <trkpt lat="43.53459" lon="6.77425">
        <ele>77.441139</ele>
        <time>2010-06-27T08:04:43Z</time>
      </trkpt>
      <trkpt lat="43.53461" lon="6.77427">
        <ele>77.52317</ele>
        <time>2010-06-27T08:04:47Z</time>
      </trkpt>
      <trkpt lat="43.53463" lon="6.77427">
        <ele>77.527893</ele>
        <time>2010-06-27T08:04:50Z</time>
      </trkpt>
      <trkpt lat="43.53463" lon="6.77427">
        <ele>77.527893</ele>
        <time>2010-06-27T08:04:52Z</time>
      </trkpt>
      <trkpt lat="43.53466" lon="6.77427">
        <ele>77.532875</ele>
        <time>2010-06-27T08:05:34Z</time>
      </trkpt>
      <trkpt lat="43.53466" lon="6.77425">
        <ele>77.460258</ele>
        <time>2010-06-27T08:07:21Z</time>
      </trkpt>
      <trkpt lat="43.53466" lon="6.77429">
        <ele>77.605354</ele>
        <time>2010-06-27T08:07:47Z</time>
      </trkpt>
      <trkpt lat="43.53466" lon="6.77432">
        <ele>77.677704</ele>
        <time>2010-06-27T08:08:05Z</time>
      </trkpt>
      <trkpt lat="43.5347" lon="6.7744">
        <ele>77.957298</ele>
        <time>2010-06-27T08:08:09Z</time>
      </trkpt>
      <trkpt lat="43.5347" lon="6.77442">
        <ele>78.025436</ele>
        <time>2010-06-27T08:08:12Z</time>
      </trkpt>
      <trkpt lat="43.53472" lon="6.77447">
        <ele>78.158783</ele>
        <time>2010-06-27T08:08:16Z</time>
      </trkpt>
      <trkpt lat="43.53472" lon="6.77447">
        <ele>78.158783</ele>
        <time>2010-06-27T08:08:17Z</time>
      </trkpt>
      <trkpt lat="43.53472" lon="6.77459">
        <ele>78.574997</ele>
        <time>2010-06-27T08:08:35Z</time>
      </trkpt>
      <trkpt lat="43.53472" lon="6.77464">
        <ele>78.71373</ele>
        <time>2010-06-27T08:08:41Z</time>
      </trkpt>
      <trkpt lat="43.53468" lon="6.77474">
        <ele>79.07135</ele>
        <time>2010-06-27T08:08:59Z</time>
      </trkpt>
      <trkpt lat="43.53459" lon="6.77472">
        <ele>79.208679</ele>
        <time>2010-06-27T08:09:10Z</time>
      </trkpt>
      <trkpt lat="43.53453" lon="6.77472">
        <ele>79.376472</ele>
        <time>2010-06-27T08:09:16Z</time>
      </trkpt>
      <trkpt lat="43.53446" lon="6.77472">
        <ele>79.548897</ele>
        <time>2010-06-27T08:09:22Z</time>
      </trkpt>
      <trkpt lat="43.53446" lon="6.77472">
        <ele>79.548897</ele>
        <time>2010-06-27T08:09:29Z</time>
      </trkpt>
      <trkpt lat="43.5344" lon="6.7747">
        <ele>79.616219</ele>
        <time>2010-06-27T08:09:34Z</time>
      </trkpt>
      <trkpt lat="43.53433" lon="6.77472">
        <ele>79.9076</ele>
        <time>2010-06-27T08:09:40Z</time>
      </trkpt>
      <trkpt lat="43.53427" lon="6.77477">
        <ele>80.352066</ele>
        <time>2010-06-27T08:09:46Z</time>
      </trkpt>
      <trkpt lat="43.53423" lon="6.77485">
        <ele>81.031479</ele>
        <time>2010-06-27T08:09:50Z</time>
      </trkpt>
      <trkpt lat="43.5342" lon="6.77492">
        <ele>81.527039</ele>
        <time>2010-06-27T08:09:53Z</time>
      </trkpt>
      <trkpt lat="43.5342" lon="6.775">
        <ele>82.050026</ele>
        <time>2010-06-27T08:09:58Z</time>
      </trkpt>
      <trkpt lat="43.53418" lon="6.77513">
        <ele>82.586754</ele>
        <time>2010-06-27T08:10:04Z</time>
      </trkpt>
      <trkpt lat="43.53416" lon="6.77524">
        <ele>83.109879</ele>
        <time>2010-06-27T08:10:10Z</time>
      </trkpt>
      <trkpt lat="43.5341" lon="6.77528">
        <ele>83.834641</ele>
        <time>2010-06-27T08:10:16Z</time>
      </trkpt>
      <trkpt lat="43.53403" lon="6.7753">
        <ele>84.533501</ele>
        <time>2010-06-27T08:10:23Z</time>
      </trkpt>
      <trkpt lat="43.53401" lon="6.77535">
        <ele>84.974388</ele>
        <time>2010-06-27T08:10:28Z</time>
      </trkpt>
      <trkpt lat="43.53393" lon="6.77547">
        <ele>86.70932</ele>
        <time>2010-06-27T08:10:40Z</time>
      </trkpt>
      <trkpt lat="43.5339" lon="6.77554">
        <ele>87.411537</ele>
        <time>2010-06-27T08:10:46Z</time>
      </trkpt>
      <trkpt lat="43.5339" lon="6.77554">
        <ele>87.411537</ele>
        <time>2010-06-27T08:10:53Z</time>
      </trkpt>
      <trkpt lat="43.53386" lon="6.77562">
        <ele>88.508987</ele>
        <time>2010-06-27T08:10:58Z</time>
      </trkpt>
      <trkpt lat="43.53384" lon="6.77567">
        <ele>89.059578</ele>
        <time>2010-06-27T08:11:00Z</time>
      </trkpt>
      <trkpt lat="43.53382" lon="6.77571">
        <ele>89.673233</ele>
        <time>2010-06-27T08:11:02Z</time>
      </trkpt>
      <trkpt lat="43.5338" lon="6.77575">
        <ele>90.349945</ele>
        <time>2010-06-27T08:11:05Z</time>
      </trkpt>
      <trkpt lat="43.53375" lon="6.77582">
        <ele>91.725197</ele>
        <time>2010-06-27T08:11:09Z</time>
      </trkpt>
      <trkpt lat="43.53375" lon="6.77586">
        <ele>92.058556</ele>
        <time>2010-06-27T08:11:11Z</time>
      </trkpt>
      <trkpt lat="43.53365" lon="6.77599">
        <ele>94.496445</ele>
        <time>2010-06-27T08:11:23Z</time>
      </trkpt>
      <trkpt lat="43.53358" lon="6.77625">
        <ele>96.888748</ele>
        <time>2010-06-27T08:11:37Z</time>
      </trkpt>
      <trkpt lat="43.53358" lon="6.77629">
        <ele>96.902206</ele>
        <time>2010-06-27T08:11:40Z</time>
      </trkpt>
      <trkpt lat="43.53354" lon="6.7765">
        <ele>97.465523</ele>
        <time>2010-06-27T08:11:53Z</time>
      </trkpt>
      <trkpt lat="43.5335" lon="6.77659">
        <ele>98.13089</ele>
        <time>2010-06-27T08:11:58Z</time>
      </trkpt>
      <trkpt lat="43.53348" lon="6.77668">
        <ele>98.58226</ele>
        <time>2010-06-27T08:12:04Z</time>
      </trkpt>
      <trkpt lat="43.53341" lon="6.77676">
        <ele>99.839981</ele>
        <time>2010-06-27T08:12:11Z</time>
      </trkpt>
      <trkpt lat="43.53339" lon="6.7768">
        <ele>100.183372</ele>
        <time>2010-06-27T08:12:16Z</time>
      </trkpt>
      <trkpt lat="43.53341" lon="6.77676">
        <ele>99.839981</ele>
        <time>2010-06-27T08:12:22Z</time>
      </trkpt>
      <trkpt lat="43.53341" lon="6.77674">
        <ele>99.782623</ele>
        <time>2010-06-27T08:12:24Z</time>
      </trkpt>
      <trkpt lat="43.53341" lon="6.77676">
        <ele>99.839981</ele>
        <time>2010-06-27T08:12:26Z</time>
      </trkpt>
      <trkpt lat="43.53339" lon="6.77674">
        <ele>100.151321</ele>
        <time>2010-06-27T08:12:29Z</time>
      </trkpt>
      <trkpt lat="43.53333" lon="6.77678">
        <ele>101.441978</ele>
        <time>2010-06-27T08:12:40Z</time>
      </trkpt>
      <trkpt lat="43.53324" lon="6.7768">
        <ele>102.8601</ele>
        <time>2010-06-27T08:12:46Z</time>
      </trkpt>
      <trkpt lat="43.5332" lon="6.77683">
        <ele>102.79306</ele>
        <time>2010-06-27T08:12:52Z</time>
      </trkpt>
      <trkpt lat="43.53313" lon="6.77693">
        <ele>102.657593</ele>
        <time>2010-06-27T08:12:59Z</time>
      </trkpt>
      <trkpt lat="43.53302" lon="6.77715">
        <ele>103.23658</ele>
        <time>2010-06-27T08:13:11Z</time>
      </trkpt>
      <trkpt lat="43.533" lon="6.77717">
        <ele>103.444008</ele>
        <time>2010-06-27T08:13:12Z</time>
      </trkpt>
      <trkpt lat="43.53296" lon="6.77721">
        <ele>103.930626</ele>
        <time>2010-06-27T08:13:16Z</time>
      </trkpt>
      <trkpt lat="43.53285" lon="6.77726">
        <ele>105.215431</ele>
        <time>2010-06-27T08:13:22Z</time>
      </trkpt>
      <trkpt lat="43.53281" lon="6.77736">
        <ele>106.37722</ele>
        <time>2010-06-27T08:13:29Z</time>
      </trkpt>
      <trkpt lat="43.53277" lon="6.77747">
        <ele>106.693443</ele>
        <time>2010-06-27T08:13:35Z</time>
      </trkpt>
      <trkpt lat="43.53232" lon="6.77807">
        <ele>112.394745</ele>
        <time>2010-06-27T08:14:05Z</time>
      </trkpt>
      <trkpt lat="43.53225" lon="6.77833">
        <ele>113.089027</ele>
        <time>2010-06-27T08:14:12Z</time>
      </trkpt>
      <trkpt lat="43.53223" lon="6.77837">
        <ele>113.262787</ele>
        <time>2010-06-27T08:14:13Z</time>
      </trkpt>
      <trkpt lat="43.53221" lon="6.77846">
        <ele>113.637344</ele>
        <time>2010-06-27T08:14:16Z</time>
      </trkpt>
      <trkpt lat="43.53215" lon="6.77854">
        <ele>114.840691</ele>
        <time>2010-06-27T08:14:20Z</time>
      </trkpt>
      <trkpt lat="43.53202" lon="6.77871">
        <ele>115.739799</ele>
        <time>2010-06-27T08:14:29Z</time>
      </trkpt>
      <trkpt lat="43.53189" lon="6.77886">
        <ele>118.50824</ele>
        <time>2010-06-27T08:14:39Z</time>
      </trkpt>
      <trkpt lat="43.53184" lon="6.77904">
        <ele>119.776283</ele>
        <time>2010-06-27T08:14:46Z</time>
      </trkpt>
      <trkpt lat="43.53182" lon="6.7791">
        <ele>120.6091</ele>
        <time>2010-06-27T08:14:48Z</time>
      </trkpt>
      <trkpt lat="43.53174" lon="6.77929">
        <ele>119.302887</ele>
        <time>2010-06-27T08:14:58Z</time>
      </trkpt>
      <trkpt lat="43.53152" lon="6.77955">
        <ele>119.443169</ele>
        <time>2010-06-27T08:15:11Z</time>
      </trkpt>
      <trkpt lat="43.53124" lon="6.77987">
        <ele>123.512871</ele>
        <time>2010-06-27T08:15:23Z</time>
      </trkpt>
      <trkpt lat="43.53114" lon="6.77996">
        <ele>124.238029</ele>
        <time>2010-06-27T08:15:28Z</time>
      </trkpt>
      <trkpt lat="43.53105" lon="6.77985">
        <ele>125.934235</ele>
        <time>2010-06-27T08:15:31Z</time>
      </trkpt>
      <trkpt lat="43.53077" lon="6.77925">
        <ele>120.503929</ele>
        <time>2010-06-27T08:15:46Z</time>
      </trkpt>
      <trkpt lat="43.53058" lon="6.77932">
        <ele>123.826439</ele>
        <time>2010-06-27T08:15:52Z</time>
      </trkpt>
      <trkpt lat="43.53051" lon="6.7794">
        <ele>126.160805</ele>
        <time>2010-06-27T08:15:55Z</time>
      </trkpt>
      <trkpt lat="43.53028" lon="6.77942">
        <ele>128.548676</ele>
        <time>2010-06-27T08:16:03Z</time>
      </trkpt>
      <trkpt lat="43.52991" lon="6.77919">
        <ele>125.169556</ele>
        <time>2010-06-27T08:16:17Z</time>
      </trkpt>
      <trkpt lat="43.52897" lon="6.77891">
        <ele>128.957474</ele>
        <time>2010-06-27T08:16:47Z</time>
      </trkpt>
      <trkpt lat="43.52811" lon="6.77874">
        <ele>131.037933</ele>
        <time>2010-06-27T08:17:14Z</time>
      </trkpt>
      <trkpt lat="43.52805" lon="6.77871">
        <ele>131.270233</ele>
        <time>2010-06-27T08:17:16Z</time>
      </trkpt>
      <trkpt lat="43.528" lon="6.77865">
        <ele>131.806213</ele>
        <time>2010-06-27T08:17:19Z</time>
      </trkpt>
      <trkpt lat="43.52803" lon="6.77863">
        <ele>131.826691</ele>
        <time>2010-06-27T08:17:20Z</time>
      </trkpt>
      <trkpt lat="43.52809" lon="6.77859">
        <ele>131.584946</ele>
        <time>2010-06-27T08:17:22Z</time>
      </trkpt>
      <trkpt lat="43.52813" lon="6.77859">
        <ele>131.236649</ele>
        <time>2010-06-27T08:17:24Z</time>
      </trkpt>
      <trkpt lat="43.52824" lon="6.7785">
        <ele>129.961105</ele>
        <time>2010-06-27T08:17:28Z</time>
      </trkpt>
      <trkpt lat="43.52886" lon="6.77816">
        <ele>116.580765</ele>
        <time>2010-06-27T08:17:52Z</time>
      </trkpt>
      <trkpt lat="43.52888" lon="6.77814">
        <ele>116.772865</ele>
        <time>2010-06-27T08:17:53Z</time>
      </trkpt>
      <trkpt lat="43.52927" lon="6.77779">
        <ele>116.708366</ele>
        <time>2010-06-27T08:18:05Z</time>
      </trkpt>
      <trkpt lat="43.52929" lon="6.77771">
        <ele>117.847443</ele>
        <time>2010-06-27T08:18:08Z</time>
      </trkpt>
      <trkpt lat="43.52929" lon="6.77764">
        <ele>118.692047</ele>
        <time>2010-06-27T08:18:10Z</time>
      </trkpt>
      <trkpt lat="43.52929" lon="6.77751">
        <ele>120.362885</ele>
        <time>2010-06-27T08:18:15Z</time>
      </trkpt>
      <trkpt lat="43.52933" lon="6.77717">
        <ele>124.201271</ele>
        <time>2010-06-27T08:18:29Z</time>
      </trkpt>
      <trkpt lat="43.52933" lon="6.77708">
        <ele>125.146843</ele>
        <time>2010-06-27T08:18:33Z</time>
      </trkpt>
      <trkpt lat="43.52933" lon="6.77706">
        <ele>124.931839</ele>
        <time>2010-06-27T08:18:34Z</time>
      </trkpt>
      <trkpt lat="43.52916" lon="6.77698">
        <ele>125.461235</ele>
        <time>2010-06-27T08:18:40Z</time>
      </trkpt>
      <trkpt lat="43.52903" lon="6.777">
        <ele>126.893631</ele>
        <time>2010-06-27T08:18:43Z</time>
      </trkpt>
      <trkpt lat="43.52901" lon="6.77702">
        <ele>127.509911</ele>
        <time>2010-06-27T08:18:44Z</time>
      </trkpt>
      <trkpt lat="43.52882" lon="6.77702">
        <ele>129.375443</ele>
        <time>2010-06-27T08:18:49Z</time>
      </trkpt>
      <trkpt lat="43.5285" lon="6.77685">
        <ele>127.668083</ele>
        <time>2010-06-27T08:18:59Z</time>
      </trkpt>
      <trkpt lat="43.5277" lon="6.77642">
        <ele>125.900673</ele>
        <time>2010-06-27T08:19:28Z</time>
      </trkpt>
      <trkpt lat="43.52753" lon="6.77642">
        <ele>127.449875</ele>
        <time>2010-06-27T08:19:34Z</time>
      </trkpt>
      <trkpt lat="43.52717" lon="6.7764">
        <ele>128.546539</ele>
        <time>2010-06-27T08:19:46Z</time>
      </trkpt>
      <trkpt lat="43.52695" lon="6.7764">
        <ele>129.004684</ele>
        <time>2010-06-27T08:19:55Z</time>
      </trkpt>
      <trkpt lat="43.52691" lon="6.77642">
        <ele>129.592651</ele>
        <time>2010-06-27T08:19:56Z</time>
      </trkpt>
      <trkpt lat="43.52665" lon="6.77648">
        <ele>131.345474</ele>
        <time>2010-06-27T08:20:05Z</time>
      </trkpt>
      <trkpt lat="43.52629" lon="6.77638">
        <ele>130.647141</ele>
        <time>2010-06-27T08:20:17Z</time>
      </trkpt>
      <trkpt lat="43.52599" lon="6.7762">
        <ele>128.641006</ele>
        <time>2010-06-27T08:20:28Z</time>
      </trkpt>
      <trkpt lat="43.52584" lon="6.77608">
        <ele>125.74688</ele>
        <time>2010-06-27T08:20:34Z</time>
      </trkpt>
      <trkpt lat="43.52562" lon="6.7759">
        <ele>122.085121</ele>
        <time>2010-06-27T08:20:40Z</time>
      </trkpt>
      <trkpt lat="43.52554" lon="6.77608">
        <ele>123.468994</ele>
        <time>2010-06-27T08:20:45Z</time>
      </trkpt>
      <trkpt lat="43.52551" lon="6.77612">
        <ele>123.767662</ele>
        <time>2010-06-27T08:20:46Z</time>
      </trkpt>
      <trkpt lat="43.52547" lon="6.77638">
        <ele>127.949852</ele>
        <time>2010-06-27T08:20:52Z</time>
      </trkpt>
      <trkpt lat="43.52534" lon="6.77663">
        <ele>129.789871</ele>
        <time>2010-06-27T08:20:59Z</time>
      </trkpt>
      <trkpt lat="43.52526" lon="6.7768">
        <ele>131.129486</ele>
        <time>2010-06-27T08:21:05Z</time>
      </trkpt>
      <trkpt lat="43.52526" lon="6.7768">
        <ele>131.129486</ele>
        <time>2010-06-27T08:21:07Z</time>
      </trkpt>
      <trkpt lat="43.52526" lon="6.77685">
        <ele>132.043915</ele>
        <time>2010-06-27T08:21:10Z</time>
      </trkpt>
      <trkpt lat="43.52524" lon="6.77687">
        <ele>131.929337</ele>
        <time>2010-06-27T08:21:13Z</time>
      </trkpt>
      <trkpt lat="43.52519" lon="6.77687">
        <ele>130.788116</ele>
        <time>2010-06-27T08:21:23Z</time>
      </trkpt>
      <trkpt lat="43.52517" lon="6.77683">
        <ele>129.278</ele>
        <time>2010-06-27T08:21:29Z</time>
      </trkpt>
      <trkpt lat="43.52466" lon="6.77556">
        <ele>117.171326</ele>
        <time>2010-06-27T08:21:54Z</time>
      </trkpt>
      <trkpt lat="43.52455" lon="6.77552">
        <ele>118.569305</ele>
        <time>2010-06-27T08:21:56Z</time>
      </trkpt>
      <trkpt lat="43.52436" lon="6.77554">
        <ele>123.238548</ele>
        <time>2010-06-27T08:22:02Z</time>
      </trkpt>
      <trkpt lat="43.52433" lon="6.77554">
        <ele>123.705353</ele>
        <time>2010-06-27T08:22:03Z</time>
      </trkpt>
      <trkpt lat="43.52403" lon="6.77558">
        <ele>130.185577</ele>
        <time>2010-06-27T08:22:13Z</time>
      </trkpt>
      <trkpt lat="43.52386" lon="6.77554">
        <ele>132.254929</ele>
        <time>2010-06-27T08:22:19Z</time>
      </trkpt>
      <trkpt lat="43.52373" lon="6.77543">
        <ele>135.066818</ele>
        <time>2010-06-27T08:22:23Z</time>
      </trkpt>
      <trkpt lat="43.52371" lon="6.77541">
        <ele>135.684143</ele>
        <time>2010-06-27T08:22:24Z</time>
      </trkpt>
      <trkpt lat="43.52369" lon="6.7752">
        <ele>134.152603</ele>
        <time>2010-06-27T08:22:29Z</time>
      </trkpt>
      <trkpt lat="43.52369" lon="6.77515">
        <ele>133.649582</ele>
        <time>2010-06-27T08:22:30Z</time>
      </trkpt>
      <trkpt lat="43.52378" lon="6.77494">
        <ele>127.371346</ele>
        <time>2010-06-27T08:22:35Z</time>
      </trkpt>
      <trkpt lat="43.5238" lon="6.7749">
        <ele>125.943451</ele>
        <time>2010-06-27T08:22:36Z</time>
      </trkpt>
      <trkpt lat="43.52382" lon="6.77472">
        <ele>123.73542</ele>
        <time>2010-06-27T08:22:39Z</time>
      </trkpt>
      <trkpt lat="43.5238" lon="6.77459">
        <ele>124.204796</ele>
        <time>2010-06-27T08:22:42Z</time>
      </trkpt>
      <trkpt lat="43.52378" lon="6.77455">
        <ele>124.952484</ele>
        <time>2010-06-27T08:22:43Z</time>
      </trkpt>
      <trkpt lat="43.52371" lon="6.77442">
        <ele>127.154259</ele>
        <time>2010-06-27T08:22:47Z</time>
      </trkpt>
      <trkpt lat="43.5236" lon="6.77429">
        <ele>131.048264</ele>
        <time>2010-06-27T08:22:52Z</time>
      </trkpt>
      <trkpt lat="43.52367" lon="6.77419">
        <ele>127.989227</ele>
        <time>2010-06-27T08:22:55Z</time>
      </trkpt>
      <trkpt lat="43.52369" lon="6.77417">
        <ele>127.240974</ele>
        <time>2010-06-27T08:22:56Z</time>
      </trkpt>
      <trkpt lat="43.52378" lon="6.77404">
        <ele>125.441284</ele>
        <time>2010-06-27T08:23:01Z</time>
      </trkpt>
      <trkpt lat="43.52378" lon="6.77399">
        <ele>125.957405</ele>
        <time>2010-06-27T08:23:02Z</time>
      </trkpt>
      <trkpt lat="43.52384" lon="6.77365">
        <ele>127.774048</ele>
        <time>2010-06-27T08:23:10Z</time>
      </trkpt>
      <trkpt lat="43.52393" lon="6.77339">
        <ele>129.547821</ele>
        <time>2010-06-27T08:23:16Z</time>
      </trkpt>
      <trkpt lat="43.52401" lon="6.77339">
        <ele>126.698059</ele>
        <time>2010-06-27T08:23:18Z</time>
      </trkpt>
      <trkpt lat="43.52408" lon="6.77335">
        <ele>125.403008</ele>
        <time>2010-06-27T08:23:20Z</time>
      </trkpt>
      <trkpt lat="43.52421" lon="6.77326">
        <ele>122.683594</ele>
        <time>2010-06-27T08:23:24Z</time>
      </trkpt>
      <trkpt lat="43.52423" lon="6.77324">
        <ele>122.34771</ele>
        <time>2010-06-27T08:23:25Z</time>
      </trkpt>
      <trkpt lat="43.52431" lon="6.77309">
        <ele>122.107857</ele>
        <time>2010-06-27T08:23:29Z</time>
      </trkpt>
      <trkpt lat="43.52431" lon="6.77303">
        <ele>123.282356</ele>
        <time>2010-06-27T08:23:31Z</time>
      </trkpt>
      <trkpt lat="43.52427" lon="6.77286">
        <ele>126.888832</ele>
        <time>2010-06-27T08:23:35Z</time>
      </trkpt>
      <trkpt lat="43.52425" lon="6.77275">
        <ele>128.829788</ele>
        <time>2010-06-27T08:23:38Z</time>
      </trkpt>
      <trkpt lat="43.52427" lon="6.7726">
        <ele>129.483841</ele>
        <time>2010-06-27T08:23:42Z</time>
      </trkpt>
      <trkpt lat="43.52442" lon="6.77245">
        <ele>124.337524</ele>
        <time>2010-06-27T08:23:47Z</time>
      </trkpt>
      <trkpt lat="43.52442" lon="6.7723">
        <ele>126.051903</ele>
        <time>2010-06-27T08:23:51Z</time>
      </trkpt>
      <trkpt lat="43.52438" lon="6.77223">
        <ele>128.920639</ele>
        <time>2010-06-27T08:23:53Z</time>
      </trkpt>
      <trkpt lat="43.5244" lon="6.77208">
        <ele>130.154236</ele>
        <time>2010-06-27T08:23:57Z</time>
      </trkpt>
      <trkpt lat="43.5244" lon="6.77204">
        <ele>130.777954</ele>
        <time>2010-06-27T08:23:58Z</time>
      </trkpt>
      <trkpt lat="43.52448" lon="6.772">
        <ele>128.295929</ele>
        <time>2010-06-27T08:24:00Z</time>
      </trkpt>
      <trkpt lat="43.52461" lon="6.77187">
        <ele>126.219254</ele>
        <time>2010-06-27T08:24:04Z</time>
      </trkpt>
      <trkpt lat="43.52472" lon="6.77181">
        <ele>123.980698</ele>
        <time>2010-06-27T08:24:07Z</time>
      </trkpt>
      <trkpt lat="43.52479" lon="6.77181">
        <ele>122.045807</ele>
        <time>2010-06-27T08:24:09Z</time>
      </trkpt>
      <trkpt lat="43.52504" lon="6.77155">
        <ele>114.619164</ele>
        <time>2010-06-27T08:24:18Z</time>
      </trkpt>
      <trkpt lat="43.52494" lon="6.77123">
        <ele>119.83609</ele>
        <time>2010-06-27T08:24:26Z</time>
      </trkpt>
      <trkpt lat="43.52491" lon="6.77118">
        <ele>121.076591</ele>
        <time>2010-06-27T08:24:27Z</time>
      </trkpt>
      <trkpt lat="43.5247" lon="6.77088">
        <ele>121.586983</ele>
        <time>2010-06-27T08:24:37Z</time>
      </trkpt>
      <trkpt lat="43.5247" lon="6.7708">
        <ele>119.559708</ele>
        <time>2010-06-27T08:24:39Z</time>
      </trkpt>
      <trkpt lat="43.52463" lon="6.7706">
        <ele>117.405067</ele>
        <time>2010-06-27T08:24:43Z</time>
      </trkpt>
      <trkpt lat="43.52448" lon="6.77043">
        <ele>117.799423</ele>
        <time>2010-06-27T08:24:49Z</time>
      </trkpt>
      <trkpt lat="43.52433" lon="6.77041">
        <ele>118.692276</ele>
        <time>2010-06-27T08:24:54Z</time>
      </trkpt>
      <trkpt lat="43.52403" lon="6.77045">
        <ele>123.584999</ele>
        <time>2010-06-27T08:25:04Z</time>
      </trkpt>
      <trkpt lat="43.52384" lon="6.77039">
        <ele>123.357178</ele>
        <time>2010-06-27T08:25:10Z</time>
      </trkpt>
      <trkpt lat="43.52363" lon="6.77026">
        <ele>120.655991</ele>
        <time>2010-06-27T08:25:17Z</time>
      </trkpt>
      <trkpt lat="43.52322" lon="6.77032">
        <ele>122.152313</ele>
        <time>2010-06-27T08:25:29Z</time>
      </trkpt>
      <trkpt lat="43.52238" lon="6.77067">
        <ele>123.70108</ele>
        <time>2010-06-27T08:25:53Z</time>
      </trkpt>
      <trkpt lat="43.5223" lon="6.77078">
        <ele>125.560463</ele>
        <time>2010-06-27T08:25:56Z</time>
      </trkpt>
      <trkpt lat="43.52219" lon="6.77093">
        <ele>128.135834</ele>
        <time>2010-06-27T08:26:00Z</time>
      </trkpt>
      <trkpt lat="43.52217" lon="6.77095">
        <ele>128.400909</ele>
        <time>2010-06-27T08:26:01Z</time>
      </trkpt>
      <trkpt lat="43.52206" lon="6.77095">
        <ele>126.73214</ele>
        <time>2010-06-27T08:26:04Z</time>
      </trkpt>
      <trkpt lat="43.52202" lon="6.77093">
        <ele>125.502304</ele>
        <time>2010-06-27T08:26:05Z</time>
      </trkpt>
      <trkpt lat="43.52191" lon="6.77097">
        <ele>124.998665</ele>
        <time>2010-06-27T08:26:08Z</time>
      </trkpt>
      <trkpt lat="43.52182" lon="6.77101">
        <ele>124.947166</ele>
        <time>2010-06-27T08:26:11Z</time>
      </trkpt>
      <trkpt lat="43.52165" lon="6.7712">
        <ele>128.683517</ele>
        <time>2010-06-27T08:26:20Z</time>
      </trkpt>
      <trkpt lat="43.52163" lon="6.77118">
        <ele>127.846756</ele>
        <time>2010-06-27T08:26:21Z</time>
      </trkpt>
      <trkpt lat="43.52154" lon="6.77118">
        <ele>127.002678</ele>
        <time>2010-06-27T08:26:24Z</time>
      </trkpt>
      <trkpt lat="43.52142" lon="6.77133">
        <ele>129.989502</ele>
        <time>2010-06-27T08:26:29Z</time>
      </trkpt>
      <trkpt lat="43.52135" lon="6.77144">
        <ele>132.337173</ele>
        <time>2010-06-27T08:26:32Z</time>
      </trkpt>
      <trkpt lat="43.52127" lon="6.7715">
        <ele>133.362396</ele>
        <time>2010-06-27T08:26:36Z</time>
      </trkpt>
      <trkpt lat="43.52118" lon="6.77155">
        <ele>133.832764</ele>
        <time>2010-06-27T08:26:40Z</time>
      </trkpt>
      <trkpt lat="43.52101" lon="6.77153">
        <ele>132.087097</ele>
        <time>2010-06-27T08:26:45Z</time>
      </trkpt>
      <trkpt lat="43.52097" lon="6.77155">
        <ele>132.28038</ele>
        <time>2010-06-27T08:26:46Z</time>
      </trkpt>
      <trkpt lat="43.52077" lon="6.7714">
        <ele>128.541214</ele>
        <time>2010-06-27T08:26:53Z</time>
      </trkpt>
      <trkpt lat="43.52069" lon="6.77142">
        <ele>129.335999</ele>
        <time>2010-06-27T08:26:56Z</time>
      </trkpt>
      <trkpt lat="43.52067" lon="6.77146">
        <ele>130.263702</ele>
        <time>2010-06-27T08:26:57Z</time>
      </trkpt>
      <trkpt lat="43.52051" lon="6.77142">
        <ele>130.029556</ele>
        <time>2010-06-27T08:27:02Z</time>
      </trkpt>
      <trkpt lat="43.52045" lon="6.77131">
        <ele>128.352768</ele>
        <time>2010-06-27T08:27:05Z</time>
      </trkpt>
      <trkpt lat="43.52013" lon="6.77056">
        <ele>121.254326</ele>
        <time>2010-06-27T08:27:22Z</time>
      </trkpt>
      <trkpt lat="43.52" lon="6.77058">
        <ele>123.725967</ele>
        <time>2010-06-27T08:27:26Z</time>
      </trkpt>
      <trkpt lat="43.51989" lon="6.77063">
        <ele>124.868301</ele>
        <time>2010-06-27T08:27:29Z</time>
      </trkpt>
      <trkpt lat="43.51981" lon="6.77067">
        <ele>125.741035</ele>
        <time>2010-06-27T08:27:32Z</time>
      </trkpt>
      <trkpt lat="43.51976" lon="6.77069">
        <ele>126.166168</ele>
        <time>2010-06-27T08:27:34Z</time>
      </trkpt>
      <trkpt lat="43.51968" lon="6.77058">
        <ele>125.733543</ele>
        <time>2010-06-27T08:27:41Z</time>
      </trkpt>
      <trkpt lat="43.51966" lon="6.77052">
        <ele>125.324692</ele>
        <time>2010-06-27T08:27:44Z</time>
      </trkpt>
      <trkpt lat="43.51959" lon="6.77045">
        <ele>125.193909</ele>
        <time>2010-06-27T08:27:48Z</time>
      </trkpt>
      <trkpt lat="43.51951" lon="6.77039">
        <ele>124.583351</ele>
        <time>2010-06-27T08:27:53Z</time>
      </trkpt>
      <trkpt lat="43.51942" lon="6.77045">
        <ele>124.470024</ele>
        <time>2010-06-27T08:27:57Z</time>
      </trkpt>
      <trkpt lat="43.51927" lon="6.77058">
        <ele>124.877396</ele>
        <time>2010-06-27T08:28:03Z</time>
      </trkpt>
      <trkpt lat="43.51871" lon="6.77093">
        <ele>131.480804</ele>
        <time>2010-06-27T08:28:23Z</time>
      </trkpt>
      <trkpt lat="43.51865" lon="6.77071">
        <ele>129.118561</ele>
        <time>2010-06-27T08:28:31Z</time>
      </trkpt>
      <trkpt lat="43.51867" lon="6.77063">
        <ele>128.394623</ele>
        <time>2010-06-27T08:28:33Z</time>
      </trkpt>
      <trkpt lat="43.51882" lon="6.76968">
        <ele>122.363747</ele>
        <time>2010-06-27T08:28:53Z</time>
      </trkpt>
      <trkpt lat="43.51886" lon="6.76863">
        <ele>118.944107</ele>
        <time>2010-06-27T08:29:14Z</time>
      </trkpt>
      <trkpt lat="43.51876" lon="6.76818">
        <ele>120.554222</ele>
        <time>2010-06-27T08:29:23Z</time>
      </trkpt>
      <trkpt lat="43.51854" lon="6.76762">
        <ele>122.170654</ele>
        <time>2010-06-27T08:29:35Z</time>
      </trkpt>
      <trkpt lat="43.51835" lon="6.76681">
        <ele>116.867813</ele>
        <time>2010-06-27T08:29:50Z</time>
      </trkpt>
      <trkpt lat="43.51833" lon="6.76674">
        <ele>116.542641</ele>
        <time>2010-06-27T08:29:54Z</time>
      </trkpt>
      <trkpt lat="43.51833" lon="6.76674">
        <ele>116.542641</ele>
        <time>2010-06-27T08:30:00Z</time>
      </trkpt>
      <trkpt lat="43.5183" lon="6.7667">
        <ele>116.569778</ele>
        <time>2010-06-27T08:30:03Z</time>
      </trkpt>
      <trkpt lat="43.5183" lon="6.7667">
        <ele>116.569778</ele>
        <time>2010-06-27T08:30:04Z</time>
      </trkpt>
      <trkpt lat="43.51809" lon="6.76629">
        <ele>116.522171</ele>
        <time>2010-06-27T08:30:17Z</time>
      </trkpt>
      <trkpt lat="43.51794" lon="6.76599">
        <ele>114.904449</ele>
        <time>2010-06-27T08:30:28Z</time>
      </trkpt>
      <trkpt lat="43.51783" lon="6.76586">
        <ele>115.412643</ele>
        <time>2010-06-27T08:30:34Z</time>
      </trkpt>
      <trkpt lat="43.51768" lon="6.76575">
        <ele>117.591324</ele>
        <time>2010-06-27T08:30:40Z</time>
      </trkpt>
      <trkpt lat="43.51751" lon="6.76571">
        <ele>121.898727</ele>
        <time>2010-06-27T08:30:46Z</time>
      </trkpt>
      <trkpt lat="43.51745" lon="6.76558">
        <ele>121.391891</ele>
        <time>2010-06-27T08:30:49Z</time>
      </trkpt>
      <trkpt lat="43.51736" lon="6.7655">
        <ele>122.874207</ele>
        <time>2010-06-27T08:30:52Z</time>
      </trkpt>
      <trkpt lat="43.51734" lon="6.76548">
        <ele>123.260674</ele>
        <time>2010-06-27T08:30:53Z</time>
      </trkpt>
      <trkpt lat="43.51727" lon="6.76539">
        <ele>124.240715</ele>
        <time>2010-06-27T08:30:56Z</time>
      </trkpt>
      <trkpt lat="43.5173" lon="6.76535">
        <ele>123.170105</ele>
        <time>2010-06-27T08:30:57Z</time>
      </trkpt>
      <trkpt lat="43.51738" lon="6.7652">
        <ele>118.992737</ele>
        <time>2010-06-27T08:31:01Z</time>
      </trkpt>
      <trkpt lat="43.5174" lon="6.76513">
        <ele>117.627792</ele>
        <time>2010-06-27T08:31:03Z</time>
      </trkpt>
      <trkpt lat="43.51725" lon="6.76487">
        <ele>120.425316</ele>
        <time>2010-06-27T08:31:10Z</time>
      </trkpt>
      <trkpt lat="43.51717" lon="6.76483">
        <ele>123.075943</ele>
        <time>2010-06-27T08:31:12Z</time>
      </trkpt>
      <trkpt lat="43.51717" lon="6.76466">
        <ele>122.319199</ele>
        <time>2010-06-27T08:31:16Z</time>
      </trkpt>
      <trkpt lat="43.51721" lon="6.76457">
        <ele>120.391693</ele>
        <time>2010-06-27T08:31:18Z</time>
      </trkpt>
      <trkpt lat="43.51725" lon="6.76449">
        <ele>118.388481</ele>
        <time>2010-06-27T08:31:20Z</time>
      </trkpt>
      <trkpt lat="43.51727" lon="6.76438">
        <ele>116.909348</ele>
        <time>2010-06-27T08:31:22Z</time>
      </trkpt>
      <trkpt lat="43.51725" lon="6.76427">
        <ele>116.63311</ele>
        <time>2010-06-27T08:31:24Z</time>
      </trkpt>
      <trkpt lat="43.51719" lon="6.76399">
        <ele>116.038734</ele>
        <time>2010-06-27T08:31:29Z</time>
      </trkpt>
      <trkpt lat="43.51691" lon="6.7635">
        <ele>114.974434</ele>
        <time>2010-06-27T08:31:40Z</time>
      </trkpt>
      <trkpt lat="43.51672" lon="6.76331">
        <ele>115.112549</ele>
        <time>2010-06-27T08:31:46Z</time>
      </trkpt>
      <trkpt lat="43.51655" lon="6.76331">
        <ele>119.073952</ele>
        <time>2010-06-27T08:31:50Z</time>
      </trkpt>
      <trkpt lat="43.51646" lon="6.76324">
        <ele>119.364601</ele>
        <time>2010-06-27T08:31:53Z</time>
      </trkpt>
      <trkpt lat="43.51616" lon="6.76288">
        <ele>117.567604</ele>
        <time>2010-06-27T08:32:04Z</time>
      </trkpt>
      <trkpt lat="43.51594" lon="6.76271">
        <ele>120.99852</ele>
        <time>2010-06-27T08:32:11Z</time>
      </trkpt>
      <trkpt lat="43.51588" lon="6.76249">
        <ele>119.694885</ele>
        <time>2010-06-27T08:32:16Z</time>
      </trkpt>
      <trkpt lat="43.51586" lon="6.76247">
        <ele>120.177773</ele>
        <time>2010-06-27T08:32:17Z</time>
      </trkpt>
      <trkpt lat="43.51575" lon="6.76241">
        <ele>122.623436</ele>
        <time>2010-06-27T08:32:20Z</time>
      </trkpt>
      <trkpt lat="43.51569" lon="6.76239">
        <ele>124.203911</ele>
        <time>2010-06-27T08:32:22Z</time>
      </trkpt>
      <trkpt lat="43.5156" lon="6.76215">
        <ele>122.803909</ele>
        <time>2010-06-27T08:32:27Z</time>
      </trkpt>
      <trkpt lat="43.5156" lon="6.76206">
        <ele>121.346306</ele>
        <time>2010-06-27T08:32:29Z</time>
      </trkpt>
      <trkpt lat="43.51524" lon="6.76116">
        <ele>116.526894</ele>
        <time>2010-06-27T08:32:47Z</time>
      </trkpt>
      <trkpt lat="43.51506" lon="6.76108">
        <ele>120.547089</ele>
        <time>2010-06-27T08:32:51Z</time>
      </trkpt>
      <trkpt lat="43.51496" lon="6.76084">
        <ele>118.76223</ele>
        <time>2010-06-27T08:32:57Z</time>
      </trkpt>
      <trkpt lat="43.51496" lon="6.76082">
        <ele>118.275017</ele>
        <time>2010-06-27T08:32:58Z</time>
      </trkpt>
      <trkpt lat="43.51489" lon="6.76071">
        <ele>117.77977</ele>
        <time>2010-06-27T08:33:03Z</time>
      </trkpt>
      <trkpt lat="43.51489" lon="6.76071">
        <ele>117.77977</ele>
        <time>2010-06-27T08:33:05Z</time>
      </trkpt>
      <trkpt lat="43.51487" lon="6.76071">
        <ele>118.421951</ele>
        <time>2010-06-27T08:33:40Z</time>
      </trkpt>
      <trkpt lat="43.51481" lon="6.76063">
        <ele>118.594444</ele>
        <time>2010-06-27T08:33:43Z</time>
      </trkpt>
      <trkpt lat="43.51466" lon="6.76048">
        <ele>120.623718</ele>
        <time>2010-06-27T08:33:48Z</time>
      </trkpt>
      <trkpt lat="43.51459" lon="6.76045">
        <ele>122.435608</ele>
        <time>2010-06-27T08:33:50Z</time>
      </trkpt>
      <trkpt lat="43.51446" lon="6.76056">
        <ele>126.300713</ele>
        <time>2010-06-27T08:33:54Z</time>
      </trkpt>
      <trkpt lat="43.51444" lon="6.7606">
        <ele>127.268654</ele>
        <time>2010-06-27T08:33:55Z</time>
      </trkpt>
      <trkpt lat="43.51421" lon="6.7606">
        <ele>129.691391</ele>
        <time>2010-06-27T08:34:01Z</time>
      </trkpt>
      <trkpt lat="43.51412" lon="6.7606">
        <ele>130.572372</ele>
        <time>2010-06-27T08:34:03Z</time>
      </trkpt>
      <trkpt lat="43.51399" lon="6.76052">
        <ele>130.398468</ele>
        <time>2010-06-27T08:34:06Z</time>
      </trkpt>
      <trkpt lat="43.51391" lon="6.76043">
        <ele>129.784042</ele>
        <time>2010-06-27T08:34:09Z</time>
      </trkpt>
      <trkpt lat="43.51384" lon="6.76037">
        <ele>129.076782</ele>
        <time>2010-06-27T08:34:11Z</time>
      </trkpt>
      <trkpt lat="43.51343" lon="6.7594">
        <ele>114.740143</ele>
        <time>2010-06-27T08:34:30Z</time>
      </trkpt>
      <trkpt lat="43.51333" lon="6.75923">
        <ele>113.297646</ele>
        <time>2010-06-27T08:34:34Z</time>
      </trkpt>
      <trkpt lat="43.51318" lon="6.75902">
        <ele>107.689545</ele>
        <time>2010-06-27T08:34:40Z</time>
      </trkpt>
      <trkpt lat="43.51311" lon="6.75904">
        <ele>109.225121</ele>
        <time>2010-06-27T08:34:45Z</time>
      </trkpt>
      <trkpt lat="43.51309" lon="6.75906">
        <ele>110.393547</ele>
        <time>2010-06-27T08:34:47Z</time>
      </trkpt>
      <trkpt lat="43.51307" lon="6.75917">
        <ele>114.757813</ele>
        <time>2010-06-27T08:36:55Z</time>
      </trkpt>
      <trkpt lat="43.51307" lon="6.75919">
        <ele>115.300797</ele>
        <time>2010-06-27T08:37:35Z</time>
      </trkpt>
      <trkpt lat="43.51307" lon="6.75921">
        <ele>115.844193</ele>
        <time>2010-06-27T08:38:23Z</time>
      </trkpt>
      <trkpt lat="43.51307" lon="6.75919">
        <ele>115.300797</ele>
        <time>2010-06-27T08:38:29Z</time>
      </trkpt>
      <trkpt lat="43.51303" lon="6.75917">
        <ele>115.014793</ele>
        <time>2010-06-27T08:38:34Z</time>
      </trkpt>
      <trkpt lat="43.51298" lon="6.75917">
        <ele>115.2687</ele>
        <time>2010-06-27T08:38:37Z</time>
      </trkpt>
      <trkpt lat="43.5129" lon="6.75921">
        <ele>116.774529</ele>
        <time>2010-06-27T08:38:40Z</time>
      </trkpt>
      <trkpt lat="43.51285" lon="6.75927">
        <ele>118.483658</ele>
        <time>2010-06-27T08:38:42Z</time>
      </trkpt>
      <trkpt lat="43.51281" lon="6.75936">
        <ele>120.620888</ele>
        <time>2010-06-27T08:38:45Z</time>
      </trkpt>
      <trkpt lat="43.51277" lon="6.75947">
        <ele>122.730232</ele>
        <time>2010-06-27T08:38:48Z</time>
      </trkpt>
      <trkpt lat="43.51268" lon="6.75987">
        <ele>129.215027</ele>
        <time>2010-06-27T08:38:58Z</time>
      </trkpt>
      <trkpt lat="43.51247" lon="6.75975">
        <ele>123.864304</ele>
        <time>2010-06-27T08:39:06Z</time>
      </trkpt>
      <trkpt lat="43.51213" lon="6.75957">
        <ele>120.459808</ele>
        <time>2010-06-27T08:39:16Z</time>
      </trkpt>
      <trkpt lat="43.5117" lon="6.75908">
        <ele>119.847626</ele>
        <time>2010-06-27T08:39:33Z</time>
      </trkpt>
      <trkpt lat="43.51163" lon="6.759">
        <ele>119.435005</ele>
        <time>2010-06-27T08:39:36Z</time>
      </trkpt>
      <trkpt lat="43.51157" lon="6.75895">
        <ele>119.065514</ele>
        <time>2010-06-27T08:39:39Z</time>
      </trkpt>
      <trkpt lat="43.5115" lon="6.75893">
        <ele>119.310837</ele>
        <time>2010-06-27T08:39:43Z</time>
      </trkpt>
      <trkpt lat="43.51144" lon="6.75893">
        <ele>119.512161</ele>
        <time>2010-06-27T08:39:46Z</time>
      </trkpt>
      <trkpt lat="43.51129" lon="6.75895">
        <ele>118.742569</ele>
        <time>2010-06-27T08:39:50Z</time>
      </trkpt>
      <trkpt lat="43.5112" lon="6.75897">
        <ele>118.673241</ele>
        <time>2010-06-27T08:39:52Z</time>
      </trkpt>
      <trkpt lat="43.51107" lon="6.75925">
        <ele>120.322563</ele>
        <time>2010-06-27T08:40:01Z</time>
      </trkpt>
      <trkpt lat="43.51105" lon="6.75932">
        <ele>120.767204</ele>
        <time>2010-06-27T08:40:04Z</time>
      </trkpt>
      <trkpt lat="43.51101" lon="6.75947">
        <ele>121.922783</ele>
        <time>2010-06-27T08:40:10Z</time>
      </trkpt>
      <trkpt lat="43.5109" lon="6.7596">
        <ele>122.425789</ele>
        <time>2010-06-27T08:40:17Z</time>
      </trkpt>
      <trkpt lat="43.51077" lon="6.75975">
        <ele>120.313812</ele>
        <time>2010-06-27T08:40:28Z</time>
      </trkpt>
      <trkpt lat="43.51064" lon="6.75977">
        <ele>119.999092</ele>
        <time>2010-06-27T08:40:35Z</time>
      </trkpt>
      <trkpt lat="43.51058" lon="6.75977">
        <ele>119.969955</ele>
        <time>2010-06-27T08:40:38Z</time>
      </trkpt>
      <trkpt lat="43.51052" lon="6.75979">
        <ele>119.769363</ele>
        <time>2010-06-27T08:40:40Z</time>
      </trkpt>
      <trkpt lat="43.51037" lon="6.75987">
        <ele>118.683052</ele>
        <time>2010-06-27T08:40:47Z</time>
      </trkpt>
      <trkpt lat="43.51015" lon="6.75994">
        <ele>117.605698</ele>
        <time>2010-06-27T08:40:55Z</time>
      </trkpt>
      <trkpt lat="43.50998" lon="6.75987">
        <ele>116.405121</ele>
        <time>2010-06-27T08:41:00Z</time>
      </trkpt>
      <trkpt lat="43.50985" lon="6.75981">
        <ele>115.198059</ele>
        <time>2010-06-27T08:41:05Z</time>
      </trkpt>
      <trkpt lat="43.50974" lon="6.7597">
        <ele>114.362358</ele>
        <time>2010-06-27T08:41:10Z</time>
      </trkpt>
      <trkpt lat="43.50972" lon="6.7597">
        <ele>114.150482</ele>
        <time>2010-06-27T08:41:11Z</time>
      </trkpt>
      <trkpt lat="43.50966" lon="6.75972">
        <ele>113.454262</ele>
        <time>2010-06-27T08:41:13Z</time>
      </trkpt>
      <trkpt lat="43.50961" lon="6.75972">
        <ele>112.897339</ele>
        <time>2010-06-27T08:41:14Z</time>
      </trkpt>
      <trkpt lat="43.50953" lon="6.75972">
        <ele>111.45755</ele>
        <time>2010-06-27T08:41:16Z</time>
      </trkpt>
      <trkpt lat="43.5094" lon="6.75966">
        <ele>109.744209</ele>
        <time>2010-06-27T08:41:19Z</time>
      </trkpt>
      <trkpt lat="43.50929" lon="6.75962">
        <ele>108.443542</ele>
        <time>2010-06-27T08:41:21Z</time>
      </trkpt>
      <trkpt lat="43.50925" lon="6.7596">
        <ele>108.016235</ele>
        <time>2010-06-27T08:41:22Z</time>
      </trkpt>
      <trkpt lat="43.50919" lon="6.7596">
        <ele>107.024261</ele>
        <time>2010-06-27T08:41:25Z</time>
      </trkpt>
      <trkpt lat="43.50916" lon="6.7596">
        <ele>106.613022</ele>
        <time>2010-06-27T08:41:26Z</time>
      </trkpt>
      <trkpt lat="43.50916" lon="6.7596">
        <ele>106.613022</ele>
        <time>2010-06-27T08:41:34Z</time>
      </trkpt>
      <trkpt lat="43.50908" lon="6.75962">
        <ele>104.607124</ele>
        <time>2010-06-27T08:41:40Z</time>
      </trkpt>
      <trkpt lat="43.50891" lon="6.75957">
        <ele>101.956139</ele>
        <time>2010-06-27T08:41:46Z</time>
      </trkpt>
      <trkpt lat="43.50888" lon="6.75955">
        <ele>102.003654</ele>
        <time>2010-06-27T08:41:48Z</time>
      </trkpt>
      <trkpt lat="43.50878" lon="6.75945">
        <ele>102.67028</ele>
        <time>2010-06-27T08:41:54Z</time>
      </trkpt>
      <trkpt lat="43.50871" lon="6.75938">
        <ele>101.164879</ele>
        <time>2010-06-27T08:41:58Z</time>
      </trkpt>
      <trkpt lat="43.50869" lon="6.75936">
        <ele>100.024559</ele>
        <time>2010-06-27T08:41:59Z</time>
      </trkpt>
      <trkpt lat="43.50856" lon="6.75927">
        <ele>95.121124</ele>
        <time>2010-06-27T08:42:04Z</time>
      </trkpt>
      <trkpt lat="43.5085" lon="6.75923">
        <ele>92.993912</ele>
        <time>2010-06-27T08:42:06Z</time>
      </trkpt>
      <trkpt lat="43.50837" lon="6.75917">
        <ele>89.771873</ele>
        <time>2010-06-27T08:42:11Z</time>
      </trkpt>
      <trkpt lat="43.50833" lon="6.75915">
        <ele>88.834846</ele>
        <time>2010-06-27T08:42:13Z</time>
      </trkpt>
      <trkpt lat="43.50824" lon="6.75912">
        <ele>87.427704</ele>
        <time>2010-06-27T08:42:17Z</time>
      </trkpt>
      <trkpt lat="43.50822" lon="6.75912">
        <ele>87.153786</ele>
        <time>2010-06-27T08:42:18Z</time>
      </trkpt>
      <trkpt lat="43.50813" lon="6.7591">
        <ele>85.864922</ele>
        <time>2010-06-27T08:42:21Z</time>
      </trkpt>
      <trkpt lat="43.50809" lon="6.7591">
        <ele>85.322868</ele>
        <time>2010-06-27T08:42:22Z</time>
      </trkpt>
      <trkpt lat="43.50794" lon="6.75906">
        <ele>83.365082</ele>
        <time>2010-06-27T08:42:26Z</time>
      </trkpt>
      <trkpt lat="43.50783" lon="6.75878">
        <ele>83.600601</ele>
        <time>2010-06-27T08:42:34Z</time>
      </trkpt>
      <trkpt lat="43.50788" lon="6.75874">
        <ele>83.95266</ele>
        <time>2010-06-27T08:42:40Z</time>
      </trkpt>
      <trkpt lat="43.50788" lon="6.75874">
        <ele>83.95266</ele>
        <time>2010-06-27T08:42:52Z</time>
      </trkpt>
      <trkpt lat="43.5079" lon="6.75874">
        <ele>83.919518</ele>
        <time>2010-06-27T08:42:56Z</time>
      </trkpt>
      <trkpt lat="43.50788" lon="6.75874">
        <ele>83.95266</ele>
        <time>2010-06-27T08:43:20Z</time>
      </trkpt>
      <trkpt lat="43.50788" lon="6.75874">
        <ele>83.95266</ele>
        <time>2010-06-27T08:44:23Z</time>
      </trkpt>
      <trkpt lat="43.50785" lon="6.75874">
        <ele>83.902344</ele>
        <time>2010-06-27T08:44:26Z</time>
      </trkpt>
      <trkpt lat="43.50785" lon="6.75874">
        <ele>83.902344</ele>
        <time>2010-06-27T08:44:28Z</time>
      </trkpt>
      <trkpt lat="43.50785" lon="6.75876">
        <ele>83.791977</ele>
        <time>2010-06-27T08:44:41Z</time>
      </trkpt>
      <trkpt lat="43.50785" lon="6.75876">
        <ele>83.791977</ele>
        <time>2010-06-27T08:45:58Z</time>
      </trkpt>
      <trkpt lat="43.50779" lon="6.75878">
        <ele>83.432327</ele>
        <time>2010-06-27T08:46:01Z</time>
      </trkpt>
      <trkpt lat="43.50777" lon="6.75878">
        <ele>83.345886</ele>
        <time>2010-06-27T08:46:02Z</time>
      </trkpt>
      <trkpt lat="43.50764" lon="6.75876">
        <ele>83.003487</ele>
        <time>2010-06-27T08:46:07Z</time>
      </trkpt>
      <trkpt lat="43.50753" lon="6.75872">
        <ele>83.070023</ele>
        <time>2010-06-27T08:46:10Z</time>
      </trkpt>
      <trkpt lat="43.50749" lon="6.75869">
        <ele>83.099716</ele>
        <time>2010-06-27T08:46:11Z</time>
      </trkpt>
      <trkpt lat="43.50734" lon="6.75865">
        <ele>82.104462</ele>
        <time>2010-06-27T08:46:15Z</time>
      </trkpt>
      <trkpt lat="43.5073" lon="6.75863">
        <ele>81.739296</ele>
        <time>2010-06-27T08:46:16Z</time>
      </trkpt>
      <trkpt lat="43.50717" lon="6.75861">
        <ele>80.870392</ele>
        <time>2010-06-27T08:46:19Z</time>
      </trkpt>
      <trkpt lat="43.50704" lon="6.75859">
        <ele>80.108582</ele>
        <time>2010-06-27T08:46:22Z</time>
      </trkpt>
      <trkpt lat="43.507" lon="6.75859">
        <ele>79.815071</ele>
        <time>2010-06-27T08:46:23Z</time>
      </trkpt>
      <trkpt lat="43.50678" lon="6.75859">
        <ele>77.871353</ele>
        <time>2010-06-27T08:46:28Z</time>
      </trkpt>
      <trkpt lat="43.50633" lon="6.75846">
        <ele>72.408737</ele>
        <time>2010-06-27T08:46:37Z</time>
      </trkpt>
      <trkpt lat="43.50629" lon="6.75844">
        <ele>71.732346</ele>
        <time>2010-06-27T08:46:38Z</time>
      </trkpt>
      <trkpt lat="43.50618" lon="6.75837">
        <ele>70.325813</ele>
        <time>2010-06-27T08:46:40Z</time>
      </trkpt>
      <trkpt lat="43.5059" lon="6.75822">
        <ele>65.419502</ele>
        <time>2010-06-27T08:46:45Z</time>
      </trkpt>
      <trkpt lat="43.50582" lon="6.75816">
        <ele>63.86578</ele>
        <time>2010-06-27T08:46:47Z</time>
      </trkpt>
      <trkpt lat="43.50575" lon="6.75809">
        <ele>62.860821</ele>
        <time>2010-06-27T08:46:49Z</time>
      </trkpt>
      <trkpt lat="43.50571" lon="6.75805">
        <ele>62.143177</ele>
        <time>2010-06-27T08:46:50Z</time>
      </trkpt>
      <trkpt lat="43.5056" lon="6.75799">
        <ele>59.889572</ele>
        <time>2010-06-27T08:46:53Z</time>
      </trkpt>
      <trkpt lat="43.50543" lon="6.75781">
        <ele>55.142715</ele>
        <time>2010-06-27T08:46:58Z</time>
      </trkpt>
      <trkpt lat="43.50539" lon="6.75775">
        <ele>53.475704</ele>
        <time>2010-06-27T08:46:59Z</time>
      </trkpt>
      <trkpt lat="43.50539" lon="6.75747">
        <ele>51.225979</ele>
        <time>2010-06-27T08:47:04Z</time>
      </trkpt>
      <trkpt lat="43.50543" lon="6.75739">
        <ele>51.810833</ele>
        <time>2010-06-27T08:47:06Z</time>
      </trkpt>
      <trkpt lat="43.50547" lon="6.75734">
        <ele>52.773212</ele>
        <time>2010-06-27T08:47:07Z</time>
      </trkpt>
      <trkpt lat="43.50556" lon="6.75724">
        <ele>53.605167</ele>
        <time>2010-06-27T08:47:11Z</time>
      </trkpt>
      <trkpt lat="43.5056" lon="6.75721">
        <ele>54.318409</ele>
        <time>2010-06-27T08:47:12Z</time>
      </trkpt>
      <trkpt lat="43.50569" lon="6.75709">
        <ele>53.536819</ele>
        <time>2010-06-27T08:47:17Z</time>
      </trkpt>
      <trkpt lat="43.50571" lon="6.75706">
        <ele>53.618771</ele>
        <time>2010-06-27T08:47:18Z</time>
      </trkpt>
      <trkpt lat="43.5058" lon="6.75689">
        <ele>51.802673</ele>
        <time>2010-06-27T08:47:22Z</time>
      </trkpt>
      <trkpt lat="43.5059" lon="6.7567">
        <ele>49.867069</ele>
        <time>2010-06-27T08:47:26Z</time>
      </trkpt>
      <trkpt lat="43.50582" lon="6.75644">
        <ele>44.21183</ele>
        <time>2010-06-27T08:47:33Z</time>
      </trkpt>
      <trkpt lat="43.50569" lon="6.75644">
        <ele>42.191658</ele>
        <time>2010-06-27T08:47:36Z</time>
      </trkpt>
      <trkpt lat="43.50564" lon="6.75646">
        <ele>42.038074</ele>
        <time>2010-06-27T08:47:37Z</time>
      </trkpt>
      <trkpt lat="43.50554" lon="6.75657">
        <ele>41.864666</ele>
        <time>2010-06-27T08:47:40Z</time>
      </trkpt>
      <trkpt lat="43.50537" lon="6.75672">
        <ele>40.989147</ele>
        <time>2010-06-27T08:47:45Z</time>
      </trkpt>
      <trkpt lat="43.50511" lon="6.75696">
        <ele>40.997036</ele>
        <time>2010-06-27T08:47:53Z</time>
      </trkpt>
      <trkpt lat="43.50479" lon="6.75739">
        <ele>39.54137</ele>
        <time>2010-06-27T08:48:05Z</time>
      </trkpt>
      <trkpt lat="43.50468" lon="6.75756">
        <ele>40.006691</ele>
        <time>2010-06-27T08:48:10Z</time>
      </trkpt>
      <trkpt lat="43.50438" lon="6.75829">
        <ele>38.802631</ele>
        <time>2010-06-27T08:48:28Z</time>
      </trkpt>
      <trkpt lat="43.50416" lon="6.75812">
        <ele>38.685524</ele>
        <time>2010-06-27T08:48:32Z</time>
      </trkpt>
      <trkpt lat="43.5041" lon="6.75807">
        <ele>38.85178</ele>
        <time>2010-06-27T08:48:33Z</time>
      </trkpt>
      <trkpt lat="43.50401" lon="6.75801">
        <ele>39.120945</ele>
        <time>2010-06-27T08:48:35Z</time>
      </trkpt>
      <trkpt lat="43.50382" lon="6.7579">
        <ele>39.677128</ele>
        <time>2010-06-27T08:48:39Z</time>
      </trkpt>
      <trkpt lat="43.50369" lon="6.75784">
        <ele>39.869392</ele>
        <time>2010-06-27T08:48:44Z</time>
      </trkpt>
      <trkpt lat="43.50367" lon="6.75775">
        <ele>40.191429</ele>
        <time>2010-06-27T08:48:47Z</time>
      </trkpt>
      <trkpt lat="43.50376" lon="6.75777">
        <ele>40.103107</ele>
        <time>2010-06-27T08:48:52Z</time>
      </trkpt>
      <trkpt lat="43.50408" lon="6.75784">
        <ele>39.466942</ele>
        <time>2010-06-27T08:49:04Z</time>
      </trkpt>
      <trkpt lat="43.50425" lon="6.75766">
        <ele>39.723831</ele>
        <time>2010-06-27T08:49:11Z</time>
      </trkpt>
      <trkpt lat="43.50438" lon="6.7573">
        <ele>40.592289</ele>
        <time>2010-06-27T08:49:20Z</time>
      </trkpt>
      <trkpt lat="43.50444" lon="6.75717">
        <ele>40.667904</ele>
        <time>2010-06-27T08:49:24Z</time>
      </trkpt>
      <trkpt lat="43.50477" lon="6.7564">
        <ele>40.711151</ele>
        <time>2010-06-27T08:49:49Z</time>
      </trkpt>
      <trkpt lat="43.50487" lon="6.75616">
        <ele>41.024479</ele>
        <time>2010-06-27T08:49:59Z</time>
      </trkpt>
      <trkpt lat="43.50483" lon="6.75621">
        <ele>41.08477</ele>
        <time>2010-06-27T08:50:06Z</time>
      </trkpt>
      <trkpt lat="43.50483" lon="6.75621">
        <ele>41.08477</ele>
        <time>2010-06-27T08:51:05Z</time>
      </trkpt>
      <trkpt lat="43.50485" lon="6.75616">
        <ele>41.164589</ele>
        <time>2010-06-27T08:51:10Z</time>
      </trkpt>
      <trkpt lat="43.505" lon="6.75582">
        <ele>43.323158</ele>
        <time>2010-06-27T08:51:23Z</time>
      </trkpt>
      <trkpt lat="43.50509" lon="6.75567">
        <ele>43.980862</ele>
        <time>2010-06-27T08:51:29Z</time>
      </trkpt>
      <trkpt lat="43.50522" lon="6.7555">
        <ele>43.456905</ele>
        <time>2010-06-27T08:51:35Z</time>
      </trkpt>
      <trkpt lat="43.50597" lon="6.75498">
        <ele>43.804726</ele>
        <time>2010-06-27T08:51:59Z</time>
      </trkpt>
      <trkpt lat="43.50612" lon="6.75492">
        <ele>44.648415</ele>
        <time>2010-06-27T08:52:05Z</time>
      </trkpt>
      <trkpt lat="43.50616" lon="6.7549">
        <ele>44.972321</ele>
        <time>2010-06-27T08:52:07Z</time>
      </trkpt>
      <trkpt lat="43.50625" lon="6.7549">
        <ele>44.862484</ele>
        <time>2010-06-27T08:52:10Z</time>
      </trkpt>
      <trkpt lat="43.50635" lon="6.75485">
        <ele>46.115852</ele>
        <time>2010-06-27T08:52:15Z</time>
      </trkpt>
      <trkpt lat="43.50644" lon="6.75483">
        <ele>46.607964</ele>
        <time>2010-06-27T08:52:19Z</time>
      </trkpt>
      <trkpt lat="43.5068" lon="6.75481">
        <ele>45.628132</ele>
        <time>2010-06-27T08:52:34Z</time>
      </trkpt>
      <trkpt lat="43.50693" lon="6.75472">
        <ele>47.020927</ele>
        <time>2010-06-27T08:52:40Z</time>
      </trkpt>
      <trkpt lat="43.50717" lon="6.75455">
        <ele>49.005211</ele>
        <time>2010-06-27T08:52:53Z</time>
      </trkpt>
      <trkpt lat="43.50723" lon="6.75447">
        <ele>50.186951</ele>
        <time>2010-06-27T08:52:58Z</time>
      </trkpt>
      <trkpt lat="43.50743" lon="6.75438">
        <ele>49.442146</ele>
        <time>2010-06-27T08:53:09Z</time>
      </trkpt>
      <trkpt lat="43.50747" lon="6.75436">
        <ele>49.389759</ele>
        <time>2010-06-27T08:53:12Z</time>
      </trkpt>
      <trkpt lat="43.50753" lon="6.7543">
        <ele>50.817242</ele>
        <time>2010-06-27T08:53:17Z</time>
      </trkpt>
      <trkpt lat="43.5076" lon="6.75417">
        <ele>54.419495</ele>
        <time>2010-06-27T08:53:23Z</time>
      </trkpt>
      <trkpt lat="43.50766" lon="6.75406">
        <ele>57.371391</ele>
        <time>2010-06-27T08:53:29Z</time>
      </trkpt>
      <trkpt lat="43.50779" lon="6.75391">
        <ele>60.761536</ele>
        <time>2010-06-27T08:53:40Z</time>
      </trkpt>
      <trkpt lat="43.50803" lon="6.7538">
        <ele>60.632011</ele>
        <time>2010-06-27T08:53:53Z</time>
      </trkpt>
      <trkpt lat="43.50822" lon="6.75382">
        <ele>59.272575</ele>
        <time>2010-06-27T08:54:05Z</time>
      </trkpt>
      <trkpt lat="43.50831" lon="6.7538">
        <ele>60.04512</ele>
        <time>2010-06-27T08:54:10Z</time>
      </trkpt>
      <trkpt lat="43.50833" lon="6.7538">
        <ele>60.065315</ele>
        <time>2010-06-27T08:54:11Z</time>
      </trkpt>
      <trkpt lat="43.50841" lon="6.75376">
        <ele>61.946377</ele>
        <time>2010-06-27T08:54:16Z</time>
      </trkpt>
      <trkpt lat="43.5085" lon="6.7537">
        <ele>64.588448</ele>
        <time>2010-06-27T08:54:22Z</time>
      </trkpt>
      <trkpt lat="43.50858" lon="6.75367">
        <ele>66.222496</ele>
        <time>2010-06-27T08:54:28Z</time>
      </trkpt>
      <trkpt lat="43.50869" lon="6.7537">
        <ele>67.055473</ele>
        <time>2010-06-27T08:54:35Z</time>
      </trkpt>
      <trkpt lat="43.50876" lon="6.75372">
        <ele>67.331657</ele>
        <time>2010-06-27T08:54:40Z</time>
      </trkpt>
      <trkpt lat="43.50884" lon="6.75378">
        <ele>66.799042</ele>
        <time>2010-06-27T08:54:46Z</time>
      </trkpt>
      <trkpt lat="43.50893" lon="6.75393">
        <ele>64.881783</ele>
        <time>2010-06-27T08:54:52Z</time>
      </trkpt>
      <trkpt lat="43.50904" lon="6.75408">
        <ele>63.869492</ele>
        <time>2010-06-27T08:54:59Z</time>
      </trkpt>
      <trkpt lat="43.50914" lon="6.75419">
        <ele>63.834393</ele>
        <time>2010-06-27T08:55:05Z</time>
      </trkpt>
      <trkpt lat="43.50931" lon="6.75432">
        <ele>65.237297</ele>
        <time>2010-06-27T08:55:11Z</time>
      </trkpt>
      <trkpt lat="43.50959" lon="6.7546">
        <ele>68.039948</ele>
        <time>2010-06-27T08:55:23Z</time>
      </trkpt>
      <trkpt lat="43.50964" lon="6.7547">
        <ele>68.710434</ele>
        <time>2010-06-27T08:55:28Z</time>
      </trkpt>
      <trkpt lat="43.50966" lon="6.75485">
        <ele>69.062477</ele>
        <time>2010-06-27T08:55:35Z</time>
      </trkpt>
      <trkpt lat="43.50976" lon="6.75539">
        <ele>71.495621</ele>
        <time>2010-06-27T08:55:58Z</time>
      </trkpt>
      <trkpt lat="43.50981" lon="6.75573">
        <ele>73.269829</ele>
        <time>2010-06-27T08:56:14Z</time>
      </trkpt>
      <trkpt lat="43.50981" lon="6.75595">
        <ele>73.008354</ele>
        <time>2010-06-27T08:56:23Z</time>
      </trkpt>
      <trkpt lat="43.50985" lon="6.75606">
        <ele>73.674339</ele>
        <time>2010-06-27T08:56:29Z</time>
      </trkpt>
      <trkpt lat="43.50987" lon="6.75614">
        <ele>73.620979</ele>
        <time>2010-06-27T08:56:34Z</time>
      </trkpt>
      <trkpt lat="43.50998" lon="6.75601">
        <ele>77.260521</ele>
        <time>2010-06-27T08:56:44Z</time>
      </trkpt>
      <trkpt lat="43.50998" lon="6.75597">
        <ele>77.738258</ele>
        <time>2010-06-27T08:56:46Z</time>
      </trkpt>
      <trkpt lat="43.51002" lon="6.75571">
        <ele>80.520752</ele>
        <time>2010-06-27T08:56:59Z</time>
      </trkpt>
      <trkpt lat="43.51004" lon="6.75563">
        <ele>80.689598</ele>
        <time>2010-06-27T08:57:04Z</time>
      </trkpt>
      <trkpt lat="43.51011" lon="6.7555">
        <ele>81.844513</ele>
        <time>2010-06-27T08:57:11Z</time>
      </trkpt>
      <trkpt lat="43.51017" lon="6.75541">
        <ele>83.116051</ele>
        <time>2010-06-27T08:57:17Z</time>
      </trkpt>
      <trkpt lat="43.51019" lon="6.75535">
        <ele>83.208176</ele>
        <time>2010-06-27T08:57:21Z</time>
      </trkpt>
      <trkpt lat="43.51041" lon="6.75509">
        <ele>88.298561</ele>
        <time>2010-06-27T08:57:41Z</time>
      </trkpt>
      <trkpt lat="43.51049" lon="6.75494">
        <ele>90.078102</ele>
        <time>2010-06-27T08:57:52Z</time>
      </trkpt>
      <trkpt lat="43.51058" lon="6.75488">
        <ele>92.395996</ele>
        <time>2010-06-27T08:57:59Z</time>
      </trkpt>
      <trkpt lat="43.51064" lon="6.75481">
        <ele>93.888451</ele>
        <time>2010-06-27T08:58:04Z</time>
      </trkpt>
      <trkpt lat="43.51073" lon="6.75477">
        <ele>96.204697</ele>
        <time>2010-06-27T08:58:11Z</time>
      </trkpt>
      <trkpt lat="43.51082" lon="6.75472">
        <ele>99.009567</ele>
        <time>2010-06-27T08:58:17Z</time>
      </trkpt>
      <trkpt lat="43.51088" lon="6.75468">
        <ele>101.051247</ele>
        <time>2010-06-27T08:58:22Z</time>
      </trkpt>
      <trkpt lat="43.51092" lon="6.75457">
        <ele>102.410507</ele>
        <time>2010-06-27T08:58:28Z</time>
      </trkpt>
      <trkpt lat="43.51092" lon="6.75445">
        <ele>102.773933</ele>
        <time>2010-06-27T08:58:35Z</time>
      </trkpt>
      <trkpt lat="43.5109" lon="6.75436">
        <ele>102.103012</ele>
        <time>2010-06-27T08:58:40Z</time>
      </trkpt>
      <trkpt lat="43.51088" lon="6.7541">
        <ele>101.801193</ele>
        <time>2010-06-27T08:58:53Z</time>
      </trkpt>
      <trkpt lat="43.51088" lon="6.75402">
        <ele>101.994347</ele>
        <time>2010-06-27T08:58:58Z</time>
      </trkpt>
      <trkpt lat="43.51088" lon="6.75389">
        <ele>102.634583</ele>
        <time>2010-06-27T08:59:05Z</time>
      </trkpt>
      <trkpt lat="43.51092" lon="6.75367">
        <ele>105.686905</ele>
        <time>2010-06-27T08:59:17Z</time>
      </trkpt>
      <trkpt lat="43.51094" lon="6.75344">
        <ele>107.894028</ele>
        <time>2010-06-27T08:59:29Z</time>
      </trkpt>
      <trkpt lat="43.51097" lon="6.75335">
        <ele>109.621613</ele>
        <time>2010-06-27T08:59:34Z</time>
      </trkpt>
      <trkpt lat="43.51101" lon="6.75329">
        <ele>112.243057</ele>
        <time>2010-06-27T08:59:40Z</time>
      </trkpt>
      <trkpt lat="43.51105" lon="6.75339">
        <ele>113.228577</ele>
        <time>2010-06-27T08:59:46Z</time>
      </trkpt>
      <trkpt lat="43.51105" lon="6.75342">
        <ele>113.065109</ele>
        <time>2010-06-27T08:59:47Z</time>
      </trkpt>
      <trkpt lat="43.51105" lon="6.75348">
        <ele>112.71093</ele>
        <time>2010-06-27T08:59:50Z</time>
      </trkpt>
      <trkpt lat="43.51105" lon="6.75354">
        <ele>112.355537</ele>
        <time>2010-06-27T08:59:53Z</time>
      </trkpt>
      <trkpt lat="43.51105" lon="6.75363">
        <ele>111.879776</ele>
        <time>2010-06-27T08:59:58Z</time>
      </trkpt>
      <trkpt lat="43.51101" lon="6.75376">
        <ele>109.189529</ele>
        <time>2010-06-27T09:00:04Z</time>
      </trkpt>
      <trkpt lat="43.51107" lon="6.75402">
        <ele>110.67897</ele>
        <time>2010-06-27T09:00:17Z</time>
      </trkpt>
      <trkpt lat="43.51112" lon="6.75412">
        <ele>112.159454</ele>
        <time>2010-06-27T09:00:23Z</time>
      </trkpt>
      <trkpt lat="43.51118" lon="6.75421">
        <ele>114.625267</ele>
        <time>2010-06-27T09:00:29Z</time>
      </trkpt>
      <trkpt lat="43.51129" lon="6.75438">
        <ele>118.40654</ele>
        <time>2010-06-27T09:00:39Z</time>
      </trkpt>
      <trkpt lat="43.51129" lon="6.7544">
        <ele>118.291389</ele>
        <time>2010-06-27T09:00:40Z</time>
      </trkpt>
      <trkpt lat="43.51135" lon="6.75449">
        <ele>120.521225</ele>
        <time>2010-06-27T09:00:47Z</time>
      </trkpt>
      <trkpt lat="43.51142" lon="6.75457">
        <ele>122.67218</ele>
        <time>2010-06-27T09:00:53Z</time>
      </trkpt>
      <trkpt lat="43.51146" lon="6.75464">
        <ele>124.01413</ele>
        <time>2010-06-27T09:00:58Z</time>
      </trkpt>
      <trkpt lat="43.51148" lon="6.75477">
        <ele>124.54277</ele>
        <time>2010-06-27T09:01:04Z</time>
      </trkpt>
      <trkpt lat="43.51146" lon="6.75488">
        <ele>123.711174</ele>
        <time>2010-06-27T09:01:10Z</time>
      </trkpt>
      <trkpt lat="43.51133" lon="6.75507">
        <ele>120.239937</ele>
        <time>2010-06-27T09:01:22Z</time>
      </trkpt>
      <trkpt lat="43.51127" lon="6.75522">
        <ele>119.458572</ele>
        <time>2010-06-27T09:01:28Z</time>
      </trkpt>
      <trkpt lat="43.51129" lon="6.75535">
        <ele>117.902695</ele>
        <time>2010-06-27T09:01:34Z</time>
      </trkpt>
      <trkpt lat="43.51135" lon="6.75548">
        <ele>114.20826</ele>
        <time>2010-06-27T09:01:40Z</time>
      </trkpt>
      <trkpt lat="43.51148" lon="6.75556">
        <ele>112.262009</ele>
        <time>2010-06-27T09:01:47Z</time>
      </trkpt>
      <trkpt lat="43.51148" lon="6.75558">
        <ele>111.33139</ele>
        <time>2010-06-27T09:01:51Z</time>
      </trkpt>
      <trkpt lat="43.51148" lon="6.75558">
        <ele>111.33139</ele>
        <time>2010-06-27T09:02:29Z</time>
      </trkpt>
      <trkpt lat="43.51152" lon="6.75558">
        <ele>111.759613</ele>
        <time>2010-06-27T09:03:54Z</time>
      </trkpt>
      <trkpt lat="43.51163" lon="6.75554">
        <ele>114.589539</ele>
        <time>2010-06-27T09:03:59Z</time>
      </trkpt>
      <trkpt lat="43.51174" lon="6.75548">
        <ele>117.217026</ele>
        <time>2010-06-27T09:04:04Z</time>
      </trkpt>
      <trkpt lat="43.5121" lon="6.75537">
        <ele>119.441498</ele>
        <time>2010-06-27T09:04:22Z</time>
      </trkpt>
      <trkpt lat="43.51219" lon="6.75528">
        <ele>120.130142</ele>
        <time>2010-06-27T09:04:28Z</time>
      </trkpt>
      <trkpt lat="43.51228" lon="6.75511">
        <ele>121.182243</ele>
        <time>2010-06-27T09:04:36Z</time>
      </trkpt>
      <trkpt lat="43.51228" lon="6.75503">
        <ele>122.415154</ele>
        <time>2010-06-27T09:04:40Z</time>
      </trkpt>
      <trkpt lat="43.51228" lon="6.755">
        <ele>122.72541</ele>
        <time>2010-06-27T09:04:41Z</time>
      </trkpt>
      <trkpt lat="43.51228" lon="6.75494">
        <ele>123.661072</ele>
        <time>2010-06-27T09:04:44Z</time>
      </trkpt>
      <trkpt lat="43.51228" lon="6.75494">
        <ele>123.661072</ele>
        <time>2010-06-27T09:04:45Z</time>
      </trkpt>
      <trkpt lat="43.51228" lon="6.75488">
        <ele>124.604042</ele>
        <time>2010-06-27T09:04:48Z</time>
      </trkpt>
      <trkpt lat="43.51225" lon="6.75479">
        <ele>126.446266</ele>
        <time>2010-06-27T09:04:52Z</time>
      </trkpt>
      <trkpt lat="43.51221" lon="6.75464">
        <ele>128.804581</ele>
        <time>2010-06-27T09:04:59Z</time>
      </trkpt>
      <trkpt lat="43.51217" lon="6.75455">
        <ele>130.514359</ele>
        <time>2010-06-27T09:05:04Z</time>
      </trkpt>
      <trkpt lat="43.51213" lon="6.7543">
        <ele>133.396561</ele>
        <time>2010-06-27T09:05:17Z</time>
      </trkpt>
      <trkpt lat="43.51213" lon="6.75419">
        <ele>134.052521</ele>
        <time>2010-06-27T09:05:22Z</time>
      </trkpt>
      <trkpt lat="43.51217" lon="6.75404">
        <ele>133.519684</ele>
        <time>2010-06-27T09:05:29Z</time>
      </trkpt>
      <trkpt lat="43.51225" lon="6.75395">
        <ele>131.05809</ele>
        <time>2010-06-27T09:05:35Z</time>
      </trkpt>
      <trkpt lat="43.51228" lon="6.75387">
        <ele>131.241119</ele>
        <time>2010-06-27T09:05:39Z</time>
      </trkpt>
      <trkpt lat="43.5123" lon="6.75385">
        <ele>130.691742</ele>
        <time>2010-06-27T09:05:40Z</time>
      </trkpt>
      <trkpt lat="43.51236" lon="6.75359">
        <ele>131.607025</ele>
        <time>2010-06-27T09:05:52Z</time>
      </trkpt>
      <trkpt lat="43.51236" lon="6.75344">
        <ele>132.456772</ele>
        <time>2010-06-27T09:05:59Z</time>
      </trkpt>
      <trkpt lat="43.51232" lon="6.75318">
        <ele>133.416306</ele>
        <time>2010-06-27T09:06:11Z</time>
      </trkpt>
      <trkpt lat="43.5123" lon="6.75309">
        <ele>133.976318</ele>
        <time>2010-06-27T09:06:16Z</time>
      </trkpt>
      <trkpt lat="43.51213" lon="6.75288">
        <ele>138.367386</ele>
        <time>2010-06-27T09:06:29Z</time>
      </trkpt>
      <trkpt lat="43.51193" lon="6.75277">
        <ele>140.063568</ele>
        <time>2010-06-27T09:06:40Z</time>
      </trkpt>
      <trkpt lat="43.51189" lon="6.75279">
        <ele>140.514603</ele>
        <time>2010-06-27T09:06:43Z</time>
      </trkpt>
      <trkpt lat="43.51185" lon="6.75279">
        <ele>140.956863</ele>
        <time>2010-06-27T09:06:45Z</time>
      </trkpt>
      <trkpt lat="43.51178" lon="6.75275">
        <ele>141.766174</ele>
        <time>2010-06-27T09:06:48Z</time>
      </trkpt>
      <trkpt lat="43.51176" lon="6.75264">
        <ele>142.474991</ele>
        <time>2010-06-27T09:06:54Z</time>
      </trkpt>
      <trkpt lat="43.51178" lon="6.75256">
        <ele>142.530121</ele>
        <time>2010-06-27T09:06:58Z</time>
      </trkpt>
      <trkpt lat="43.5118" lon="6.75245">
        <ele>142.588135</ele>
        <time>2010-06-27T09:07:05Z</time>
      </trkpt>
      <trkpt lat="43.5118" lon="6.75234">
        <ele>143.011688</ele>
        <time>2010-06-27T09:07:10Z</time>
      </trkpt>
      <trkpt lat="43.51182" lon="6.75221">
        <ele>143.104996</ele>
        <time>2010-06-27T09:07:18Z</time>
      </trkpt>
      <trkpt lat="43.51185" lon="6.75219">
        <ele>142.769165</ele>
        <time>2010-06-27T09:07:20Z</time>
      </trkpt>
      <trkpt lat="43.51185" lon="6.75215">
        <ele>143.128235</ele>
        <time>2010-06-27T09:07:23Z</time>
      </trkpt>
      <trkpt lat="43.51189" lon="6.75206">
        <ele>142.771988</ele>
        <time>2010-06-27T09:07:28Z</time>
      </trkpt>
      <trkpt lat="43.51191" lon="6.75196">
        <ele>143.090759</ele>
        <time>2010-06-27T09:07:34Z</time>
      </trkpt>
      <trkpt lat="43.51191" lon="6.75185">
        <ele>143.955872</ele>
        <time>2010-06-27T09:07:40Z</time>
      </trkpt>
      <trkpt lat="43.51189" lon="6.75172">
        <ele>145.595276</ele>
        <time>2010-06-27T09:07:47Z</time>
      </trkpt>
      <trkpt lat="43.5118" lon="6.75151">
        <ele>148.710098</ele>
        <time>2010-06-27T09:07:58Z</time>
      </trkpt>
      <trkpt lat="43.51172" lon="6.75142">
        <ele>150.603317</ele>
        <time>2010-06-27T09:08:04Z</time>
      </trkpt>
      <trkpt lat="43.51165" lon="6.75133">
        <ele>151.95491</ele>
        <time>2010-06-27T09:08:10Z</time>
      </trkpt>
      <trkpt lat="43.51159" lon="6.75125">
        <ele>153.503723</ele>
        <time>2010-06-27T09:08:17Z</time>
      </trkpt>
      <trkpt lat="43.51155" lon="6.75116">
        <ele>154.705414</ele>
        <time>2010-06-27T09:08:23Z</time>
      </trkpt>
      <trkpt lat="43.5115" lon="6.75108">
        <ele>156.044754</ele>
        <time>2010-06-27T09:08:29Z</time>
      </trkpt>
      <trkpt lat="43.51146" lon="6.75097">
        <ele>157.605621</ele>
        <time>2010-06-27T09:08:35Z</time>
      </trkpt>
      <trkpt lat="43.51142" lon="6.75076">
        <ele>160.068222</ele>
        <time>2010-06-27T09:08:46Z</time>
      </trkpt>
      <trkpt lat="43.51146" lon="6.75063">
        <ele>159.544312</ele>
        <time>2010-06-27T09:08:53Z</time>
      </trkpt>
      <trkpt lat="43.51155" lon="6.75041">
        <ele>158.154388</ele>
        <time>2010-06-27T09:09:05Z</time>
      </trkpt>
      <trkpt lat="43.51157" lon="6.75028">
        <ele>158.246521</ele>
        <time>2010-06-27T09:09:11Z</time>
      </trkpt>
      <trkpt lat="43.51157" lon="6.75018">
        <ele>158.903519</ele>
        <time>2010-06-27T09:09:17Z</time>
      </trkpt>
      <trkpt lat="43.5115" lon="6.74981">
        <ele>163.115601</ele>
        <time>2010-06-27T09:09:35Z</time>
      </trkpt>
      <trkpt lat="43.51146" lon="6.7497">
        <ele>164.607468</ele>
        <time>2010-06-27T09:09:41Z</time>
      </trkpt>
      <trkpt lat="43.5114" lon="6.74962">
        <ele>165.682465</ele>
        <time>2010-06-27T09:09:46Z</time>
      </trkpt>
      <trkpt lat="43.51133" lon="6.74949">
        <ele>166.055634</ele>
        <time>2010-06-27T09:09:52Z</time>
      </trkpt>
      <trkpt lat="43.5112" lon="6.74921">
        <ele>166.955124</ele>
        <time>2010-06-27T09:10:05Z</time>
      </trkpt>
      <trkpt lat="43.51116" lon="6.74912">
        <ele>167.445557</ele>
        <time>2010-06-27T09:10:10Z</time>
      </trkpt>
      <trkpt lat="43.51103" lon="6.74904">
        <ele>170.529572</ele>
        <time>2010-06-27T09:10:18Z</time>
      </trkpt>
      <trkpt lat="43.51097" lon="6.74904">
        <ele>172.646759</ele>
        <time>2010-06-27T09:10:21Z</time>
      </trkpt>
      <trkpt lat="43.51086" lon="6.749">
        <ele>175.431763</ele>
        <time>2010-06-27T09:10:28Z</time>
      </trkpt>
      <trkpt lat="43.51075" lon="6.74895">
        <ele>178.352448</ele>
        <time>2010-06-27T09:10:34Z</time>
      </trkpt>
      <trkpt lat="43.51049" lon="6.74833">
        <ele>183.141953</ele>
        <time>2010-06-27T09:11:07Z</time>
      </trkpt>
      <trkpt lat="43.51045" lon="6.74822">
        <ele>183.814697</ele>
        <time>2010-06-27T09:11:11Z</time>
      </trkpt>
      <trkpt lat="43.51041" lon="6.74809">
        <ele>184.31044</ele>
        <time>2010-06-27T09:11:17Z</time>
      </trkpt>
      <trkpt lat="43.51037" lon="6.74799">
        <ele>184.98317</ele>
        <time>2010-06-27T09:11:22Z</time>
      </trkpt>
      <trkpt lat="43.51019" lon="6.74775">
        <ele>189.022125</ele>
        <time>2010-06-27T09:11:35Z</time>
      </trkpt>
      <trkpt lat="43.51013" lon="6.74764">
        <ele>189.474915</ele>
        <time>2010-06-27T09:11:41Z</time>
      </trkpt>
      <trkpt lat="43.50996" lon="6.74745">
        <ele>191.174484</ele>
        <time>2010-06-27T09:11:52Z</time>
      </trkpt>
      <trkpt lat="43.50974" lon="6.74694">
        <ele>191.769928</ele>
        <time>2010-06-27T09:12:10Z</time>
      </trkpt>
      <trkpt lat="43.50972" lon="6.7467">
        <ele>190.085556</ele>
        <time>2010-06-27T09:12:17Z</time>
      </trkpt>
      <trkpt lat="43.50961" lon="6.74653">
        <ele>189.186447</ele>
        <time>2010-06-27T09:12:22Z</time>
      </trkpt>
      <trkpt lat="43.50957" lon="6.74651">
        <ele>189.238724</ele>
        <time>2010-06-27T09:12:23Z</time>
      </trkpt>
      <trkpt lat="43.50916" lon="6.74625">
        <ele>187.205521</ele>
        <time>2010-06-27T09:12:31Z</time>
      </trkpt>
      <trkpt lat="43.50891" lon="6.74601">
        <ele>184.00795</ele>
        <time>2010-06-27T09:12:35Z</time>
      </trkpt>
      <trkpt lat="43.50884" lon="6.74595">
        <ele>182.873428</ele>
        <time>2010-06-27T09:12:36Z</time>
      </trkpt>
      <trkpt lat="43.5085" lon="6.74567">
        <ele>180.056793</ele>
        <time>2010-06-27T09:12:41Z</time>
      </trkpt>
      <trkpt lat="43.50837" lon="6.74561">
        <ele>180.089844</ele>
        <time>2010-06-27T09:12:43Z</time>
      </trkpt>
      <trkpt lat="43.50822" lon="6.74537">
        <ele>176.500977</ele>
        <time>2010-06-27T09:12:47Z</time>
      </trkpt>
      <trkpt lat="43.5082" lon="6.74528">
        <ele>174.938583</ele>
        <time>2010-06-27T09:12:48Z</time>
      </trkpt>
      <trkpt lat="43.50818" lon="6.74518">
        <ele>172.97052</ele>
        <time>2010-06-27T09:12:49Z</time>
      </trkpt>
      <trkpt lat="43.50807" lon="6.74475">
        <ele>169.049515</ele>
        <time>2010-06-27T09:12:53Z</time>
      </trkpt>
      <trkpt lat="43.50785" lon="6.74432">
        <ele>166.726334</ele>
        <time>2010-06-27T09:12:57Z</time>
      </trkpt>
      <trkpt lat="43.5077" lon="6.74402">
        <ele>164.636887</ele>
        <time>2010-06-27T09:13:00Z</time>
      </trkpt>
      <trkpt lat="43.50768" lon="6.7435">
        <ele>161.736557</ele>
        <time>2010-06-27T09:13:04Z</time>
      </trkpt>
      <trkpt lat="43.50773" lon="6.74322">
        <ele>161.015594</ele>
        <time>2010-06-27T09:13:06Z</time>
      </trkpt>
      <trkpt lat="43.50779" lon="6.74284">
        <ele>160.968307</ele>
        <time>2010-06-27T09:13:09Z</time>
      </trkpt>
      <trkpt lat="43.50764" lon="6.74204">
        <ele>160.772568</ele>
        <time>2010-06-27T09:13:16Z</time>
      </trkpt>
      <trkpt lat="43.50753" lon="6.74172">
        <ele>159.940109</ele>
        <time>2010-06-27T09:13:20Z</time>
      </trkpt>
      <trkpt lat="43.50743" lon="6.74119">
        <ele>159.0439</ele>
        <time>2010-06-27T09:13:29Z</time>
      </trkpt>
      <trkpt lat="43.5074" lon="6.74082">
        <ele>158.640076</ele>
        <time>2010-06-27T09:13:37Z</time>
      </trkpt>
      <trkpt lat="43.5074" lon="6.74069">
        <ele>158.249847</ele>
        <time>2010-06-27T09:13:40Z</time>
      </trkpt>
      <trkpt lat="43.50751" lon="6.74011">
        <ele>155.931915</ele>
        <time>2010-06-27T09:13:52Z</time>
      </trkpt>
      <trkpt lat="43.50794" lon="6.73958">
        <ele>151.201248</ele>
        <time>2010-06-27T09:14:04Z</time>
      </trkpt>
      <trkpt lat="43.50794" lon="6.7396">
        <ele>151.529526</ele>
        <time>2010-06-27T09:14:07Z</time>
      </trkpt>
      <trkpt lat="43.50794" lon="6.7396">
        <ele>151.529526</ele>
        <time>2010-06-27T09:14:08Z</time>
      </trkpt>
      <trkpt lat="43.50796" lon="6.7396">
        <ele>151.738602</ele>
        <time>2010-06-27T09:14:11Z</time>
      </trkpt>
      <trkpt lat="43.50798" lon="6.73964">
        <ele>152.590729</ele>
        <time>2010-06-27T09:15:00Z</time>
      </trkpt>
      <trkpt lat="43.50801" lon="6.73968">
        <ele>153.429108</ele>
        <time>2010-06-27T09:15:03Z</time>
      </trkpt>
      <trkpt lat="43.50801" lon="6.73968">
        <ele>153.429108</ele>
        <time>2010-06-27T09:15:04Z</time>
      </trkpt>
      <trkpt lat="43.50801" lon="6.73968">
        <ele>153.429108</ele>
        <time>2010-06-27T09:15:57Z</time>
      </trkpt>
      <trkpt lat="43.50801" lon="6.7397">
        <ele>153.746155</ele>
        <time>2010-06-27T09:16:16Z</time>
      </trkpt>
      <trkpt lat="43.50813" lon="6.73968">
        <ele>154.62114</ele>
        <time>2010-06-27T09:16:24Z</time>
      </trkpt>
      <trkpt lat="43.5082" lon="6.73968">
        <ele>155.22403</ele>
        <time>2010-06-27T09:16:26Z</time>
      </trkpt>
      <trkpt lat="43.50828" lon="6.73964">
        <ele>155.471954</ele>
        <time>2010-06-27T09:16:28Z</time>
      </trkpt>
      <trkpt lat="43.50846" lon="6.73955">
        <ele>155.866013</ele>
        <time>2010-06-27T09:16:32Z</time>
      </trkpt>
      <trkpt lat="43.50891" lon="6.73913">
        <ele>153.926117</ele>
        <time>2010-06-27T09:16:43Z</time>
      </trkpt>
      <trkpt lat="43.50906" lon="6.73898">
        <ele>153.742767</ele>
        <time>2010-06-27T09:16:46Z</time>
      </trkpt>
      <trkpt lat="43.50938" lon="6.7387">
        <ele>151.385849</ele>
        <time>2010-06-27T09:16:51Z</time>
      </trkpt>
      <trkpt lat="43.50985" lon="6.7384">
        <ele>150.304367</ele>
        <time>2010-06-27T09:16:58Z</time>
      </trkpt>
      <trkpt lat="43.5103" lon="6.73812">
        <ele>150.216141</ele>
        <time>2010-06-27T09:17:05Z</time>
      </trkpt>
      <trkpt lat="43.51064" lon="6.73767">
        <ele>150.457611</ele>
        <time>2010-06-27T09:17:14Z</time>
      </trkpt>
      <trkpt lat="43.51084" lon="6.73745">
        <ele>150.980225</ele>
        <time>2010-06-27T09:17:20Z</time>
      </trkpt>
      <trkpt lat="43.5109" lon="6.73741">
        <ele>151.365097</ele>
        <time>2010-06-27T09:17:22Z</time>
      </trkpt>
      <trkpt lat="43.51097" lon="6.73732">
        <ele>151.712891</ele>
        <time>2010-06-27T09:17:25Z</time>
      </trkpt>
      <trkpt lat="43.51088" lon="6.73722">
        <ele>151.815765</ele>
        <time>2010-06-27T09:17:32Z</time>
      </trkpt>
      <trkpt lat="43.51086" lon="6.73722">
        <ele>151.625717</ele>
        <time>2010-06-27T09:17:33Z</time>
      </trkpt>
      <trkpt lat="43.51079" lon="6.73719">
        <ele>151.251328</ele>
        <time>2010-06-27T09:17:36Z</time>
      </trkpt>
      <trkpt lat="43.51077" lon="6.73717">
        <ele>151.264893</ele>
        <time>2010-06-27T09:17:40Z</time>
      </trkpt>
      <trkpt lat="43.51077" lon="6.73717">
        <ele>151.264893</ele>
        <time>2010-06-27T09:17:42Z</time>
      </trkpt>
      <trkpt lat="43.51071" lon="6.73715">
        <ele>150.917908</ele>
        <time>2010-06-27T09:17:45Z</time>
      </trkpt>
      <trkpt lat="43.51067" lon="6.73715">
        <ele>150.54895</ele>
        <time>2010-06-27T09:17:47Z</time>
      </trkpt>
      <trkpt lat="43.51052" lon="6.73709">
        <ele>149.612244</ele>
        <time>2010-06-27T09:17:52Z</time>
      </trkpt>
      <trkpt lat="43.51026" lon="6.73704">
        <ele>145.907623</ele>
        <time>2010-06-27T09:17:58Z</time>
      </trkpt>
      <trkpt lat="43.51015" lon="6.73698">
        <ele>145.106476</ele>
        <time>2010-06-27T09:18:00Z</time>
      </trkpt>
      <trkpt lat="43.51004" lon="6.73696">
        <ele>143.915558</ele>
        <time>2010-06-27T09:18:02Z</time>
      </trkpt>
      <trkpt lat="43.51" lon="6.73696">
        <ele>143.348221</ele>
        <time>2010-06-27T09:18:03Z</time>
      </trkpt>
      <trkpt lat="43.50994" lon="6.73687">
        <ele>143.680756</ele>
        <time>2010-06-27T09:18:06Z</time>
      </trkpt>
      <trkpt lat="43.50991" lon="6.73683">
        <ele>143.957321</ele>
        <time>2010-06-27T09:18:08Z</time>
      </trkpt>
      <trkpt lat="43.50981" lon="6.73672">
        <ele>143.729919</ele>
        <time>2010-06-27T09:18:14Z</time>
      </trkpt>
      <trkpt lat="43.50979" lon="6.73668">
        <ele>143.911392</ele>
        <time>2010-06-27T09:18:16Z</time>
      </trkpt>
      <trkpt lat="43.50955" lon="6.73646">
        <ele>143.923523</ele>
        <time>2010-06-27T09:18:28Z</time>
      </trkpt>
      <trkpt lat="43.50936" lon="6.73621">
        <ele>145.466873</ele>
        <time>2010-06-27T09:18:41Z</time>
      </trkpt>
      <trkpt lat="43.50927" lon="6.7361">
        <ele>145.676529</ele>
        <time>2010-06-27T09:18:46Z</time>
      </trkpt>
      <trkpt lat="43.50914" lon="6.73591">
        <ele>146.212784</ele>
        <time>2010-06-27T09:18:53Z</time>
      </trkpt>
      <trkpt lat="43.50888" lon="6.73561">
        <ele>145.237381</ele>
        <time>2010-06-27T09:19:04Z</time>
      </trkpt>
      <trkpt lat="43.50863" lon="6.73518">
        <ele>145.149796</ele>
        <time>2010-06-27T09:19:16Z</time>
      </trkpt>
      <trkpt lat="43.50861" lon="6.73488">
        <ele>146.608368</ele>
        <time>2010-06-27T09:19:23Z</time>
      </trkpt>
      <trkpt lat="43.50861" lon="6.73483">
        <ele>146.887497</ele>
        <time>2010-06-27T09:19:24Z</time>
      </trkpt>
      <trkpt lat="43.50854" lon="6.73473">
        <ele>146.249496</ele>
        <time>2010-06-27T09:19:27Z</time>
      </trkpt>
      <trkpt lat="43.50852" lon="6.73468">
        <ele>146.097137</ele>
        <time>2010-06-27T09:19:28Z</time>
      </trkpt>
      <trkpt lat="43.50843" lon="6.73458">
        <ele>143.585785</ele>
        <time>2010-06-27T09:19:31Z</time>
      </trkpt>
      <trkpt lat="43.50833" lon="6.73447">
        <ele>140.3134</ele>
        <time>2010-06-27T09:19:35Z</time>
      </trkpt>
      <trkpt lat="43.50811" lon="6.73425">
        <ele>134.336594</ele>
        <time>2010-06-27T09:19:43Z</time>
      </trkpt>
      <trkpt lat="43.50805" lon="6.73419">
        <ele>132.667526</ele>
        <time>2010-06-27T09:19:46Z</time>
      </trkpt>
      <trkpt lat="43.50801" lon="6.73415">
        <ele>131.586594</ele>
        <time>2010-06-27T09:19:49Z</time>
      </trkpt>
      <trkpt lat="43.50792" lon="6.7341">
        <ele>130.106583</ele>
        <time>2010-06-27T09:19:52Z</time>
      </trkpt>
      <trkpt lat="43.50785" lon="6.73408">
        <ele>129.196045</ele>
        <time>2010-06-27T09:19:55Z</time>
      </trkpt>
      <trkpt lat="43.50775" lon="6.73406">
        <ele>127.816422</ele>
        <time>2010-06-27T09:19:59Z</time>
      </trkpt>
      <trkpt lat="43.5077" lon="6.73408">
        <ele>127.440987</ele>
        <time>2010-06-27T09:20:01Z</time>
      </trkpt>
      <trkpt lat="43.50762" lon="6.73408">
        <ele>126.421295</ele>
        <time>2010-06-27T09:20:04Z</time>
      </trkpt>
      <trkpt lat="43.50753" lon="6.73406">
        <ele>125.309029</ele>
        <time>2010-06-27T09:20:07Z</time>
      </trkpt>
      <trkpt lat="43.50745" lon="6.73404">
        <ele>123.602638</ele>
        <time>2010-06-27T09:20:10Z</time>
      </trkpt>
      <trkpt lat="43.50713" lon="6.73395">
        <ele>117.615936</ele>
        <time>2010-06-27T09:20:20Z</time>
      </trkpt>
      <trkpt lat="43.50702" lon="6.73391">
        <ele>115.012825</ele>
        <time>2010-06-27T09:20:23Z</time>
      </trkpt>
      <trkpt lat="43.50698" lon="6.73389">
        <ele>113.76989</ele>
        <time>2010-06-27T09:20:24Z</time>
      </trkpt>
      <trkpt lat="43.50657" lon="6.73374">
        <ele>105.499939</ele>
        <time>2010-06-27T09:20:34Z</time>
      </trkpt>
      <trkpt lat="43.50667" lon="6.73342">
        <ele>106.802719</ele>
        <time>2010-06-27T09:20:42Z</time>
      </trkpt>
      <trkpt lat="43.50667" lon="6.73337">
        <ele>106.900566</ele>
        <time>2010-06-27T09:20:43Z</time>
      </trkpt>
      <trkpt lat="43.5067" lon="6.73318">
        <ele>106.975685</ele>
        <time>2010-06-27T09:20:48Z</time>
      </trkpt>
      <trkpt lat="43.50672" lon="6.73295">
        <ele>106.338425</ele>
        <time>2010-06-27T09:20:54Z</time>
      </trkpt>
      <trkpt lat="43.50672" lon="6.7329">
        <ele>106.180191</ele>
        <time>2010-06-27T09:20:55Z</time>
      </trkpt>
      <trkpt lat="43.50672" lon="6.73273">
        <ele>105.547241</ele>
        <time>2010-06-27T09:20:59Z</time>
      </trkpt>
      <trkpt lat="43.5067" lon="6.73252">
        <ele>105.010376</ele>
        <time>2010-06-27T09:21:04Z</time>
      </trkpt>
      <trkpt lat="43.5067" lon="6.73249">
        <ele>105.001129</ele>
        <time>2010-06-27T09:21:05Z</time>
      </trkpt>
      <trkpt lat="43.50667" lon="6.73234">
        <ele>104.728798</ele>
        <time>2010-06-27T09:21:11Z</time>
      </trkpt>
      <trkpt lat="43.5067" lon="6.7323">
        <ele>104.927109</ele>
        <time>2010-06-27T09:21:32Z</time>
      </trkpt>
      <trkpt lat="43.5067" lon="6.7323">
        <ele>104.927109</ele>
        <time>2010-06-27T09:21:35Z</time>
      </trkpt>
      <trkpt lat="43.50672" lon="6.73228">
        <ele>105.12455</ele>
        <time>2010-06-27T09:21:38Z</time>
      </trkpt>
      <trkpt lat="43.50672" lon="6.73228">
        <ele>105.12455</ele>
        <time>2010-06-27T09:21:40Z</time>
      </trkpt>
      <trkpt lat="43.50672" lon="6.7323">
        <ele>105.134102</ele>
        <time>2010-06-27T09:22:10Z</time>
      </trkpt>
      <trkpt lat="43.50682" lon="6.73226">
        <ele>106.14547</ele>
        <time>2010-06-27T09:22:13Z</time>
      </trkpt>
      <trkpt lat="43.50689" lon="6.73196">
        <ele>106.328621</ele>
        <time>2010-06-27T09:22:22Z</time>
      </trkpt>
      <trkpt lat="43.50689" lon="6.73194">
        <ele>106.28241</ele>
        <time>2010-06-27T09:22:23Z</time>
      </trkpt>
      <trkpt lat="43.50687" lon="6.73185">
        <ele>105.962639</ele>
        <time>2010-06-27T09:22:26Z</time>
      </trkpt>
      <trkpt lat="43.50687" lon="6.73183">
        <ele>105.923393</ele>
        <time>2010-06-27T09:22:27Z</time>
      </trkpt>
      <trkpt lat="43.50687" lon="6.73172">
        <ele>105.733231</ele>
        <time>2010-06-27T09:22:31Z</time>
      </trkpt>
      <trkpt lat="43.50687" lon="6.73168">
        <ele>105.659996</ele>
        <time>2010-06-27T09:22:32Z</time>
      </trkpt>
      <trkpt lat="43.50687" lon="6.73164">
        <ele>105.588379</ele>
        <time>2010-06-27T09:22:34Z</time>
      </trkpt>
      <trkpt lat="43.50687" lon="6.73159">
        <ele>105.518379</ele>
        <time>2010-06-27T09:22:35Z</time>
      </trkpt>
      <trkpt lat="43.50689" lon="6.73149">
        <ele>105.405296</ele>
        <time>2010-06-27T09:22:39Z</time>
      </trkpt>
      <trkpt lat="43.50689" lon="6.73144">
        <ele>105.32798</ele>
        <time>2010-06-27T09:22:41Z</time>
      </trkpt>
      <trkpt lat="43.50689" lon="6.73127">
        <ele>104.769608</ele>
        <time>2010-06-27T09:22:47Z</time>
      </trkpt>
      <trkpt lat="43.50685" lon="6.73108">
        <ele>104.255287</ele>
        <time>2010-06-27T09:22:53Z</time>
      </trkpt>
      <trkpt lat="43.5068" lon="6.73089">
        <ele>103.948792</ele>
        <time>2010-06-27T09:22:58Z</time>
      </trkpt>
      <trkpt lat="43.50665" lon="6.73048">
        <ele>103.653336</ele>
        <time>2010-06-27T09:23:11Z</time>
      </trkpt>
      <trkpt lat="43.50661" lon="6.73039">
        <ele>103.771431</ele>
        <time>2010-06-27T09:23:28Z</time>
      </trkpt>
      <trkpt lat="43.50661" lon="6.73041">
        <ele>103.853325</ele>
        <time>2010-06-27T09:23:59Z</time>
      </trkpt>
      <trkpt lat="43.50659" lon="6.73031">
        <ele>103.681252</ele>
        <time>2010-06-27T09:24:02Z</time>
      </trkpt>
      <trkpt lat="43.50648" lon="6.73003">
        <ele>103.746895</ele>
        <time>2010-06-27T09:24:07Z</time>
      </trkpt>
      <trkpt lat="43.50644" lon="6.7299">
        <ele>103.51001</ele>
        <time>2010-06-27T09:24:09Z</time>
      </trkpt>
      <trkpt lat="43.50627" lon="6.72943">
        <ele>103.053719</ele>
        <time>2010-06-27T09:24:17Z</time>
      </trkpt>
      <trkpt lat="43.50625" lon="6.7293">
        <ele>102.852341</ele>
        <time>2010-06-27T09:24:20Z</time>
      </trkpt>
      <trkpt lat="43.50622" lon="6.72915">
        <ele>102.56044</ele>
        <time>2010-06-27T09:24:24Z</time>
      </trkpt>
      <trkpt lat="43.5062" lon="6.7291">
        <ele>102.721138</ele>
        <time>2010-06-27T09:24:25Z</time>
      </trkpt>
      <trkpt lat="43.5062" lon="6.729">
        <ele>102.268539</ele>
        <time>2010-06-27T09:24:27Z</time>
      </trkpt>
      <trkpt lat="43.50612" lon="6.72837">
        <ele>100.176399</ele>
        <time>2010-06-27T09:24:40Z</time>
      </trkpt>
      <trkpt lat="43.5061" lon="6.72816">
        <ele>99.377296</ele>
        <time>2010-06-27T09:24:47Z</time>
      </trkpt>
      <trkpt lat="43.50599" lon="6.72801">
        <ele>98.695244</ele>
        <time>2010-06-27T09:24:57Z</time>
      </trkpt>
      <trkpt lat="43.50597" lon="6.72797">
        <ele>98.633469</ele>
        <time>2010-06-27T09:25:00Z</time>
      </trkpt>
      <trkpt lat="43.50592" lon="6.7279">
        <ele>98.739204</ele>
        <time>2010-06-27T09:25:04Z</time>
      </trkpt>
      <trkpt lat="43.50586" lon="6.72784">
        <ele>98.794556</ele>
        <time>2010-06-27T09:25:24Z</time>
      </trkpt>
      <trkpt lat="43.5058" lon="6.72782">
        <ele>99.059723</ele>
        <time>2010-06-27T09:26:53Z</time>
      </trkpt>
      <trkpt lat="43.50577" lon="6.7278">
        <ele>98.942566</ele>
        <time>2010-06-27T09:26:58Z</time>
      </trkpt>
      <trkpt lat="43.50571" lon="6.72775">
        <ele>98.719826</ele>
        <time>2010-06-27T09:27:04Z</time>
      </trkpt>
      <trkpt lat="43.50567" lon="6.72769">
        <ele>97.832214</ele>
        <time>2010-06-27T09:27:07Z</time>
      </trkpt>
      <trkpt lat="43.50564" lon="6.72767">
        <ele>97.505226</ele>
        <time>2010-06-27T09:27:08Z</time>
      </trkpt>
      <trkpt lat="43.50562" lon="6.72758">
        <ele>96.449524</ele>
        <time>2010-06-27T09:27:11Z</time>
      </trkpt>
      <trkpt lat="43.50562" lon="6.72756">
        <ele>96.240891</ele>
        <time>2010-06-27T09:27:12Z</time>
      </trkpt>
      <trkpt lat="43.50552" lon="6.72734">
        <ele>94.202621</ele>
        <time>2010-06-27T09:27:21Z</time>
      </trkpt>
      <trkpt lat="43.50552" lon="6.7273">
        <ele>93.678253</ele>
        <time>2010-06-27T09:27:22Z</time>
      </trkpt>
      <trkpt lat="43.50549" lon="6.72728">
        <ele>93.62307</ele>
        <time>2010-06-27T09:27:23Z</time>
      </trkpt>
      <trkpt lat="43.50543" lon="6.72702">
        <ele>90.288132</ele>
        <time>2010-06-27T09:27:43Z</time>
      </trkpt>
      <trkpt lat="43.50541" lon="6.727">
        <ele>90.01091</ele>
        <time>2010-06-27T09:27:47Z</time>
      </trkpt>
      <trkpt lat="43.50537" lon="6.72694">
        <ele>90.413696</ele>
        <time>2010-06-27T09:27:55Z</time>
      </trkpt>
      <trkpt lat="43.50537" lon="6.72692">
        <ele>90.554855</ele>
        <time>2010-06-27T09:27:58Z</time>
      </trkpt>
      <trkpt lat="43.50537" lon="6.72692">
        <ele>90.554855</ele>
        <time>2010-06-27T09:28:01Z</time>
      </trkpt>
      <trkpt lat="43.50537" lon="6.72689">
        <ele>90.695755</ele>
        <time>2010-06-27T09:28:05Z</time>
      </trkpt>
      <trkpt lat="43.50532" lon="6.72685">
        <ele>90.910263</ele>
        <time>2010-06-27T09:28:11Z</time>
      </trkpt>
      <trkpt lat="43.5053" lon="6.72681">
        <ele>91.137901</ele>
        <time>2010-06-27T09:28:41Z</time>
      </trkpt>
      <trkpt lat="43.50526" lon="6.72679">
        <ele>91.184349</ele>
        <time>2010-06-27T09:28:44Z</time>
      </trkpt>
      <trkpt lat="43.50522" lon="6.72677">
        <ele>91.21936</ele>
        <time>2010-06-27T09:28:47Z</time>
      </trkpt>
      <trkpt lat="43.50515" lon="6.72674">
        <ele>91.19754</ele>
        <time>2010-06-27T09:28:50Z</time>
      </trkpt>
      <trkpt lat="43.50513" lon="6.72674">
        <ele>91.153229</ele>
        <time>2010-06-27T09:28:51Z</time>
      </trkpt>
      <trkpt lat="43.50496" lon="6.72664">
        <ele>91.552368</ele>
        <time>2010-06-27T09:28:59Z</time>
      </trkpt>
      <trkpt lat="43.5047" lon="6.72655">
        <ele>91.372993</ele>
        <time>2010-06-27T09:29:16Z</time>
      </trkpt>
      <trkpt lat="43.50466" lon="6.72651">
        <ele>91.242538</ele>
        <time>2010-06-27T09:29:22Z</time>
      </trkpt>
      <trkpt lat="43.50461" lon="6.72647">
        <ele>91.097366</ele>
        <time>2010-06-27T09:29:28Z</time>
      </trkpt>
      <trkpt lat="43.50459" lon="6.72642">
        <ele>90.976067</ele>
        <time>2010-06-27T09:29:36Z</time>
      </trkpt>
      <trkpt lat="43.50455" lon="6.72636">
        <ele>90.760597</ele>
        <time>2010-06-27T09:29:40Z</time>
      </trkpt>
      <trkpt lat="43.50451" lon="6.72632">
        <ele>90.589111</ele>
        <time>2010-06-27T09:29:43Z</time>
      </trkpt>
      <trkpt lat="43.50446" lon="6.72627">
        <ele>91.091286</ele>
        <time>2010-06-27T09:29:46Z</time>
      </trkpt>
      <trkpt lat="43.50446" lon="6.72627">
        <ele>91.091286</ele>
        <time>2010-06-27T09:29:47Z</time>
      </trkpt>
      <trkpt lat="43.50442" lon="6.72625">
        <ele>91.22393</ele>
        <time>2010-06-27T09:29:50Z</time>
      </trkpt>
      <trkpt lat="43.50438" lon="6.72621">
        <ele>91.616776</ele>
        <time>2010-06-27T09:29:53Z</time>
      </trkpt>
      <trkpt lat="43.50429" lon="6.72614">
        <ele>91.958603</ele>
        <time>2010-06-27T09:29:59Z</time>
      </trkpt>
      <trkpt lat="43.50423" lon="6.7261">
        <ele>92.053162</ele>
        <time>2010-06-27T09:30:04Z</time>
      </trkpt>
      <trkpt lat="43.50414" lon="6.72606">
        <ele>91.999191</ele>
        <time>2010-06-27T09:30:10Z</time>
      </trkpt>
      <trkpt lat="43.50408" lon="6.72595">
        <ele>92.727951</ele>
        <time>2010-06-27T09:30:16Z</time>
      </trkpt>
      <trkpt lat="43.5041" lon="6.7258">
        <ele>94.441704</ele>
        <time>2010-06-27T09:30:19Z</time>
      </trkpt>
      <trkpt lat="43.50406" lon="6.72569">
        <ele>95.24601</ele>
        <time>2010-06-27T09:30:23Z</time>
      </trkpt>
      <trkpt lat="43.50406" lon="6.72567">
        <ele>95.466515</ele>
        <time>2010-06-27T09:30:24Z</time>
      </trkpt>
      <trkpt lat="43.50393" lon="6.72571">
        <ele>94.091255</ele>
        <time>2010-06-27T09:30:30Z</time>
      </trkpt>
      <trkpt lat="43.50382" lon="6.7258">
        <ele>92.508492</ele>
        <time>2010-06-27T09:30:35Z</time>
      </trkpt>
      <trkpt lat="43.50371" lon="6.72593">
        <ele>90.616867</ele>
        <time>2010-06-27T09:30:41Z</time>
      </trkpt>
      <trkpt lat="43.50358" lon="6.72606">
        <ele>88.481911</ele>
        <time>2010-06-27T09:30:46Z</time>
      </trkpt>
      <trkpt lat="43.50343" lon="6.72608">
        <ele>87.22274</ele>
        <time>2010-06-27T09:30:50Z</time>
      </trkpt>
      <trkpt lat="43.50333" lon="6.72606">
        <ele>86.896896</ele>
        <time>2010-06-27T09:30:53Z</time>
      </trkpt>
      <trkpt lat="43.50322" lon="6.72597">
        <ele>87.775352</ele>
        <time>2010-06-27T09:30:57Z</time>
      </trkpt>
      <trkpt lat="43.5032" lon="6.72593">
        <ele>88.242561</ele>
        <time>2010-06-27T09:30:59Z</time>
      </trkpt>
      <trkpt lat="43.5032" lon="6.72584">
        <ele>89.214294</ele>
        <time>2010-06-27T09:31:04Z</time>
      </trkpt>
      <trkpt lat="43.5032" lon="6.72582">
        <ele>89.45723</ele>
        <time>2010-06-27T09:31:05Z</time>
      </trkpt>
      <trkpt lat="43.50316" lon="6.72574">
        <ele>90.391647</ele>
        <time>2010-06-27T09:31:10Z</time>
      </trkpt>
      <trkpt lat="43.50298" lon="6.72552">
        <ele>92.779358</ele>
        <time>2010-06-27T09:31:23Z</time>
      </trkpt>
      <trkpt lat="43.5029" lon="6.72548">
        <ele>93.604546</ele>
        <time>2010-06-27T09:31:28Z</time>
      </trkpt>
      <trkpt lat="43.50279" lon="6.72552">
        <ele>94.115211</ele>
        <time>2010-06-27T09:31:33Z</time>
      </trkpt>
      <trkpt lat="43.50268" lon="6.72546">
        <ele>96.062576</ele>
        <time>2010-06-27T09:31:42Z</time>
      </trkpt>
      <trkpt lat="43.50264" lon="6.72539">
        <ele>97.358727</ele>
        <time>2010-06-27T09:31:46Z</time>
      </trkpt>
      <trkpt lat="43.50266" lon="6.72529">
        <ele>98.578346</ele>
        <time>2010-06-27T09:31:52Z</time>
      </trkpt>
      <trkpt lat="43.50268" lon="6.7252">
        <ele>99.510628</ele>
        <time>2010-06-27T09:31:56Z</time>
      </trkpt>
      <trkpt lat="43.50275" lon="6.72516">
        <ele>99.43409</ele>
        <time>2010-06-27T09:32:03Z</time>
      </trkpt>
      <trkpt lat="43.50277" lon="6.72513">
        <ele>99.504356</ele>
        <time>2010-06-27T09:32:06Z</time>
      </trkpt>
      <trkpt lat="43.50288" lon="6.72505">
        <ele>99.568352</ele>
        <time>2010-06-27T09:32:22Z</time>
      </trkpt>
      <trkpt lat="43.5029" lon="6.72498">
        <ele>100.213287</ele>
        <time>2010-06-27T09:32:28Z</time>
      </trkpt>
      <trkpt lat="43.50301" lon="6.72492">
        <ele>100.818245</ele>
        <time>2010-06-27T09:32:35Z</time>
      </trkpt>
      <trkpt lat="43.50307" lon="6.72488">
        <ele>101.731422</ele>
        <time>2010-06-27T09:32:40Z</time>
      </trkpt>
      <trkpt lat="43.50313" lon="6.72488">
        <ele>101.954384</ele>
        <time>2010-06-27T09:32:47Z</time>
      </trkpt>
      <trkpt lat="43.50328" lon="6.7249">
        <ele>102.129517</ele>
        <time>2010-06-27T09:32:58Z</time>
      </trkpt>
      <trkpt lat="43.50335" lon="6.72488">
        <ele>102.697586</ele>
        <time>2010-06-27T09:33:04Z</time>
      </trkpt>
      <trkpt lat="43.50339" lon="6.7249">
        <ele>102.501122</ele>
        <time>2010-06-27T09:33:10Z</time>
      </trkpt>
      <trkpt lat="43.50352" lon="6.72492">
        <ele>102.826027</ele>
        <time>2010-06-27T09:33:22Z</time>
      </trkpt>
      <trkpt lat="43.50356" lon="6.7249">
        <ele>103.386543</ele>
        <time>2010-06-27T09:33:28Z</time>
      </trkpt>
      <trkpt lat="43.50363" lon="6.7249">
        <ele>103.72364</ele>
        <time>2010-06-27T09:33:39Z</time>
      </trkpt>
      <trkpt lat="43.50378" lon="6.72488">
        <ele>104.816162</ele>
        <time>2010-06-27T09:33:52Z</time>
      </trkpt>
      <trkpt lat="43.50389" lon="6.72483">
        <ele>105.947006</ele>
        <time>2010-06-27T09:33:59Z</time>
      </trkpt>
      <trkpt lat="43.50395" lon="6.72481">
        <ele>106.525948</ele>
        <time>2010-06-27T09:34:04Z</time>
      </trkpt>
      <trkpt lat="43.5041" lon="6.72451">
        <ele>111.740776</ele>
        <time>2010-06-27T09:34:22Z</time>
      </trkpt>
      <trkpt lat="43.50421" lon="6.72432">
        <ele>114.917763</ele>
        <time>2010-06-27T09:34:35Z</time>
      </trkpt>
      <trkpt lat="43.50425" lon="6.72423">
        <ele>116.014847</ele>
        <time>2010-06-27T09:34:40Z</time>
      </trkpt>
      <trkpt lat="43.50431" lon="6.72417">
        <ele>116.715988</ele>
        <time>2010-06-27T09:34:46Z</time>
      </trkpt>
      <trkpt lat="43.50444" lon="6.72419">
        <ele>117.96151</ele>
        <time>2010-06-27T09:34:54Z</time>
      </trkpt>
      <trkpt lat="43.50449" lon="6.72428">
        <ele>117.888336</ele>
        <time>2010-06-27T09:34:58Z</time>
      </trkpt>
      <trkpt lat="43.50449" lon="6.72471">
        <ele>112.860489</ele>
        <time>2010-06-27T09:35:16Z</time>
      </trkpt>
      <trkpt lat="43.50455" lon="6.72486">
        <ele>111.797073</ele>
        <time>2010-06-27T09:35:23Z</time>
      </trkpt>
      <trkpt lat="43.50461" lon="6.72492">
        <ele>112.038513</ele>
        <time>2010-06-27T09:35:28Z</time>
      </trkpt>
      <trkpt lat="43.50489" lon="6.72505">
        <ele>115.506302</ele>
        <time>2010-06-27T09:35:46Z</time>
      </trkpt>
      <trkpt lat="43.505" lon="6.72505">
        <ele>117.594276</ele>
        <time>2010-06-27T09:35:53Z</time>
      </trkpt>
      <trkpt lat="43.50507" lon="6.72505">
        <ele>118.853157</ele>
        <time>2010-06-27T09:35:58Z</time>
      </trkpt>
      <trkpt lat="43.50515" lon="6.72501">
        <ele>121.254967</ele>
        <time>2010-06-27T09:36:04Z</time>
      </trkpt>
      <trkpt lat="43.50524" lon="6.72503">
        <ele>122.370148</ele>
        <time>2010-06-27T09:36:10Z</time>
      </trkpt>
      <trkpt lat="43.5053" lon="6.72507">
        <ele>122.463501</ele>
        <time>2010-06-27T09:36:16Z</time>
      </trkpt>
      <trkpt lat="43.50537" lon="6.72511">
        <ele>122.502724</ele>
        <time>2010-06-27T09:36:23Z</time>
      </trkpt>
      <trkpt lat="43.50541" lon="6.72511">
        <ele>123.06028</ele>
        <time>2010-06-27T09:36:29Z</time>
      </trkpt>
      <trkpt lat="43.50545" lon="6.72513">
        <ele>123.189941</ele>
        <time>2010-06-27T09:36:35Z</time>
      </trkpt>
      <trkpt lat="43.50552" lon="6.72516">
        <ele>123.575531</ele>
        <time>2010-06-27T09:36:40Z</time>
      </trkpt>
      <trkpt lat="43.50564" lon="6.72518">
        <ele>124.692169</ele>
        <time>2010-06-27T09:36:47Z</time>
      </trkpt>
      <trkpt lat="43.50573" lon="6.7252">
        <ele>124.660477</ele>
        <time>2010-06-27T09:36:52Z</time>
      </trkpt>
      <trkpt lat="43.50592" lon="6.72513">
        <ele>127.382805</ele>
        <time>2010-06-27T09:37:05Z</time>
      </trkpt>
      <trkpt lat="43.50612" lon="6.72507">
        <ele>129.702271</ele>
        <time>2010-06-27T09:37:18Z</time>
      </trkpt>
      <trkpt lat="43.50618" lon="6.72503">
        <ele>130.39444</ele>
        <time>2010-06-27T09:37:23Z</time>
      </trkpt>
      <trkpt lat="43.50625" lon="6.72501">
        <ele>130.589127</ele>
        <time>2010-06-27T09:37:28Z</time>
      </trkpt>
      <trkpt lat="43.50633" lon="6.72492">
        <ele>131.803268</ele>
        <time>2010-06-27T09:37:35Z</time>
      </trkpt>
      <trkpt lat="43.50648" lon="6.72475">
        <ele>133.746246</ele>
        <time>2010-06-27T09:37:47Z</time>
      </trkpt>
      <trkpt lat="43.50661" lon="6.7246">
        <ele>134.873825</ele>
        <time>2010-06-27T09:37:58Z</time>
      </trkpt>
      <trkpt lat="43.50663" lon="6.72445">
        <ele>136.94664</ele>
        <time>2010-06-27T09:38:05Z</time>
      </trkpt>
      <trkpt lat="43.50663" lon="6.72434">
        <ele>138.574753</ele>
        <time>2010-06-27T09:38:10Z</time>
      </trkpt>
      <trkpt lat="43.50667" lon="6.72408">
        <ele>142.124023</ele>
        <time>2010-06-27T09:38:22Z</time>
      </trkpt>
      <trkpt lat="43.50672" lon="6.724">
        <ele>143.190781</ele>
        <time>2010-06-27T09:38:28Z</time>
      </trkpt>
      <trkpt lat="43.50687" lon="6.72395">
        <ele>143.173538</ele>
        <time>2010-06-27T09:38:37Z</time>
      </trkpt>
      <trkpt lat="43.50693" lon="6.72395">
        <ele>142.785187</ele>
        <time>2010-06-27T09:38:40Z</time>
      </trkpt>
      <trkpt lat="43.50693" lon="6.72395">
        <ele>142.785187</ele>
        <time>2010-06-27T09:38:41Z</time>
      </trkpt>
      <trkpt lat="43.50713" lon="6.72389">
        <ele>143.610931</ele>
        <time>2010-06-27T09:38:53Z</time>
      </trkpt>
      <trkpt lat="43.50738" lon="6.72376">
        <ele>146.332779</ele>
        <time>2010-06-27T09:39:11Z</time>
      </trkpt>
      <trkpt lat="43.50749" lon="6.72372">
        <ele>147.187317</ele>
        <time>2010-06-27T09:39:17Z</time>
      </trkpt>
      <trkpt lat="43.50779" lon="6.72353">
        <ele>150.388489</ele>
        <time>2010-06-27T09:39:38Z</time>
      </trkpt>
      <trkpt lat="43.50792" lon="6.72344">
        <ele>151.205826</ele>
        <time>2010-06-27T09:39:47Z</time>
      </trkpt>
      <trkpt lat="43.50794" lon="6.72342">
        <ele>151.437973</ele>
        <time>2010-06-27T09:39:49Z</time>
      </trkpt>
      <trkpt lat="43.50801" lon="6.72338">
        <ele>151.955032</ele>
        <time>2010-06-27T09:39:54Z</time>
      </trkpt>
      <trkpt lat="43.50805" lon="6.72331">
        <ele>152.961395</ele>
        <time>2010-06-27T09:39:58Z</time>
      </trkpt>
      <trkpt lat="43.50822" lon="6.72318">
        <ele>154.410507</ele>
        <time>2010-06-27T09:40:10Z</time>
      </trkpt>
      <trkpt lat="43.50835" lon="6.7232">
        <ele>153.5065</ele>
        <time>2010-06-27T09:40:16Z</time>
      </trkpt>
      <trkpt lat="43.50858" lon="6.72314">
        <ele>154.220001</ele>
        <time>2010-06-27T09:40:29Z</time>
      </trkpt>
      <trkpt lat="43.50865" lon="6.7231">
        <ele>154.527847</ele>
        <time>2010-06-27T09:40:34Z</time>
      </trkpt>
      <trkpt lat="43.50871" lon="6.72314">
        <ele>154.316528</ele>
        <time>2010-06-27T09:40:37Z</time>
      </trkpt>
      <trkpt lat="43.50876" lon="6.72316">
        <ele>154.281815</ele>
        <time>2010-06-27T09:40:39Z</time>
      </trkpt>
      <trkpt lat="43.50882" lon="6.72323">
        <ele>154.325043</ele>
        <time>2010-06-27T09:40:43Z</time>
      </trkpt>
      <trkpt lat="43.50912" lon="6.72338">
        <ele>157.882523</ele>
        <time>2010-06-27T09:40:59Z</time>
      </trkpt>
      <trkpt lat="43.50919" lon="6.72338">
        <ele>158.650711</ele>
        <time>2010-06-27T09:41:04Z</time>
      </trkpt>
      <trkpt lat="43.50929" lon="6.7234">
        <ele>160.170822</ele>
        <time>2010-06-27T09:41:11Z</time>
      </trkpt>
      <trkpt lat="43.5094" lon="6.7234">
        <ele>161.671341</ele>
        <time>2010-06-27T09:41:17Z</time>
      </trkpt>
      <trkpt lat="43.50951" lon="6.72338">
        <ele>162.885361</ele>
        <time>2010-06-27T09:41:23Z</time>
      </trkpt>
      <trkpt lat="43.50959" lon="6.72335">
        <ele>163.736694</ele>
        <time>2010-06-27T09:41:29Z</time>
      </trkpt>
      <trkpt lat="43.50994" lon="6.7232">
        <ele>165.378479</ele>
        <time>2010-06-27T09:41:51Z</time>
      </trkpt>
      <trkpt lat="43.50998" lon="6.7232">
        <ele>165.892014</ele>
        <time>2010-06-27T09:41:53Z</time>
      </trkpt>
      <trkpt lat="43.51004" lon="6.72314">
        <ele>165.4823</ele>
        <time>2010-06-27T09:41:59Z</time>
      </trkpt>
      <trkpt lat="43.51015" lon="6.72307">
        <ele>165.586121</ele>
        <time>2010-06-27T09:42:07Z</time>
      </trkpt>
      <trkpt lat="43.51028" lon="6.72301">
        <ele>165.714203</ele>
        <time>2010-06-27T09:42:16Z</time>
      </trkpt>
      <trkpt lat="43.51032" lon="6.72297">
        <ele>165.302322</ele>
        <time>2010-06-27T09:42:20Z</time>
      </trkpt>
      <trkpt lat="43.51075" lon="6.72275">
        <ele>165.340469</ele>
        <time>2010-06-27T09:42:47Z</time>
      </trkpt>
      <trkpt lat="43.51099" lon="6.72271">
        <ele>165.494003</ele>
        <time>2010-06-27T09:42:59Z</time>
      </trkpt>
      <trkpt lat="43.51116" lon="6.72265">
        <ele>165.962097</ele>
        <time>2010-06-27T09:43:07Z</time>
      </trkpt>
      <trkpt lat="43.51122" lon="6.72258">
        <ele>165.875381</ele>
        <time>2010-06-27T09:43:11Z</time>
      </trkpt>
      <trkpt lat="43.5114" lon="6.72237">
        <ele>167.358627</ele>
        <time>2010-06-27T09:43:23Z</time>
      </trkpt>
      <trkpt lat="43.51146" lon="6.72226">
        <ele>168.662048</ele>
        <time>2010-06-27T09:43:29Z</time>
      </trkpt>
      <trkpt lat="43.51157" lon="6.72204">
        <ele>171.787872</ele>
        <time>2010-06-27T09:43:41Z</time>
      </trkpt>
      <trkpt lat="43.51163" lon="6.722">
        <ele>172.978134</ele>
        <time>2010-06-27T09:43:46Z</time>
      </trkpt>
      <trkpt lat="43.51167" lon="6.72207">
        <ele>172.691757</ele>
        <time>2010-06-27T09:43:49Z</time>
      </trkpt>
      <trkpt lat="43.5117" lon="6.72209">
        <ele>172.664352</ele>
        <time>2010-06-27T09:43:51Z</time>
      </trkpt>
      <trkpt lat="43.51172" lon="6.72213">
        <ele>172.325455</ele>
        <time>2010-06-27T09:43:53Z</time>
      </trkpt>
      <trkpt lat="43.51174" lon="6.72215">
        <ele>172.265472</ele>
        <time>2010-06-27T09:43:55Z</time>
      </trkpt>
      <trkpt lat="43.51178" lon="6.7222">
        <ele>172.107391</ele>
        <time>2010-06-27T09:43:58Z</time>
      </trkpt>
      <trkpt lat="43.51187" lon="6.72226">
        <ele>171.987335</ele>
        <time>2010-06-27T09:44:04Z</time>
      </trkpt>
      <trkpt lat="43.51195" lon="6.72224">
        <ele>173.221909</ele>
        <time>2010-06-27T09:44:10Z</time>
      </trkpt>
      <trkpt lat="43.512" lon="6.72213">
        <ele>175.601959</ele>
        <time>2010-06-27T09:44:16Z</time>
      </trkpt>
      <trkpt lat="43.51197" lon="6.722">
        <ele>177.603409</ele>
        <time>2010-06-27T09:44:22Z</time>
      </trkpt>
      <trkpt lat="43.51195" lon="6.72187">
        <ele>178.976563</ele>
        <time>2010-06-27T09:44:28Z</time>
      </trkpt>
      <trkpt lat="43.51195" lon="6.72174">
        <ele>180.155991</ele>
        <time>2010-06-27T09:44:34Z</time>
      </trkpt>
      <trkpt lat="43.51191" lon="6.72153">
        <ele>181.517624</ele>
        <time>2010-06-27T09:44:58Z</time>
      </trkpt>
      <trkpt lat="43.51189" lon="6.72155">
        <ele>181.019012</ele>
        <time>2010-06-27T09:46:29Z</time>
      </trkpt>
      <trkpt lat="43.51191" lon="6.72153">
        <ele>181.517624</ele>
        <time>2010-06-27T09:47:10Z</time>
      </trkpt>
      <trkpt lat="43.51191" lon="6.72153">
        <ele>181.517624</ele>
        <time>2010-06-27T09:49:47Z</time>
      </trkpt>
      <trkpt lat="43.51191" lon="6.72153">
        <ele>181.517624</ele>
        <time>2010-06-27T09:49:53Z</time>
      </trkpt>
      <trkpt lat="43.51191" lon="6.72149">
        <ele>181.910767</ele>
        <time>2010-06-27T09:49:59Z</time>
      </trkpt>
      <trkpt lat="43.51185" lon="6.72142">
        <ele>181.594376</ele>
        <time>2010-06-27T09:50:01Z</time>
      </trkpt>
      <trkpt lat="43.51187" lon="6.72129">
        <ele>182.986145</ele>
        <time>2010-06-27T09:50:12Z</time>
      </trkpt>
      <trkpt lat="43.51189" lon="6.72134">
        <ele>182.984741</ele>
        <time>2010-06-27T09:50:14Z</time>
      </trkpt>
      <trkpt lat="43.51191" lon="6.72136">
        <ele>183.090195</ele>
        <time>2010-06-27T09:50:16Z</time>
      </trkpt>
      <trkpt lat="43.51195" lon="6.72142">
        <ele>183.104553</ele>
        <time>2010-06-27T09:50:21Z</time>
      </trkpt>
      <trkpt lat="43.51197" lon="6.72142">
        <ele>183.406586</ele>
        <time>2010-06-27T09:50:22Z</time>
      </trkpt>
      <trkpt lat="43.51225" lon="6.72172">
        <ele>182.333252</ele>
        <time>2010-06-27T09:50:41Z</time>
      </trkpt>
      <trkpt lat="43.51234" lon="6.72177">
        <ele>181.980759</ele>
        <time>2010-06-27T09:50:46Z</time>
      </trkpt>
      <trkpt lat="43.51247" lon="6.72177">
        <ele>182.076614</ele>
        <time>2010-06-27T09:50:52Z</time>
      </trkpt>
      <trkpt lat="43.5126" lon="6.72168">
        <ele>182.136749</ele>
        <time>2010-06-27T09:50:59Z</time>
      </trkpt>
      <trkpt lat="43.51296" lon="6.72119">
        <ele>184.797134</ele>
        <time>2010-06-27T09:51:22Z</time>
      </trkpt>
      <trkpt lat="43.51298" lon="6.72117">
        <ele>185.064774</ele>
        <time>2010-06-27T09:51:23Z</time>
      </trkpt>
      <trkpt lat="43.51309" lon="6.7211">
        <ele>188.618866</ele>
        <time>2010-06-27T09:51:29Z</time>
      </trkpt>
      <trkpt lat="43.5132" lon="6.72108">
        <ele>192.176376</ele>
        <time>2010-06-27T09:51:34Z</time>
      </trkpt>
      <trkpt lat="43.51333" lon="6.72112">
        <ele>194.854233</ele>
        <time>2010-06-27T09:51:41Z</time>
      </trkpt>
      <trkpt lat="43.51393" lon="6.72164">
        <ele>203.057678</ele>
        <time>2010-06-27T09:52:14Z</time>
      </trkpt>
      <trkpt lat="43.51401" lon="6.72172">
        <ele>202.872391</ele>
        <time>2010-06-27T09:52:19Z</time>
      </trkpt>
      <trkpt lat="43.51431" lon="6.72194">
        <ele>206.215698</ele>
        <time>2010-06-27T09:52:35Z</time>
      </trkpt>
      <trkpt lat="43.51444" lon="6.72198">
        <ele>206.195892</ele>
        <time>2010-06-27T09:52:41Z</time>
      </trkpt>
      <trkpt lat="43.51459" lon="6.72198">
        <ele>206.716873</ele>
        <time>2010-06-27T09:52:47Z</time>
      </trkpt>
      <trkpt lat="43.51472" lon="6.72196">
        <ele>207.416519</ele>
        <time>2010-06-27T09:52:53Z</time>
      </trkpt>
      <trkpt lat="43.51511" lon="6.72179">
        <ele>209.269241</ele>
        <time>2010-06-27T09:53:11Z</time>
      </trkpt>
      <trkpt lat="43.51539" lon="6.72174">
        <ele>210.651047</ele>
        <time>2010-06-27T09:53:23Z</time>
      </trkpt>
      <trkpt lat="43.51597" lon="6.72174">
        <ele>214.44278</ele>
        <time>2010-06-27T09:53:48Z</time>
      </trkpt>
      <trkpt lat="43.51607" lon="6.72177">
        <ele>215.032013</ele>
        <time>2010-06-27T09:53:53Z</time>
      </trkpt>
      <trkpt lat="43.5162" lon="6.72181">
        <ele>215.344452</ele>
        <time>2010-06-27T09:53:59Z</time>
      </trkpt>
      <trkpt lat="43.51633" lon="6.72187">
        <ele>215.162674</ele>
        <time>2010-06-27T09:54:05Z</time>
      </trkpt>
      <trkpt lat="43.51659" lon="6.72194">
        <ele>215.994186</ele>
        <time>2010-06-27T09:54:16Z</time>
      </trkpt>
      <trkpt lat="43.51687" lon="6.72194">
        <ele>217.218857</ele>
        <time>2010-06-27T09:54:28Z</time>
      </trkpt>
      <trkpt lat="43.51712" lon="6.72194">
        <ele>219.674545</ele>
        <time>2010-06-27T09:54:38Z</time>
      </trkpt>
      <trkpt lat="43.51725" lon="6.72196">
        <ele>221.931564</ele>
        <time>2010-06-27T09:54:44Z</time>
      </trkpt>
      <trkpt lat="43.51732" lon="6.722">
        <ele>222.695847</ele>
        <time>2010-06-27T09:54:47Z</time>
      </trkpt>
      <trkpt lat="43.5174" lon="6.72207">
        <ele>223.574875</ele>
        <time>2010-06-27T09:54:51Z</time>
      </trkpt>
      <trkpt lat="43.51743" lon="6.72211">
        <ele>223.464035</ele>
        <time>2010-06-27T09:54:53Z</time>
      </trkpt>
      <trkpt lat="43.51785" lon="6.72265">
        <ele>226.087051</ele>
        <time>2010-06-27T09:55:16Z</time>
      </trkpt>
      <trkpt lat="43.51803" lon="6.7228">
        <ele>227.626816</ele>
        <time>2010-06-27T09:55:23Z</time>
      </trkpt>
      <trkpt lat="43.51852" lon="6.72348">
        <ele>227.374542</ele>
        <time>2010-06-27T09:55:46Z</time>
      </trkpt>
      <trkpt lat="43.51852" lon="6.72344">
        <ele>227.834641</ele>
        <time>2010-06-27T09:55:50Z</time>
      </trkpt>
      <trkpt lat="43.51852" lon="6.72344">
        <ele>227.834641</ele>
        <time>2010-06-27T09:55:52Z</time>
      </trkpt>
      <trkpt lat="43.51852" lon="6.72342">
        <ele>228.065094</ele>
        <time>2010-06-27T09:55:55Z</time>
      </trkpt>
      <trkpt lat="43.51852" lon="6.72342">
        <ele>228.065094</ele>
        <time>2010-06-27T09:55:56Z</time>
      </trkpt>
      <trkpt lat="43.51854" lon="6.72338">
        <ele>228.927383</ele>
        <time>2010-06-27T09:55:59Z</time>
      </trkpt>
      <trkpt lat="43.51863" lon="6.72333">
        <ele>230.954498</ele>
        <time>2010-06-27T09:56:21Z</time>
      </trkpt>
      <trkpt lat="43.51863" lon="6.72333">
        <ele>230.954498</ele>
        <time>2010-06-27T09:56:22Z</time>
      </trkpt>
      <trkpt lat="43.51865" lon="6.7234">
        <ele>230.711548</ele>
        <time>2010-06-27T09:56:25Z</time>
      </trkpt>
      <trkpt lat="43.51869" lon="6.72342">
        <ele>231.308411</ele>
        <time>2010-06-27T09:56:28Z</time>
      </trkpt>
      <trkpt lat="43.51871" lon="6.72346">
        <ele>231.310272</ele>
        <time>2010-06-27T09:56:32Z</time>
      </trkpt>
      <trkpt lat="43.51882" lon="6.7237">
        <ele>232.056976</ele>
        <time>2010-06-27T09:56:47Z</time>
      </trkpt>
      <trkpt lat="43.51886" lon="6.72374">
        <ele>233.181076</ele>
        <time>2010-06-27T09:56:52Z</time>
      </trkpt>
      <trkpt lat="43.51903" lon="6.72406">
        <ele>237.27832</ele>
        <time>2010-06-27T09:57:15Z</time>
      </trkpt>
      <trkpt lat="43.51906" lon="6.72415">
        <ele>237.636719</ele>
        <time>2010-06-27T09:57:21Z</time>
      </trkpt>
      <trkpt lat="43.51908" lon="6.72421">
        <ele>238.093872</ele>
        <time>2010-06-27T09:57:24Z</time>
      </trkpt>
      <trkpt lat="43.5191" lon="6.7243">
        <ele>238.48027</ele>
        <time>2010-06-27T09:57:28Z</time>
      </trkpt>
      <trkpt lat="43.51914" lon="6.72443">
        <ele>239.374069</ele>
        <time>2010-06-27T09:57:35Z</time>
      </trkpt>
      <trkpt lat="43.51923" lon="6.72458">
        <ele>241.286392</ele>
        <time>2010-06-27T09:57:46Z</time>
      </trkpt>
      <trkpt lat="43.51927" lon="6.72468">
        <ele>241.881775</ele>
        <time>2010-06-27T09:57:52Z</time>
      </trkpt>
      <trkpt lat="43.51936" lon="6.7249">
        <ele>242.648636</ele>
        <time>2010-06-27T09:58:05Z</time>
      </trkpt>
      <trkpt lat="43.5194" lon="6.72496">
        <ele>243.206436</ele>
        <time>2010-06-27T09:58:10Z</time>
      </trkpt>
      <trkpt lat="43.51944" lon="6.72507">
        <ele>243.392929</ele>
        <time>2010-06-27T09:58:16Z</time>
      </trkpt>
      <trkpt lat="43.51953" lon="6.72513">
        <ele>244.982712</ele>
        <time>2010-06-27T09:58:22Z</time>
      </trkpt>
      <trkpt lat="43.51955" lon="6.72509">
        <ele>245.878983</ele>
        <time>2010-06-27T09:58:25Z</time>
      </trkpt>
      <trkpt lat="43.51957" lon="6.72498">
        <ele>247.37616</ele>
        <time>2010-06-27T09:58:30Z</time>
      </trkpt>
      <trkpt lat="43.51957" lon="6.72492">
        <ele>248.111526</ele>
        <time>2010-06-27T09:58:33Z</time>
      </trkpt>
      <trkpt lat="43.51957" lon="6.72477">
        <ele>249.808563</ele>
        <time>2010-06-27T09:58:41Z</time>
      </trkpt>
      <trkpt lat="43.51957" lon="6.72471">
        <ele>250.527802</ele>
        <time>2010-06-27T09:58:46Z</time>
      </trkpt>
      <trkpt lat="43.51953" lon="6.7246">
        <ele>250.381561</ele>
        <time>2010-06-27T09:58:53Z</time>
      </trkpt>
      <trkpt lat="43.51951" lon="6.72449">
        <ele>250.79155</ele>
        <time>2010-06-27T09:58:59Z</time>
      </trkpt>
      <trkpt lat="43.51944" lon="6.72428">
        <ele>250.375076</ele>
        <time>2010-06-27T09:59:10Z</time>
      </trkpt>
      <trkpt lat="43.51944" lon="6.72413">
        <ele>251.304474</ele>
        <time>2010-06-27T09:59:17Z</time>
      </trkpt>
      <trkpt lat="43.51942" lon="6.724">
        <ele>251.271942</ele>
        <time>2010-06-27T09:59:23Z</time>
      </trkpt>
      <trkpt lat="43.51944" lon="6.72346">
        <ele>255.650101</ele>
        <time>2010-06-27T09:59:49Z</time>
      </trkpt>
      <trkpt lat="43.51946" lon="6.72342">
        <ele>256.858795</ele>
        <time>2010-06-27T09:59:51Z</time>
      </trkpt>
      <trkpt lat="43.51946" lon="6.72335">
        <ele>257.327759</ele>
        <time>2010-06-27T09:59:54Z</time>
      </trkpt>
      <trkpt lat="43.51946" lon="6.72331">
        <ele>257.63974</ele>
        <time>2010-06-27T09:59:56Z</time>
      </trkpt>
      <trkpt lat="43.51946" lon="6.72325">
        <ele>258.106659</ele>
        <time>2010-06-27T09:59:59Z</time>
      </trkpt>
      <trkpt lat="43.51944" lon="6.72312">
        <ele>258.205444</ele>
        <time>2010-06-27T10:00:05Z</time>
      </trkpt>
      <trkpt lat="43.51944" lon="6.72303">
        <ele>259.30719</ele>
        <time>2010-06-27T10:00:09Z</time>
      </trkpt>
      <trkpt lat="43.5194" lon="6.72269">
        <ele>261.854462</ele>
        <time>2010-06-27T10:00:28Z</time>
      </trkpt>
      <trkpt lat="43.5194" lon="6.72265">
        <ele>262.405334</ele>
        <time>2010-06-27T10:00:30Z</time>
      </trkpt>
      <trkpt lat="43.51938" lon="6.72254">
        <ele>262.852692</ele>
        <time>2010-06-27T10:00:35Z</time>
      </trkpt>
      <trkpt lat="43.51929" lon="6.72217">
        <ele>262.691833</ele>
        <time>2010-06-27T10:00:54Z</time>
      </trkpt>
      <trkpt lat="43.51927" lon="6.72211">
        <ele>262.442871</ele>
        <time>2010-06-27T10:00:57Z</time>
      </trkpt>
      <trkpt lat="43.51918" lon="6.72168">
        <ele>263.210022</ele>
        <time>2010-06-27T10:01:16Z</time>
      </trkpt>
      <trkpt lat="43.51918" lon="6.72159">
        <ele>263.921539</ele>
        <time>2010-06-27T10:01:20Z</time>
      </trkpt>
      <trkpt lat="43.51916" lon="6.72153">
        <ele>263.788574</ele>
        <time>2010-06-27T10:01:23Z</time>
      </trkpt>
      <trkpt lat="43.51916" lon="6.72151">
        <ele>263.976013</ele>
        <time>2010-06-27T10:01:24Z</time>
      </trkpt>
      <trkpt lat="43.51912" lon="6.7214">
        <ele>263.652893</ele>
        <time>2010-06-27T10:01:29Z</time>
      </trkpt>
      <trkpt lat="43.51906" lon="6.72117">
        <ele>265.522491</ele>
        <time>2010-06-27T10:01:40Z</time>
      </trkpt>
      <trkpt lat="43.51897" lon="6.72106">
        <ele>266.153351</ele>
        <time>2010-06-27T10:01:47Z</time>
      </trkpt>
      <trkpt lat="43.51891" lon="6.72099">
        <ele>266.372162</ele>
        <time>2010-06-27T10:01:53Z</time>
      </trkpt>
      <trkpt lat="43.51886" lon="6.72097">
        <ele>266.020203</ele>
        <time>2010-06-27T10:01:55Z</time>
      </trkpt>
      <trkpt lat="43.51871" lon="6.72086">
        <ele>268.0755</ele>
        <time>2010-06-27T10:02:05Z</time>
      </trkpt>
      <trkpt lat="43.51854" lon="6.72076">
        <ele>269.845612</ele>
        <time>2010-06-27T10:02:16Z</time>
      </trkpt>
      <trkpt lat="43.5185" lon="6.72074">
        <ele>270.113342</ele>
        <time>2010-06-27T10:02:19Z</time>
      </trkpt>
      <trkpt lat="43.51843" lon="6.72071">
        <ele>270.194489</ele>
        <time>2010-06-27T10:02:24Z</time>
      </trkpt>
      <trkpt lat="43.51837" lon="6.72069">
        <ele>269.901001</ele>
        <time>2010-06-27T10:02:27Z</time>
      </trkpt>
      <trkpt lat="43.51835" lon="6.72069">
        <ele>269.585815</ele>
        <time>2010-06-27T10:02:29Z</time>
      </trkpt>
      <trkpt lat="43.5182" lon="6.72063">
        <ele>269.126984</ele>
        <time>2010-06-27T10:02:40Z</time>
      </trkpt>
      <trkpt lat="43.51811" lon="6.72056">
        <ele>269.537292</ele>
        <time>2010-06-27T10:02:46Z</time>
      </trkpt>
      <trkpt lat="43.51807" lon="6.72044">
        <ele>272.476776</ele>
        <time>2010-06-27T10:02:53Z</time>
      </trkpt>
      <trkpt lat="43.51805" lon="6.72037">
        <ele>273.889862</ele>
        <time>2010-06-27T10:02:56Z</time>
      </trkpt>
      <trkpt lat="43.51805" lon="6.72033">
        <ele>275.075439</ele>
        <time>2010-06-27T10:02:58Z</time>
      </trkpt>
      <trkpt lat="43.51798" lon="6.7202">
        <ele>277.094757</ele>
        <time>2010-06-27T10:03:05Z</time>
      </trkpt>
      <trkpt lat="43.51794" lon="6.72001">
        <ele>280.729248</ele>
        <time>2010-06-27T10:03:12Z</time>
      </trkpt>
      <trkpt lat="43.51792" lon="6.71992">
        <ele>282.292572</ele>
        <time>2010-06-27T10:03:16Z</time>
      </trkpt>
      <trkpt lat="43.51779" lon="6.71971">
        <ele>283.974426</ele>
        <time>2010-06-27T10:03:30Z</time>
      </trkpt>
      <trkpt lat="43.5177" lon="6.7196">
        <ele>284.100006</ele>
        <time>2010-06-27T10:03:37Z</time>
      </trkpt>
      <trkpt lat="43.51768" lon="6.71958">
        <ele>283.982025</ele>
        <time>2010-06-27T10:03:39Z</time>
      </trkpt>
      <trkpt lat="43.51766" lon="6.71953">
        <ele>284.461487</ele>
        <time>2010-06-27T10:03:42Z</time>
      </trkpt>
      <trkpt lat="43.51755" lon="6.71938">
        <ele>285.648621</ele>
        <time>2010-06-27T10:03:53Z</time>
      </trkpt>
      <trkpt lat="43.51747" lon="6.71934">
        <ele>285.8909</ele>
        <time>2010-06-27T10:03:59Z</time>
      </trkpt>
      <trkpt lat="43.51738" lon="6.71928">
        <ele>286.826843</ele>
        <time>2010-06-27T10:04:05Z</time>
      </trkpt>
      <trkpt lat="43.51732" lon="6.71923">
        <ele>286.766846</ele>
        <time>2010-06-27T10:04:10Z</time>
      </trkpt>
      <trkpt lat="43.51732" lon="6.71923">
        <ele>286.766846</ele>
        <time>2010-06-27T10:04:12Z</time>
      </trkpt>
      <trkpt lat="43.5173" lon="6.71926">
        <ele>286.440002</ele>
        <time>2010-06-27T10:04:18Z</time>
      </trkpt>
      <trkpt lat="43.5173" lon="6.71928">
        <ele>285.851349</ele>
        <time>2010-06-27T10:04:20Z</time>
      </trkpt>
      <trkpt lat="43.5173" lon="6.7193">
        <ele>285.190247</ele>
        <time>2010-06-27T10:04:58Z</time>
      </trkpt>
      <trkpt lat="43.5173" lon="6.71934">
        <ele>283.868866</ele>
        <time>2010-06-27T10:11:58Z</time>
      </trkpt>
      <trkpt lat="43.5173" lon="6.71934">
        <ele>283.868866</ele>
        <time>2010-06-27T10:12:35Z</time>
      </trkpt>
      <trkpt lat="43.51727" lon="6.71932">
        <ele>284.277679</ele>
        <time>2010-06-27T10:12:40Z</time>
      </trkpt>
      <trkpt lat="43.51727" lon="6.7193">
        <ele>284.941803</ele>
        <time>2010-06-27T10:12:42Z</time>
      </trkpt>
      <trkpt lat="43.51725" lon="6.7193">
        <ele>284.692841</ele>
        <time>2010-06-27T10:12:46Z</time>
      </trkpt>
      <trkpt lat="43.51723" lon="6.71926">
        <ele>285.785645</ele>
        <time>2010-06-27T10:13:10Z</time>
      </trkpt>
      <trkpt lat="43.51719" lon="6.71919">
        <ele>285.617188</ele>
        <time>2010-06-27T10:13:13Z</time>
      </trkpt>
      <trkpt lat="43.51706" lon="6.71908">
        <ele>285.20639</ele>
        <time>2010-06-27T10:13:18Z</time>
      </trkpt>
      <trkpt lat="43.51697" lon="6.71904">
        <ele>285.193695</ele>
        <time>2010-06-27T10:13:21Z</time>
      </trkpt>
      <trkpt lat="43.517" lon="6.71878">
        <ele>285.471954</ele>
        <time>2010-06-27T10:13:27Z</time>
      </trkpt>
      <trkpt lat="43.517" lon="6.71874">
        <ele>285.513672</ele>
        <time>2010-06-27T10:13:28Z</time>
      </trkpt>
      <trkpt lat="43.51697" lon="6.71861">
        <ele>285.542236</ele>
        <time>2010-06-27T10:13:31Z</time>
      </trkpt>
      <trkpt lat="43.51695" lon="6.71853">
        <ele>284.476105</ele>
        <time>2010-06-27T10:13:33Z</time>
      </trkpt>
      <trkpt lat="43.51693" lon="6.7184">
        <ele>282.830505</ele>
        <time>2010-06-27T10:13:36Z</time>
      </trkpt>
      <trkpt lat="43.51693" lon="6.71831">
        <ele>281.757263</ele>
        <time>2010-06-27T10:13:38Z</time>
      </trkpt>
      <trkpt lat="43.51693" lon="6.71823">
        <ele>280.677551</ele>
        <time>2010-06-27T10:13:40Z</time>
      </trkpt>
      <trkpt lat="43.51693" lon="6.7182">
        <ele>280.406647</ele>
        <time>2010-06-27T10:13:41Z</time>
      </trkpt>
      <trkpt lat="43.51695" lon="6.71801">
        <ele>278.116699</ele>
        <time>2010-06-27T10:13:46Z</time>
      </trkpt>
      <trkpt lat="43.51697" lon="6.71797">
        <ele>277.804535</ele>
        <time>2010-06-27T10:13:47Z</time>
      </trkpt>
      <trkpt lat="43.517" lon="6.71773">
        <ele>275.557892</ele>
        <time>2010-06-27T10:13:53Z</time>
      </trkpt>
      <trkpt lat="43.51704" lon="6.71756">
        <ele>274.538666</ele>
        <time>2010-06-27T10:13:59Z</time>
      </trkpt>
      <trkpt lat="43.51715" lon="6.71687">
        <ele>273.237213</ele>
        <time>2010-06-27T10:14:23Z</time>
      </trkpt>
      <trkpt lat="43.51723" lon="6.71655">
        <ele>274.019775</ele>
        <time>2010-06-27T10:14:35Z</time>
      </trkpt>
      <trkpt lat="43.51738" lon="6.71619">
        <ele>276.680725</ele>
        <time>2010-06-27T10:14:49Z</time>
      </trkpt>
      <trkpt lat="43.5174" lon="6.7161">
        <ele>276.202606</ele>
        <time>2010-06-27T10:14:52Z</time>
      </trkpt>
      <trkpt lat="43.51749" lon="6.71591">
        <ele>276.242462</ele>
        <time>2010-06-27T10:14:59Z</time>
      </trkpt>
      <trkpt lat="43.5177" lon="6.7155">
        <ele>277.188873</ele>
        <time>2010-06-27T10:15:20Z</time>
      </trkpt>
      <trkpt lat="43.5177" lon="6.71552">
        <ele>277.632446</ele>
        <time>2010-06-27T10:15:40Z</time>
      </trkpt>
      <trkpt lat="43.51777" lon="6.71548">
        <ele>278.948151</ele>
        <time>2010-06-27T10:15:43Z</time>
      </trkpt>
      <trkpt lat="43.5179" lon="6.71533">
        <ele>279.669037</ele>
        <time>2010-06-27T10:15:52Z</time>
      </trkpt>
      <trkpt lat="43.51792" lon="6.71531">
        <ele>279.817108</ele>
        <time>2010-06-27T10:15:53Z</time>
      </trkpt>
      <trkpt lat="43.51803" lon="6.71522">
        <ele>280.879822</ele>
        <time>2010-06-27T10:15:59Z</time>
      </trkpt>
      <trkpt lat="43.51815" lon="6.71514">
        <ele>282.236542</ele>
        <time>2010-06-27T10:16:05Z</time>
      </trkpt>
      <trkpt lat="43.51818" lon="6.71511">
        <ele>282.23877</ele>
        <time>2010-06-27T10:16:07Z</time>
      </trkpt>
      <trkpt lat="43.51826" lon="6.71507">
        <ele>283.054688</ele>
        <time>2010-06-27T10:16:11Z</time>
      </trkpt>
      <trkpt lat="43.51837" lon="6.71499">
        <ele>282.846222</ele>
        <time>2010-06-27T10:16:17Z</time>
      </trkpt>
      <trkpt lat="43.5185" lon="6.7149">
        <ele>283.108704</ele>
        <time>2010-06-27T10:16:23Z</time>
      </trkpt>
      <trkpt lat="43.51861" lon="6.71481">
        <ele>283.006653</ele>
        <time>2010-06-27T10:16:29Z</time>
      </trkpt>
      <trkpt lat="43.51925" lon="6.71458">
        <ele>285.622772</ele>
        <time>2010-06-27T10:17:00Z</time>
      </trkpt>
      <trkpt lat="43.51946" lon="6.71453">
        <ele>286.667023</ele>
        <time>2010-06-27T10:17:10Z</time>
      </trkpt>
      <trkpt lat="43.51957" lon="6.71443">
        <ele>287.50116</ele>
        <time>2010-06-27T10:17:17Z</time>
      </trkpt>
      <trkpt lat="43.51959" lon="6.71443">
        <ele>287.73056</ele>
        <time>2010-06-27T10:17:33Z</time>
      </trkpt>
      <trkpt lat="43.51957" lon="6.71443">
        <ele>287.50116</ele>
        <time>2010-06-27T10:17:59Z</time>
      </trkpt>
      <trkpt lat="43.51955" lon="6.71438">
        <ele>287.621002</ele>
        <time>2010-06-27T10:18:01Z</time>
      </trkpt>
      <trkpt lat="43.51951" lon="6.71426">
        <ele>288.016113</ele>
        <time>2010-06-27T10:18:05Z</time>
      </trkpt>
      <trkpt lat="43.51944" lon="6.71415">
        <ele>287.41098</ele>
        <time>2010-06-27T10:18:08Z</time>
      </trkpt>
      <trkpt lat="43.5194" lon="6.71408">
        <ele>286.726379</ele>
        <time>2010-06-27T10:18:10Z</time>
      </trkpt>
      <trkpt lat="43.5191" lon="6.71365">
        <ele>280.62677</ele>
        <time>2010-06-27T10:18:21Z</time>
      </trkpt>
      <trkpt lat="43.51884" lon="6.7132">
        <ele>277.173004</ele>
        <time>2010-06-27T10:18:32Z</time>
      </trkpt>
      <trkpt lat="43.5188" lon="6.71312">
        <ele>276.395203</ele>
        <time>2010-06-27T10:18:35Z</time>
      </trkpt>
      <trkpt lat="43.51873" lon="6.71297">
        <ele>275.113495</ele>
        <time>2010-06-27T10:18:40Z</time>
      </trkpt>
      <trkpt lat="43.51865" lon="6.71275">
        <ele>273.178009</ele>
        <time>2010-06-27T10:18:47Z</time>
      </trkpt>
      <trkpt lat="43.51856" lon="6.71239">
        <ele>273.860687</ele>
        <time>2010-06-27T10:18:58Z</time>
      </trkpt>
      <trkpt lat="43.5185" lon="6.7122">
        <ele>274.219208</ele>
        <time>2010-06-27T10:19:04Z</time>
      </trkpt>
      <trkpt lat="43.5182" lon="6.71166">
        <ele>267.908295</ele>
        <time>2010-06-27T10:19:22Z</time>
      </trkpt>
      <trkpt lat="43.5182" lon="6.71166">
        <ele>267.908295</ele>
        <time>2010-06-27T10:19:23Z</time>
      </trkpt>
      <trkpt lat="43.5182" lon="6.71157">
        <ele>268.518341</ele>
        <time>2010-06-27T10:19:26Z</time>
      </trkpt>
      <trkpt lat="43.51818" lon="6.71155">
        <ele>267.838898</ele>
        <time>2010-06-27T10:19:27Z</time>
      </trkpt>
      <trkpt lat="43.51818" lon="6.71153">
        <ele>267.987183</ele>
        <time>2010-06-27T10:19:28Z</time>
      </trkpt>
      <trkpt lat="43.51815" lon="6.71147">
        <ele>267.586426</ele>
        <time>2010-06-27T10:19:33Z</time>
      </trkpt>
      <trkpt lat="43.51813" lon="6.71142">
        <ele>267.023895</ele>
        <time>2010-06-27T10:19:38Z</time>
      </trkpt>
      <trkpt lat="43.51811" lon="6.71138">
        <ele>266.447632</ele>
        <time>2010-06-27T10:19:41Z</time>
      </trkpt>
      <trkpt lat="43.51811" lon="6.71138">
        <ele>266.447632</ele>
        <time>2010-06-27T10:19:42Z</time>
      </trkpt>
      <trkpt lat="43.51809" lon="6.71127">
        <ele>266.226196</ele>
        <time>2010-06-27T10:19:46Z</time>
      </trkpt>
      <trkpt lat="43.51807" lon="6.71099">
        <ele>265.8125</ele>
        <time>2010-06-27T10:19:53Z</time>
      </trkpt>
      <trkpt lat="43.51807" lon="6.7108">
        <ele>266.123932</ele>
        <time>2010-06-27T10:19:59Z</time>
      </trkpt>
      <trkpt lat="43.51809" lon="6.71067">
        <ele>267.195068</ele>
        <time>2010-06-27T10:20:16Z</time>
      </trkpt>
      <trkpt lat="43.51809" lon="6.71063">
        <ele>267.264282</ele>
        <time>2010-06-27T10:20:23Z</time>
      </trkpt>
      <trkpt lat="43.51807" lon="6.71057">
        <ele>266.504608</ele>
        <time>2010-06-27T10:20:28Z</time>
      </trkpt>
      <trkpt lat="43.51809" lon="6.71046">
        <ele>267.541138</ele>
        <time>2010-06-27T10:20:37Z</time>
      </trkpt>
      <trkpt lat="43.51809" lon="6.71044">
        <ele>267.575745</ele>
        <time>2010-06-27T10:20:41Z</time>
      </trkpt>
      <trkpt lat="43.51809" lon="6.71039">
        <ele>267.644958</ele>
        <time>2010-06-27T10:20:46Z</time>
      </trkpt>
      <trkpt lat="43.51811" lon="6.71031">
        <ele>268.646881</ele>
        <time>2010-06-27T10:20:53Z</time>
      </trkpt>
      <trkpt lat="43.51813" lon="6.71029">
        <ele>269.545013</ele>
        <time>2010-06-27T10:20:59Z</time>
      </trkpt>
      <trkpt lat="43.51811" lon="6.71022">
        <ele>268.785339</ele>
        <time>2010-06-27T10:21:05Z</time>
      </trkpt>
      <trkpt lat="43.51811" lon="6.71018">
        <ele>268.854553</ele>
        <time>2010-06-27T10:21:10Z</time>
      </trkpt>
      <trkpt lat="43.51811" lon="6.71011">
        <ele>268.958374</ele>
        <time>2010-06-27T10:21:17Z</time>
      </trkpt>
      <trkpt lat="43.51809" lon="6.71009">
        <ele>268.129486</ele>
        <time>2010-06-27T10:21:39Z</time>
      </trkpt>
      <trkpt lat="43.51813" lon="6.7099">
        <ele>270.760254</ele>
        <time>2010-06-27T10:22:19Z</time>
      </trkpt>
      <trkpt lat="43.51813" lon="6.7099">
        <ele>270.760254</ele>
        <time>2010-06-27T10:22:20Z</time>
      </trkpt>
      <trkpt lat="43.51813" lon="6.70986">
        <ele>271.008514</ele>
        <time>2010-06-27T10:22:24Z</time>
      </trkpt>
      <trkpt lat="43.51818" lon="6.70975">
        <ele>273.19455</ele>
        <time>2010-06-27T10:22:41Z</time>
      </trkpt>
      <trkpt lat="43.5182" lon="6.70971">
        <ele>274.187225</ele>
        <time>2010-06-27T10:22:59Z</time>
      </trkpt>
      <trkpt lat="43.51822" lon="6.70962">
        <ele>275.361938</ele>
        <time>2010-06-27T10:23:05Z</time>
      </trkpt>
      <trkpt lat="43.51824" lon="6.70956">
        <ele>276.391968</ele>
        <time>2010-06-27T10:23:11Z</time>
      </trkpt>
      <trkpt lat="43.51826" lon="6.70954">
        <ele>277.198914</ele>
        <time>2010-06-27T10:23:17Z</time>
      </trkpt>
      <trkpt lat="43.5183" lon="6.70945">
        <ele>278.934906</ele>
        <time>2010-06-27T10:23:54Z</time>
      </trkpt>
      <trkpt lat="43.51835" lon="6.70934">
        <ele>280.776062</ele>
        <time>2010-06-27T10:23:57Z</time>
      </trkpt>
      <trkpt lat="43.51833" lon="6.7093">
        <ele>280.510925</ele>
        <time>2010-06-27T10:23:59Z</time>
      </trkpt>
      <trkpt lat="43.51833" lon="6.70926">
        <ele>280.793732</ele>
        <time>2010-06-27T10:24:02Z</time>
      </trkpt>
      <trkpt lat="43.51833" lon="6.70923">
        <ele>280.938751</ele>
        <time>2010-06-27T10:24:04Z</time>
      </trkpt>
      <trkpt lat="43.51828" lon="6.70921">
        <ele>280.352173</ele>
        <time>2010-06-27T10:24:08Z</time>
      </trkpt>
      <trkpt lat="43.51826" lon="6.70917">
        <ele>280.458527</ele>
        <time>2010-06-27T10:24:21Z</time>
      </trkpt>
      <trkpt lat="43.51824" lon="6.70915">
        <ele>280.412903</ele>
        <time>2010-06-27T10:24:26Z</time>
      </trkpt>
      <trkpt lat="43.5182" lon="6.70917">
        <ele>279.487762</ele>
        <time>2010-06-27T10:24:29Z</time>
      </trkpt>
      <trkpt lat="43.51783" lon="6.70932">
        <ele>273.410919</ele>
        <time>2010-06-27T10:24:59Z</time>
      </trkpt>
      <trkpt lat="43.51749" lon="6.70947">
        <ele>272.98172</ele>
        <time>2010-06-27T10:25:06Z</time>
      </trkpt>
      <trkpt lat="43.51743" lon="6.70943">
        <ele>275.4646</ele>
        <time>2010-06-27T10:25:10Z</time>
      </trkpt>
      <trkpt lat="43.5173" lon="6.70936">
        <ele>279.887909</ele>
        <time>2010-06-27T10:25:12Z</time>
      </trkpt>
      <trkpt lat="43.51727" lon="6.70943">
        <ele>278.915863</ele>
        <time>2010-06-27T10:25:15Z</time>
      </trkpt>
      <trkpt lat="43.51732" lon="6.70943">
        <ele>277.928528</ele>
        <time>2010-06-27T10:25:38Z</time>
      </trkpt>
      <trkpt lat="43.51734" lon="6.70947">
        <ele>276.450714</ele>
        <time>2010-06-27T10:26:47Z</time>
      </trkpt>
      <trkpt lat="43.51734" lon="6.70945">
        <ele>276.943054</ele>
        <time>2010-06-27T10:26:54Z</time>
      </trkpt>
      <trkpt lat="43.51725" lon="6.70949">
        <ele>277.952728</ele>
        <time>2010-06-27T10:27:59Z</time>
      </trkpt>
      <trkpt lat="43.51717" lon="6.70954">
        <ele>278.99231</ele>
        <time>2010-06-27T10:28:05Z</time>
      </trkpt>
      <trkpt lat="43.51706" lon="6.70958">
        <ele>279.773804</ele>
        <time>2010-06-27T10:28:10Z</time>
      </trkpt>
      <trkpt lat="43.51695" lon="6.70947">
        <ele>279.611633</ele>
        <time>2010-06-27T10:28:15Z</time>
      </trkpt>
      <trkpt lat="43.51693" lon="6.70945">
        <ele>279.531494</ele>
        <time>2010-06-27T10:28:16Z</time>
      </trkpt>
      <trkpt lat="43.51657" lon="6.70889">
        <ele>278.346497</ele>
        <time>2010-06-27T10:28:37Z</time>
      </trkpt>
      <trkpt lat="43.51648" lon="6.7087">
        <ele>277.18515</ele>
        <time>2010-06-27T10:28:42Z</time>
      </trkpt>
      <trkpt lat="43.51624" lon="6.70814">
        <ele>272.202179</ele>
        <time>2010-06-27T10:28:56Z</time>
      </trkpt>
      <trkpt lat="43.51603" lon="6.7075">
        <ele>271.037781</ele>
        <time>2010-06-27T10:29:11Z</time>
      </trkpt>
      <trkpt lat="43.51601" lon="6.7073">
        <ele>272.990936</ele>
        <time>2010-06-27T10:29:16Z</time>
      </trkpt>
      <trkpt lat="43.51601" lon="6.70707">
        <ele>276.962036</ele>
        <time>2010-06-27T10:29:22Z</time>
      </trkpt>
      <trkpt lat="43.5159" lon="6.70692">
        <ele>277.625275</ele>
        <time>2010-06-27T10:29:30Z</time>
      </trkpt>
      <trkpt lat="43.51575" lon="6.70692">
        <ele>275.647644</ele>
        <time>2010-06-27T10:29:35Z</time>
      </trkpt>
      <trkpt lat="43.51547" lon="6.70696">
        <ele>272.437408</ele>
        <time>2010-06-27T10:29:45Z</time>
      </trkpt>
      <trkpt lat="43.51543" lon="6.70696">
        <ele>272.119812</ele>
        <time>2010-06-27T10:29:46Z</time>
      </trkpt>
      <trkpt lat="43.5153" lon="6.70683">
        <ele>272.504944</ele>
        <time>2010-06-27T10:29:50Z</time>
      </trkpt>
      <trkpt lat="43.51524" lon="6.70668">
        <ele>272.691925</ele>
        <time>2010-06-27T10:29:54Z</time>
      </trkpt>
      <trkpt lat="43.51506" lon="6.70569">
        <ele>274.393158</ele>
        <time>2010-06-27T10:30:20Z</time>
      </trkpt>
      <trkpt lat="43.515" lon="6.70544">
        <ele>273.186279</ele>
        <time>2010-06-27T10:30:36Z</time>
      </trkpt>
      <trkpt lat="43.515" lon="6.70516">
        <ele>272.694336</ele>
        <time>2010-06-27T10:31:43Z</time>
      </trkpt>
      <trkpt lat="43.51502" lon="6.70484">
        <ele>272.695496</ele>
        <time>2010-06-27T10:31:52Z</time>
      </trkpt>
      <trkpt lat="43.51517" lon="6.70439">
        <ele>269.790375</ele>
        <time>2010-06-27T10:32:04Z</time>
      </trkpt>
      <trkpt lat="43.51526" lon="6.7043">
        <ele>270.478821</ele>
        <time>2010-06-27T10:32:07Z</time>
      </trkpt>
      <trkpt lat="43.51545" lon="6.70415">
        <ele>271.385284</ele>
        <time>2010-06-27T10:32:13Z</time>
      </trkpt>
      <trkpt lat="43.51601" lon="6.70385">
        <ele>274.168549</ele>
        <time>2010-06-27T10:32:31Z</time>
      </trkpt>
      <trkpt lat="43.51627" lon="6.70376">
        <ele>279.824402</ele>
        <time>2010-06-27T10:32:46Z</time>
      </trkpt>
      <trkpt lat="43.51642" lon="6.70363">
        <ele>283.432831</ele>
        <time>2010-06-27T10:32:58Z</time>
      </trkpt>
      <trkpt lat="43.51652" lon="6.70325">
        <ele>286.324768</ele>
        <time>2010-06-27T10:33:16Z</time>
      </trkpt>
      <trkpt lat="43.51655" lon="6.70308">
        <ele>286.579834</ele>
        <time>2010-06-27T10:33:22Z</time>
      </trkpt>
      <trkpt lat="43.51652" lon="6.70293">
        <ele>285.411591</ele>
        <time>2010-06-27T10:33:28Z</time>
      </trkpt>
      <trkpt lat="43.51652" lon="6.70288">
        <ele>285.406616</ele>
        <time>2010-06-27T10:33:29Z</time>
      </trkpt>
      <trkpt lat="43.51637" lon="6.70256">
        <ele>279.618988</ele>
        <time>2010-06-27T10:33:42Z</time>
      </trkpt>
      <trkpt lat="43.51607" lon="6.70237">
        <ele>272.79364</ele>
        <time>2010-06-27T10:34:28Z</time>
      </trkpt>
      <trkpt lat="43.51605" lon="6.70239">
        <ele>271.397797</ele>
        <time>2010-06-27T10:35:59Z</time>
      </trkpt>
      <trkpt lat="43.51605" lon="6.70237">
        <ele>272.028107</ele>
        <time>2010-06-27T10:36:12Z</time>
      </trkpt>
      <trkpt lat="43.51605" lon="6.70256">
        <ele>267.860748</ele>
        <time>2010-06-27T10:36:31Z</time>
      </trkpt>
      <trkpt lat="43.51601" lon="6.70248">
        <ele>267.540436</ele>
        <time>2010-06-27T10:36:34Z</time>
      </trkpt>
      <trkpt lat="43.51597" lon="6.70245">
        <ele>266.443878</ele>
        <time>2010-06-27T10:36:37Z</time>
      </trkpt>
      <trkpt lat="43.51588" lon="6.70233">
        <ele>267.099762</ele>
        <time>2010-06-27T10:36:42Z</time>
      </trkpt>
      <trkpt lat="43.51571" lon="6.70207">
        <ele>268.171814</ele>
        <time>2010-06-27T10:36:51Z</time>
      </trkpt>
      <trkpt lat="43.51554" lon="6.70185">
        <ele>267.99588</ele>
        <time>2010-06-27T10:36:58Z</time>
      </trkpt>
      <trkpt lat="43.51545" lon="6.70162">
        <ele>266.736633</ele>
        <time>2010-06-27T10:37:04Z</time>
      </trkpt>
      <trkpt lat="43.51552" lon="6.70142">
        <ele>268.845306</ele>
        <time>2010-06-27T10:37:08Z</time>
      </trkpt>
      <trkpt lat="43.51558" lon="6.70134">
        <ele>270.813477</ele>
        <time>2010-06-27T10:37:10Z</time>
      </trkpt>
      <trkpt lat="43.51607" lon="6.70082">
        <ele>273.255646</ele>
        <time>2010-06-27T10:37:24Z</time>
      </trkpt>
      <trkpt lat="43.51663" lon="6.7005">
        <ele>273.05191</ele>
        <time>2010-06-27T10:37:40Z</time>
      </trkpt>
      <trkpt lat="43.51691" lon="6.70014">
        <ele>275.844116</ele>
        <time>2010-06-27T10:37:53Z</time>
      </trkpt>
      <trkpt lat="43.51691" lon="6.70007">
        <ele>275.034302</ele>
        <time>2010-06-27T10:37:56Z</time>
      </trkpt>
      <trkpt lat="43.51689" lon="6.70005">
        <ele>274.010803</ele>
        <time>2010-06-27T10:37:57Z</time>
      </trkpt>
      <trkpt lat="43.51689" lon="6.70001">
        <ele>274.268707</ele>
        <time>2010-06-27T10:37:59Z</time>
      </trkpt>
      <trkpt lat="43.51687" lon="6.6999">
        <ele>274.028595</ele>
        <time>2010-06-27T10:38:05Z</time>
      </trkpt>
      <trkpt lat="43.51687" lon="6.69984">
        <ele>274.407501</ele>
        <time>2010-06-27T10:38:10Z</time>
      </trkpt>
      <trkpt lat="43.51689" lon="6.69969">
        <ele>276.185852</ele>
        <time>2010-06-27T10:38:22Z</time>
      </trkpt>
      <trkpt lat="43.51689" lon="6.69962">
        <ele>276.565704</ele>
        <time>2010-06-27T10:38:28Z</time>
      </trkpt>
      <trkpt lat="43.51689" lon="6.69947">
        <ele>277.447266</ele>
        <time>2010-06-27T10:38:40Z</time>
      </trkpt>
      <trkpt lat="43.51689" lon="6.69941">
        <ele>278.114502</ele>
        <time>2010-06-27T10:38:44Z</time>
      </trkpt>
      <trkpt lat="43.51689" lon="6.69939">
        <ele>278.447693</ele>
        <time>2010-06-27T10:38:45Z</time>
      </trkpt>
      <trkpt lat="43.51687" lon="6.69934">
        <ele>278.172424</ele>
        <time>2010-06-27T10:38:48Z</time>
      </trkpt>
      <trkpt lat="43.51685" lon="6.69928">
        <ele>278.219482</ele>
        <time>2010-06-27T10:38:53Z</time>
      </trkpt>
      <trkpt lat="43.51682" lon="6.69919">
        <ele>278.582733</ele>
        <time>2010-06-27T10:38:58Z</time>
      </trkpt>
      <trkpt lat="43.5167" lon="6.69898">
        <ele>276.038361</ele>
        <time>2010-06-27T10:39:17Z</time>
      </trkpt>
      <trkpt lat="43.51667" lon="6.69896">
        <ele>275.385376</ele>
        <time>2010-06-27T10:39:20Z</time>
      </trkpt>
      <trkpt lat="43.51665" lon="6.69891">
        <ele>275.04129</ele>
        <time>2010-06-27T10:39:24Z</time>
      </trkpt>
      <trkpt lat="43.51661" lon="6.69885">
        <ele>274.077515</ele>
        <time>2010-06-27T10:39:28Z</time>
      </trkpt>
      <trkpt lat="43.51657" lon="6.69878">
        <ele>274.046021</ele>
        <time>2010-06-27T10:39:35Z</time>
      </trkpt>
      <trkpt lat="43.5165" lon="6.69874">
        <ele>273.660919</ele>
        <time>2010-06-27T10:39:41Z</time>
      </trkpt>
      <trkpt lat="43.51648" lon="6.69872">
        <ele>273.775696</ele>
        <time>2010-06-27T10:39:43Z</time>
      </trkpt>
      <trkpt lat="43.51646" lon="6.69868">
        <ele>274.633728</ele>
        <time>2010-06-27T10:39:47Z</time>
      </trkpt>
      <trkpt lat="43.51644" lon="6.69866">
        <ele>274.732208</ele>
        <time>2010-06-27T10:39:50Z</time>
      </trkpt>
      <trkpt lat="43.51642" lon="6.69863">
        <ele>274.82431</ele>
        <time>2010-06-27T10:39:52Z</time>
      </trkpt>
      <trkpt lat="43.5164" lon="6.69861">
        <ele>274.910065</ele>
        <time>2010-06-27T10:39:55Z</time>
      </trkpt>
      <trkpt lat="43.51637" lon="6.69857">
        <ele>275.724579</ele>
        <time>2010-06-27T10:39:58Z</time>
      </trkpt>
      <trkpt lat="43.51631" lon="6.69853">
        <ele>275.189484</ele>
        <time>2010-06-27T10:40:04Z</time>
      </trkpt>
      <trkpt lat="43.51631" lon="6.69853">
        <ele>275.189484</ele>
        <time>2010-06-27T10:40:05Z</time>
      </trkpt>
      <trkpt lat="43.51627" lon="6.69851">
        <ele>274.573456</ele>
        <time>2010-06-27T10:40:11Z</time>
      </trkpt>
      <trkpt lat="43.51624" lon="6.69848">
        <ele>274.618286</ele>
        <time>2010-06-27T10:40:16Z</time>
      </trkpt>
      <trkpt lat="43.5162" lon="6.69844">
        <ele>274.688812</ele>
        <time>2010-06-27T10:40:23Z</time>
      </trkpt>
      <trkpt lat="43.51616" lon="6.69842">
        <ele>273.966766</ele>
        <time>2010-06-27T10:40:35Z</time>
      </trkpt>
      <trkpt lat="43.51614" lon="6.69836">
        <ele>275.217865</ele>
        <time>2010-06-27T10:40:41Z</time>
      </trkpt>
      <trkpt lat="43.51609" lon="6.69831">
        <ele>274.892365</ele>
        <time>2010-06-27T10:40:46Z</time>
      </trkpt>
      <trkpt lat="43.51609" lon="6.69821">
        <ele>278.016876</ele>
        <time>2010-06-27T10:40:53Z</time>
      </trkpt>
      <trkpt lat="43.51609" lon="6.69816">
        <ele>279.257294</ele>
        <time>2010-06-27T10:40:58Z</time>
      </trkpt>
      <trkpt lat="43.51609" lon="6.69812">
        <ele>280.101837</ele>
        <time>2010-06-27T10:41:01Z</time>
      </trkpt>
      <trkpt lat="43.51609" lon="6.69808">
        <ele>280.498932</ele>
        <time>2010-06-27T10:41:06Z</time>
      </trkpt>
      <trkpt lat="43.51609" lon="6.69801">
        <ele>281.093597</ele>
        <time>2010-06-27T10:41:11Z</time>
      </trkpt>
      <trkpt lat="43.51609" lon="6.69793">
        <ele>281.884583</ele>
        <time>2010-06-27T10:41:17Z</time>
      </trkpt>
      <trkpt lat="43.51612" lon="6.6976">
        <ele>285.796906</ele>
        <time>2010-06-27T10:41:43Z</time>
      </trkpt>
      <trkpt lat="43.51612" lon="6.69758">
        <ele>285.993958</ele>
        <time>2010-06-27T10:41:46Z</time>
      </trkpt>
      <trkpt lat="43.51612" lon="6.6975">
        <ele>286.602295</ele>
        <time>2010-06-27T10:41:53Z</time>
      </trkpt>
      <trkpt lat="43.51612" lon="6.69743">
        <ele>286.743378</ele>
        <time>2010-06-27T10:41:59Z</time>
      </trkpt>
      <trkpt lat="43.51612" lon="6.69737">
        <ele>286.886871</ele>
        <time>2010-06-27T10:42:04Z</time>
      </trkpt>
      <trkpt lat="43.51612" lon="6.69728">
        <ele>287.08194</ele>
        <time>2010-06-27T10:42:11Z</time>
      </trkpt>
      <trkpt lat="43.51612" lon="6.69722">
        <ele>287.231049</ele>
        <time>2010-06-27T10:42:17Z</time>
      </trkpt>
      <trkpt lat="43.51612" lon="6.69718">
        <ele>287.331787</ele>
        <time>2010-06-27T10:42:21Z</time>
      </trkpt>
      <trkpt lat="43.51612" lon="6.69715">
        <ele>287.382568</ele>
        <time>2010-06-27T10:42:22Z</time>
      </trkpt>
      <trkpt lat="43.51614" lon="6.69709">
        <ele>288.429688</ele>
        <time>2010-06-27T10:42:28Z</time>
      </trkpt>
      <trkpt lat="43.51614" lon="6.69705">
        <ele>288.527039</ele>
        <time>2010-06-27T10:42:34Z</time>
      </trkpt>
      <trkpt lat="43.51616" lon="6.69698">
        <ele>289.5513</ele>
        <time>2010-06-27T10:42:41Z</time>
      </trkpt>
      <trkpt lat="43.51618" lon="6.69696">
        <ele>290.470245</ele>
        <time>2010-06-27T10:42:53Z</time>
      </trkpt>
      <trkpt lat="43.51618" lon="6.69688">
        <ele>290.043671</ele>
        <time>2010-06-27T10:42:58Z</time>
      </trkpt>
      <trkpt lat="43.5162" lon="6.69688">
        <ele>290.870819</ele>
        <time>2010-06-27T10:42:59Z</time>
      </trkpt>
      <trkpt lat="43.51622" lon="6.69681">
        <ele>290.672455</ele>
        <time>2010-06-27T10:43:04Z</time>
      </trkpt>
      <trkpt lat="43.51624" lon="6.69677">
        <ele>290.792206</ele>
        <time>2010-06-27T10:43:09Z</time>
      </trkpt>
      <trkpt lat="43.51627" lon="6.69677">
        <ele>291.344757</ele>
        <time>2010-06-27T10:43:10Z</time>
      </trkpt>
      <trkpt lat="43.51635" lon="6.69672">
        <ele>292.675079</ele>
        <time>2010-06-27T10:43:22Z</time>
      </trkpt>
      <trkpt lat="43.5164" lon="6.69672">
        <ele>293.673889</ele>
        <time>2010-06-27T10:43:29Z</time>
      </trkpt>
      <trkpt lat="43.51659" lon="6.69664">
        <ele>296.138489</ele>
        <time>2010-06-27T10:43:47Z</time>
      </trkpt>
      <trkpt lat="43.51665" lon="6.69664">
        <ele>297.465729</ele>
        <time>2010-06-27T10:43:53Z</time>
      </trkpt>
      <trkpt lat="43.5167" lon="6.69662">
        <ele>297.806763</ele>
        <time>2010-06-27T10:43:59Z</time>
      </trkpt>
      <trkpt lat="43.51676" lon="6.69662">
        <ele>299.092529</ele>
        <time>2010-06-27T10:44:05Z</time>
      </trkpt>
      <trkpt lat="43.51678" lon="6.69662">
        <ele>299.519501</ele>
        <time>2010-06-27T10:44:10Z</time>
      </trkpt>
      <trkpt lat="43.51685" lon="6.6966">
        <ele>300.211304</ele>
        <time>2010-06-27T10:44:18Z</time>
      </trkpt>
      <trkpt lat="43.51689" lon="6.6966">
        <ele>301.042969</ele>
        <time>2010-06-27T10:44:22Z</time>
      </trkpt>
      <trkpt lat="43.51695" lon="6.69655">
        <ele>301.052429</ele>
        <time>2010-06-27T10:44:29Z</time>
      </trkpt>
      <trkpt lat="43.51702" lon="6.69653">
        <ele>301.609467</ele>
        <time>2010-06-27T10:44:36Z</time>
      </trkpt>
      <trkpt lat="43.51704" lon="6.69653">
        <ele>301.997925</ele>
        <time>2010-06-27T10:44:39Z</time>
      </trkpt>
      <trkpt lat="43.51708" lon="6.69651">
        <ele>302.118347</ele>
        <time>2010-06-27T10:44:44Z</time>
      </trkpt>
      <trkpt lat="43.51708" lon="6.69651">
        <ele>302.118347</ele>
        <time>2010-06-27T10:44:45Z</time>
      </trkpt>
      <trkpt lat="43.5171" lon="6.69649">
        <ele>301.837646</ele>
        <time>2010-06-27T10:44:47Z</time>
      </trkpt>
      <trkpt lat="43.51712" lon="6.69649">
        <ele>302.208893</ele>
        <time>2010-06-27T10:44:50Z</time>
      </trkpt>
      <trkpt lat="43.51717" lon="6.69649">
        <ele>302.985657</ele>
        <time>2010-06-27T10:44:54Z</time>
      </trkpt>
      <trkpt lat="43.51727" lon="6.69642">
        <ele>303.131744</ele>
        <time>2010-06-27T10:45:11Z</time>
      </trkpt>
      <trkpt lat="43.51734" lon="6.6964">
        <ele>303.716461</ele>
        <time>2010-06-27T10:45:23Z</time>
      </trkpt>
      <trkpt lat="43.51738" lon="6.6964">
        <ele>304.572601</ele>
        <time>2010-06-27T10:45:28Z</time>
      </trkpt>
      <trkpt lat="43.51743" lon="6.6964">
        <ele>305.42572</ele>
        <time>2010-06-27T10:45:35Z</time>
      </trkpt>
      <trkpt lat="43.51745" lon="6.6964">
        <ele>305.851135</ele>
        <time>2010-06-27T10:45:39Z</time>
      </trkpt>
      <trkpt lat="43.51745" lon="6.6964">
        <ele>305.851135</ele>
        <time>2010-06-27T10:45:40Z</time>
      </trkpt>
      <trkpt lat="43.51753" lon="6.69647">
        <ele>309.839935</ele>
        <time>2010-06-27T10:46:04Z</time>
      </trkpt>
      <trkpt lat="43.51753" lon="6.69647">
        <ele>309.839935</ele>
        <time>2010-06-27T10:46:05Z</time>
      </trkpt>
      <trkpt lat="43.51758" lon="6.69647">
        <ele>310.712128</ele>
        <time>2010-06-27T10:46:11Z</time>
      </trkpt>
      <trkpt lat="43.51764" lon="6.69649">
        <ele>312.358185</ele>
        <time>2010-06-27T10:46:23Z</time>
      </trkpt>
      <trkpt lat="43.5177" lon="6.69653">
        <ele>314.297668</ele>
        <time>2010-06-27T10:46:35Z</time>
      </trkpt>
      <trkpt lat="43.51781" lon="6.69655">
        <ele>315.731079</ele>
        <time>2010-06-27T10:46:47Z</time>
      </trkpt>
      <trkpt lat="43.51788" lon="6.69655">
        <ele>316.128479</ele>
        <time>2010-06-27T10:46:53Z</time>
      </trkpt>
      <trkpt lat="43.51813" lon="6.6966">
        <ele>318.468018</ele>
        <time>2010-06-27T10:47:35Z</time>
      </trkpt>
      <trkpt lat="43.51813" lon="6.6966">
        <ele>318.468018</ele>
        <time>2010-06-27T10:47:41Z</time>
      </trkpt>
      <trkpt lat="43.51818" lon="6.69662">
        <ele>319.049652</ele>
        <time>2010-06-27T10:47:46Z</time>
      </trkpt>
      <trkpt lat="43.51822" lon="6.69664">
        <ele>319.619873</ele>
        <time>2010-06-27T10:47:53Z</time>
      </trkpt>
      <trkpt lat="43.51826" lon="6.69666">
        <ele>320.178619</ele>
        <time>2010-06-27T10:47:59Z</time>
      </trkpt>
      <trkpt lat="43.5183" lon="6.6967">
        <ele>321.448486</ele>
        <time>2010-06-27T10:48:05Z</time>
      </trkpt>
      <trkpt lat="43.51833" lon="6.69672">
        <ele>322.073883</ele>
        <time>2010-06-27T10:48:11Z</time>
      </trkpt>
      <trkpt lat="43.51839" lon="6.69677">
        <ele>323.203613</ele>
        <time>2010-06-27T10:48:23Z</time>
      </trkpt>
      <trkpt lat="43.51841" lon="6.69681">
        <ele>324.511841</ele>
        <time>2010-06-27T10:48:29Z</time>
      </trkpt>
      <trkpt lat="43.51835" lon="6.69679">
        <ele>324.122955</ele>
        <time>2010-06-27T10:48:34Z</time>
      </trkpt>
      <trkpt lat="43.51833" lon="6.69679">
        <ele>324.229218</ele>
        <time>2010-06-27T10:48:36Z</time>
      </trkpt>
      <trkpt lat="43.51828" lon="6.69679">
        <ele>324.443298</ele>
        <time>2010-06-27T10:48:40Z</time>
      </trkpt>
      <trkpt lat="43.51824" lon="6.69677">
        <ele>323.92804</ele>
        <time>2010-06-27T10:48:46Z</time>
      </trkpt>
      <trkpt lat="43.51818" lon="6.69679">
        <ele>324.987335</ele>
        <time>2010-06-27T10:48:53Z</time>
      </trkpt>
      <trkpt lat="43.518" lon="6.69672">
        <ele>323.091553</ele>
        <time>2010-06-27T10:49:11Z</time>
      </trkpt>
      <trkpt lat="43.51798" lon="6.69672">
        <ele>322.959076</ele>
        <time>2010-06-27T10:49:51Z</time>
      </trkpt>
      <trkpt lat="43.51796" lon="6.69677">
        <ele>324.368652</ele>
        <time>2010-06-27T10:49:54Z</time>
      </trkpt>
      <trkpt lat="43.51794" lon="6.69679">
        <ele>325.007233</ele>
        <time>2010-06-27T10:49:59Z</time>
      </trkpt>
      <trkpt lat="43.51796" lon="6.69681">
        <ele>325.910706</ele>
        <time>2010-06-27T10:50:46Z</time>
      </trkpt>
      <trkpt lat="43.518" lon="6.69683">
        <ele>326.946686</ele>
        <time>2010-06-27T10:51:24Z</time>
      </trkpt>
      <trkpt lat="43.51815" lon="6.6969">
        <ele>328.816498</ele>
        <time>2010-06-27T10:51:33Z</time>
      </trkpt>
      <trkpt lat="43.51818" lon="6.69692">
        <ele>329.429352</ele>
        <time>2010-06-27T10:51:34Z</time>
      </trkpt>
      <trkpt lat="43.51846" lon="6.69698">
        <ele>329.87262</ele>
        <time>2010-06-27T10:51:47Z</time>
      </trkpt>
      <trkpt lat="43.51856" lon="6.69705">
        <ele>331.2742</ele>
        <time>2010-06-27T10:51:53Z</time>
      </trkpt>
      <trkpt lat="43.51878" lon="6.6972">
        <ele>334.526581</ele>
        <time>2010-06-27T10:52:05Z</time>
      </trkpt>
      <trkpt lat="43.51886" lon="6.69724">
        <ele>335.215485</ele>
        <time>2010-06-27T10:52:09Z</time>
      </trkpt>
      <trkpt lat="43.51903" lon="6.69735">
        <ele>337.830292</ele>
        <time>2010-06-27T10:52:18Z</time>
      </trkpt>
      <trkpt lat="43.51908" lon="6.69737">
        <ele>338.39679</ele>
        <time>2010-06-27T10:52:20Z</time>
      </trkpt>
      <trkpt lat="43.51912" lon="6.69739">
        <ele>338.951843</ele>
        <time>2010-06-27T10:52:22Z</time>
      </trkpt>
      <trkpt lat="43.51925" lon="6.69743">
        <ele>339.93985</ele>
        <time>2010-06-27T10:52:29Z</time>
      </trkpt>
      <trkpt lat="43.51957" lon="6.6975">
        <ele>341.895203</ele>
        <time>2010-06-27T10:52:47Z</time>
      </trkpt>
      <trkpt lat="43.51966" lon="6.69748">
        <ele>341.59436</ele>
        <time>2010-06-27T10:52:53Z</time>
      </trkpt>
      <trkpt lat="43.51974" lon="6.69743">
        <ele>340.882507</ele>
        <time>2010-06-27T10:52:59Z</time>
      </trkpt>
      <trkpt lat="43.52009" lon="6.6975">
        <ele>343.787933</ele>
        <time>2010-06-27T10:53:17Z</time>
      </trkpt>
      <trkpt lat="43.52017" lon="6.6975">
        <ele>344.283875</ele>
        <time>2010-06-27T10:53:22Z</time>
      </trkpt>
      <trkpt lat="43.52019" lon="6.6975">
        <ele>344.414795</ele>
        <time>2010-06-27T10:53:23Z</time>
      </trkpt>
      <trkpt lat="43.52036" lon="6.69748">
        <ele>344.032043</ele>
        <time>2010-06-27T10:53:35Z</time>
      </trkpt>
      <trkpt lat="43.52039" lon="6.69745">
        <ele>343.879822</ele>
        <time>2010-06-27T10:53:53Z</time>
      </trkpt>
      <trkpt lat="43.52039" lon="6.69745">
        <ele>343.879822</ele>
        <time>2010-06-27T10:55:23Z</time>
      </trkpt>
      <trkpt lat="43.52039" lon="6.69737">
        <ele>343.941345</ele>
        <time>2010-06-27T10:55:28Z</time>
      </trkpt>
      <trkpt lat="43.52041" lon="6.69733">
        <ele>343.900452</ele>
        <time>2010-06-27T10:55:34Z</time>
      </trkpt>
      <trkpt lat="43.52043" lon="6.69724">
        <ele>343.989655</ele>
        <time>2010-06-27T10:55:41Z</time>
      </trkpt>
      <trkpt lat="43.52041" lon="6.69722">
        <ele>344.255981</ele>
        <time>2010-06-27T10:55:47Z</time>
      </trkpt>
      <trkpt lat="43.52043" lon="6.69715">
        <ele>345.57608</ele>
        <time>2010-06-27T10:55:53Z</time>
      </trkpt>
      <trkpt lat="43.52043" lon="6.69709">
        <ele>346.834351</ele>
        <time>2010-06-27T10:55:59Z</time>
      </trkpt>
      <trkpt lat="43.52041" lon="6.69696">
        <ele>349.000519</ele>
        <time>2010-06-27T10:56:23Z</time>
      </trkpt>
      <trkpt lat="43.52039" lon="6.69683">
        <ele>350.850128</ele>
        <time>2010-06-27T10:56:34Z</time>
      </trkpt>
      <trkpt lat="43.52039" lon="6.69677">
        <ele>351.901581</ele>
        <time>2010-06-27T10:56:40Z</time>
      </trkpt>
      <trkpt lat="43.52041" lon="6.69672">
        <ele>353.129822</ele>
        <time>2010-06-27T10:56:47Z</time>
      </trkpt>
      <trkpt lat="43.52041" lon="6.69666">
        <ele>354.219513</ele>
        <time>2010-06-27T10:56:52Z</time>
      </trkpt>
      <trkpt lat="43.52041" lon="6.69666">
        <ele>354.219513</ele>
        <time>2010-06-27T10:56:53Z</time>
      </trkpt>
      <trkpt lat="43.52043" lon="6.69662">
        <ele>355.58374</ele>
        <time>2010-06-27T10:56:58Z</time>
      </trkpt>
      <trkpt lat="43.52047" lon="6.69649">
        <ele>359.498688</ele>
        <time>2010-06-27T10:57:15Z</time>
      </trkpt>
      <trkpt lat="43.52047" lon="6.69649">
        <ele>359.498688</ele>
        <time>2010-06-27T10:57:17Z</time>
      </trkpt>
      <trkpt lat="43.52047" lon="6.69649">
        <ele>359.498688</ele>
        <time>2010-06-27T10:57:25Z</time>
      </trkpt>
      <trkpt lat="43.52047" lon="6.69645">
        <ele>360.359589</ele>
        <time>2010-06-27T10:57:30Z</time>
      </trkpt>
      <trkpt lat="43.52045" lon="6.69642">
        <ele>360.000061</ele>
        <time>2010-06-27T10:57:59Z</time>
      </trkpt>
      <trkpt lat="43.52045" lon="6.69638">
        <ele>360.824036</ele>
        <time>2010-06-27T10:58:05Z</time>
      </trkpt>
      <trkpt lat="43.52045" lon="6.69638">
        <ele>360.824036</ele>
        <time>2010-06-27T10:58:09Z</time>
      </trkpt>
      <trkpt lat="43.52045" lon="6.69638">
        <ele>360.824036</ele>
        <time>2010-06-27T10:58:10Z</time>
      </trkpt>
      <trkpt lat="43.52047" lon="6.69636">
        <ele>362.066956</ele>
        <time>2010-06-27T10:58:17Z</time>
      </trkpt>
      <trkpt lat="43.52047" lon="6.69634">
        <ele>362.490784</ele>
        <time>2010-06-27T10:58:23Z</time>
      </trkpt>
      <trkpt lat="43.52047" lon="6.6963">
        <ele>363.334839</ele>
        <time>2010-06-27T10:58:34Z</time>
      </trkpt>
      <trkpt lat="43.52045" lon="6.69625">
        <ele>363.267181</ele>
        <time>2010-06-27T10:58:47Z</time>
      </trkpt>
      <trkpt lat="43.52047" lon="6.69627">
        <ele>363.755066</ele>
        <time>2010-06-27T10:58:53Z</time>
      </trkpt>
      <trkpt lat="43.52049" lon="6.69625">
        <ele>365.083282</ele>
        <time>2010-06-27T10:58:59Z</time>
      </trkpt>
      <trkpt lat="43.52049" lon="6.69623">
        <ele>365.51593</ele>
        <time>2010-06-27T10:59:05Z</time>
      </trkpt>
      <trkpt lat="43.52049" lon="6.69621">
        <ele>365.947388</ele>
        <time>2010-06-27T10:59:11Z</time>
      </trkpt>
      <trkpt lat="43.52051" lon="6.69615">
        <ele>368.220215</ele>
        <time>2010-06-27T10:59:17Z</time>
      </trkpt>
      <trkpt lat="43.52051" lon="6.6961">
        <ele>369.10199</ele>
        <time>2010-06-27T10:59:23Z</time>
      </trkpt>
      <trkpt lat="43.52051" lon="6.69608">
        <ele>369.541077</ele>
        <time>2010-06-27T10:59:29Z</time>
      </trkpt>
      <trkpt lat="43.52054" lon="6.69604">
        <ele>371.477783</ele>
        <time>2010-06-27T10:59:34Z</time>
      </trkpt>
      <trkpt lat="43.52051" lon="6.69597">
        <ele>371.419952</ele>
        <time>2010-06-27T10:59:42Z</time>
      </trkpt>
      <trkpt lat="43.52051" lon="6.69595">
        <ele>371.634613</ele>
        <time>2010-06-27T10:59:44Z</time>
      </trkpt>
      <trkpt lat="43.52051" lon="6.69593">
        <ele>371.849091</ele>
        <time>2010-06-27T10:59:49Z</time>
      </trkpt>
      <trkpt lat="43.52051" lon="6.69593">
        <ele>371.849091</ele>
        <time>2010-06-27T10:59:53Z</time>
      </trkpt>
      <trkpt lat="43.52049" lon="6.69589">
        <ele>371.200439</ele>
        <time>2010-06-27T10:59:59Z</time>
      </trkpt>
      <trkpt lat="43.52047" lon="6.69589">
        <ele>370.123444</ele>
        <time>2010-06-27T11:00:05Z</time>
      </trkpt>
      <trkpt lat="43.52045" lon="6.69585">
        <ele>369.464874</ele>
        <time>2010-06-27T11:00:11Z</time>
      </trkpt>
      <trkpt lat="43.52043" lon="6.69582">
        <ele>368.592316</ele>
        <time>2010-06-27T11:01:00Z</time>
      </trkpt>
      <trkpt lat="43.52043" lon="6.69582">
        <ele>368.592316</ele>
        <time>2010-06-27T11:01:35Z</time>
      </trkpt>
      <trkpt lat="43.52045" lon="6.6958">
        <ele>369.882507</ele>
        <time>2010-06-27T11:01:41Z</time>
      </trkpt>
      <trkpt lat="43.52054" lon="6.69578">
        <ele>374.432617</ele>
        <time>2010-06-27T11:02:17Z</time>
      </trkpt>
      <trkpt lat="43.52051" lon="6.69572">
        <ele>373.986786</ele>
        <time>2010-06-27T11:02:22Z</time>
      </trkpt>
      <trkpt lat="43.52054" lon="6.69565">
        <ele>375.72113</ele>
        <time>2010-06-27T11:02:29Z</time>
      </trkpt>
      <trkpt lat="43.52054" lon="6.69563">
        <ele>375.935425</ele>
        <time>2010-06-27T11:02:32Z</time>
      </trkpt>
      <trkpt lat="43.52056" lon="6.69557">
        <ele>377.679962</ele>
        <time>2010-06-27T11:02:40Z</time>
      </trkpt>
      <trkpt lat="43.5206" lon="6.69554">
        <ele>380.104401</ele>
        <time>2010-06-27T11:02:47Z</time>
      </trkpt>
      <trkpt lat="43.52062" lon="6.69554">
        <ele>381.20932</ele>
        <time>2010-06-27T11:02:53Z</time>
      </trkpt>
      <trkpt lat="43.52062" lon="6.69552">
        <ele>381.429504</ele>
        <time>2010-06-27T11:03:17Z</time>
      </trkpt>
      <trkpt lat="43.52062" lon="6.6955">
        <ele>381.649597</ele>
        <time>2010-06-27T11:03:47Z</time>
      </trkpt>
      <trkpt lat="43.52062" lon="6.6955">
        <ele>381.649597</ele>
        <time>2010-06-27T11:03:53Z</time>
      </trkpt>
      <trkpt lat="43.52064" lon="6.6955">
        <ele>382.758057</ele>
        <time>2010-06-27T11:03:59Z</time>
      </trkpt>
      <trkpt lat="43.52067" lon="6.69552">
        <ele>383.643372</ele>
        <time>2010-06-27T11:04:05Z</time>
      </trkpt>
      <trkpt lat="43.52069" lon="6.6955">
        <ele>384.975708</ele>
        <time>2010-06-27T11:04:11Z</time>
      </trkpt>
      <trkpt lat="43.52071" lon="6.69554">
        <ele>385.631439</ele>
        <time>2010-06-27T11:04:17Z</time>
      </trkpt>
      <trkpt lat="43.52071" lon="6.69557">
        <ele>385.40451</ele>
        <time>2010-06-27T11:04:19Z</time>
      </trkpt>
      <trkpt lat="43.52071" lon="6.69557">
        <ele>385.40451</ele>
        <time>2010-06-27T11:04:23Z</time>
      </trkpt>
      <trkpt lat="43.52075" lon="6.69563">
        <ele>386.922272</ele>
        <time>2010-06-27T11:04:35Z</time>
      </trkpt>
      <trkpt lat="43.52075" lon="6.69565">
        <ele>386.691498</ele>
        <time>2010-06-27T11:04:41Z</time>
      </trkpt>
      <trkpt lat="43.52075" lon="6.69572">
        <ele>385.998352</ele>
        <time>2010-06-27T11:04:49Z</time>
      </trkpt>
      <trkpt lat="43.52075" lon="6.69572">
        <ele>385.998352</ele>
        <time>2010-06-27T11:04:59Z</time>
      </trkpt>
      <trkpt lat="43.52079" lon="6.69576">
        <ele>387.388123</ele>
        <time>2010-06-27T11:05:11Z</time>
      </trkpt>
      <trkpt lat="43.52088" lon="6.69589">
        <ele>384.378815</ele>
        <time>2010-06-27T11:05:29Z</time>
      </trkpt>
      <trkpt lat="43.5209" lon="6.69591">
        <ele>383.630554</ele>
        <time>2010-06-27T11:05:35Z</time>
      </trkpt>
      <trkpt lat="43.5209" lon="6.69591">
        <ele>383.630554</ele>
        <time>2010-06-27T11:07:05Z</time>
      </trkpt>
      <trkpt lat="43.52092" lon="6.6958">
        <ele>385.716888</ele>
        <time>2010-06-27T11:11:41Z</time>
      </trkpt>
      <trkpt lat="43.52094" lon="6.69576">
        <ele>386.556396</ele>
        <time>2010-06-27T11:11:45Z</time>
      </trkpt>
      <trkpt lat="43.52092" lon="6.69574">
        <ele>387.130341</ele>
        <time>2010-06-27T11:11:48Z</time>
      </trkpt>
      <trkpt lat="43.52092" lon="6.69567">
        <ele>388.522125</ele>
        <time>2010-06-27T11:11:53Z</time>
      </trkpt>
      <trkpt lat="43.52092" lon="6.69565">
        <ele>388.981262</ele>
        <time>2010-06-27T11:11:55Z</time>
      </trkpt>
      <trkpt lat="43.52097" lon="6.69561">
        <ele>390.10202</ele>
        <time>2010-06-27T11:12:02Z</time>
      </trkpt>
      <trkpt lat="43.52097" lon="6.69559">
        <ele>390.613281</ele>
        <time>2010-06-27T11:12:03Z</time>
      </trkpt>
      <trkpt lat="43.52099" lon="6.69557">
        <ele>391.293182</ele>
        <time>2010-06-27T11:12:06Z</time>
      </trkpt>
      <trkpt lat="43.52101" lon="6.69552">
        <ele>392.598022</ele>
        <time>2010-06-27T11:12:31Z</time>
      </trkpt>
      <trkpt lat="43.52101" lon="6.69552">
        <ele>392.598022</ele>
        <time>2010-06-27T11:12:53Z</time>
      </trkpt>
      <trkpt lat="43.52101" lon="6.6955">
        <ele>393.159027</ele>
        <time>2010-06-27T11:12:56Z</time>
      </trkpt>
      <trkpt lat="43.52103" lon="6.69548">
        <ele>394.01651</ele>
        <time>2010-06-27T11:12:58Z</time>
      </trkpt>
      <trkpt lat="43.52105" lon="6.69544">
        <ele>395.548645</ele>
        <time>2010-06-27T11:13:04Z</time>
      </trkpt>
      <trkpt lat="43.52107" lon="6.69542">
        <ele>396.351532</ele>
        <time>2010-06-27T11:13:11Z</time>
      </trkpt>
      <trkpt lat="43.52109" lon="6.69542">
        <ele>396.7164</ele>
        <time>2010-06-27T11:13:14Z</time>
      </trkpt>
      <trkpt lat="43.52112" lon="6.69544">
        <ele>396.664185</ele>
        <time>2010-06-27T11:13:16Z</time>
      </trkpt>
      <trkpt lat="43.52114" lon="6.69544">
        <ele>397.045135</ele>
        <time>2010-06-27T11:13:23Z</time>
      </trkpt>
      <trkpt lat="43.52116" lon="6.69544">
        <ele>397.430603</ele>
        <time>2010-06-27T11:13:29Z</time>
      </trkpt>
      <trkpt lat="43.52118" lon="6.69552">
        <ele>394.641144</ele>
        <time>2010-06-27T11:13:47Z</time>
      </trkpt>
      <trkpt lat="43.52116" lon="6.6955">
        <ele>395.138641</ele>
        <time>2010-06-27T11:14:11Z</time>
      </trkpt>
      <trkpt lat="43.52118" lon="6.69544">
        <ele>397.820618</ele>
        <time>2010-06-27T11:14:18Z</time>
      </trkpt>
      <trkpt lat="43.5212" lon="6.69544">
        <ele>398.215179</ele>
        <time>2010-06-27T11:14:20Z</time>
      </trkpt>
      <trkpt lat="43.5212" lon="6.69537">
        <ele>399.298126</ele>
        <time>2010-06-27T11:14:29Z</time>
      </trkpt>
      <trkpt lat="43.5212" lon="6.69537">
        <ele>399.298126</ele>
        <time>2010-06-27T11:14:35Z</time>
      </trkpt>
      <trkpt lat="43.52122" lon="6.69531">
        <ele>400.832886</ele>
        <time>2010-06-27T11:14:41Z</time>
      </trkpt>
      <trkpt lat="43.52124" lon="6.69529">
        <ele>401.695404</ele>
        <time>2010-06-27T11:14:47Z</time>
      </trkpt>
      <trkpt lat="43.52124" lon="6.69529">
        <ele>401.695404</ele>
        <time>2010-06-27T11:14:51Z</time>
      </trkpt>
      <trkpt lat="43.52124" lon="6.69529">
        <ele>401.695404</ele>
        <time>2010-06-27T11:14:52Z</time>
      </trkpt>
      <trkpt lat="43.52131" lon="6.6952">
        <ele>403.579773</ele>
        <time>2010-06-27T11:15:05Z</time>
      </trkpt>
      <trkpt lat="43.52131" lon="6.69518">
        <ele>404.013397</ele>
        <time>2010-06-27T11:15:11Z</time>
      </trkpt>
      <trkpt lat="43.52131" lon="6.69516">
        <ele>404.446533</ele>
        <time>2010-06-27T11:15:14Z</time>
      </trkpt>
      <trkpt lat="43.52131" lon="6.69516">
        <ele>404.446533</ele>
        <time>2010-06-27T11:15:15Z</time>
      </trkpt>
      <trkpt lat="43.52131" lon="6.69514">
        <ele>404.879089</ele>
        <time>2010-06-27T11:15:17Z</time>
      </trkpt>
      <trkpt lat="43.52131" lon="6.69509">
        <ele>405.742645</ele>
        <time>2010-06-27T11:15:23Z</time>
      </trkpt>
      <trkpt lat="43.52133" lon="6.69505">
        <ele>406.615814</ele>
        <time>2010-06-27T11:15:29Z</time>
      </trkpt>
      <trkpt lat="43.52133" lon="6.69501">
        <ele>407.488281</ele>
        <time>2010-06-27T11:15:35Z</time>
      </trkpt>
      <trkpt lat="43.52133" lon="6.69503">
        <ele>407.052307</ele>
        <time>2010-06-27T11:17:04Z</time>
      </trkpt>
      <trkpt lat="43.52133" lon="6.69505">
        <ele>406.615814</ele>
        <time>2010-06-27T11:19:35Z</time>
      </trkpt>
      <trkpt lat="43.52142" lon="6.69497">
        <ele>408.521179</ele>
        <time>2010-06-27T11:19:42Z</time>
      </trkpt>
      <trkpt lat="43.52144" lon="6.69492">
        <ele>409.498505</ele>
        <time>2010-06-27T11:19:46Z</time>
      </trkpt>
      <trkpt lat="43.52144" lon="6.6949">
        <ele>409.964783</ele>
        <time>2010-06-27T11:19:47Z</time>
      </trkpt>
      <trkpt lat="43.52144" lon="6.6949">
        <ele>409.964783</ele>
        <time>2010-06-27T11:19:49Z</time>
      </trkpt>
      <trkpt lat="43.52148" lon="6.69484">
        <ele>411.487915</ele>
        <time>2010-06-27T11:19:54Z</time>
      </trkpt>
      <trkpt lat="43.52148" lon="6.69482">
        <ele>411.697388</ele>
        <time>2010-06-27T11:19:57Z</time>
      </trkpt>
      <trkpt lat="43.5215" lon="6.69479">
        <ele>411.963562</ele>
        <time>2010-06-27T11:20:00Z</time>
      </trkpt>
      <trkpt lat="43.5215" lon="6.69471">
        <ele>412.791992</ele>
        <time>2010-06-27T11:20:05Z</time>
      </trkpt>
      <trkpt lat="43.5215" lon="6.69471">
        <ele>412.791992</ele>
        <time>2010-06-27T11:20:06Z</time>
      </trkpt>
      <trkpt lat="43.5215" lon="6.69464">
        <ele>413.416138</ele>
        <time>2010-06-27T11:20:12Z</time>
      </trkpt>
      <trkpt lat="43.52152" lon="6.6946">
        <ele>413.859802</ele>
        <time>2010-06-27T11:20:16Z</time>
      </trkpt>
      <trkpt lat="43.52154" lon="6.69451">
        <ele>414.697235</ele>
        <time>2010-06-27T11:20:23Z</time>
      </trkpt>
      <trkpt lat="43.52154" lon="6.69447">
        <ele>415.104675</ele>
        <time>2010-06-27T11:20:28Z</time>
      </trkpt>
      <trkpt lat="43.52157" lon="6.69445">
        <ele>415.310944</ele>
        <time>2010-06-27T11:20:32Z</time>
      </trkpt>
      <trkpt lat="43.52159" lon="6.69443">
        <ele>415.510376</ele>
        <time>2010-06-27T11:20:40Z</time>
      </trkpt>
      <trkpt lat="43.52163" lon="6.69434">
        <ele>416.27301</ele>
        <time>2010-06-27T11:20:46Z</time>
      </trkpt>
      <trkpt lat="43.5217" lon="6.69411">
        <ele>415.202637</ele>
        <time>2010-06-27T11:20:56Z</time>
      </trkpt>
      <trkpt lat="43.52174" lon="6.69402">
        <ele>413.830353</ele>
        <time>2010-06-27T11:20:59Z</time>
      </trkpt>
      <trkpt lat="43.5218" lon="6.69389">
        <ele>411.757843</ele>
        <time>2010-06-27T11:21:04Z</time>
      </trkpt>
      <trkpt lat="43.52187" lon="6.69381">
        <ele>410.445251</ele>
        <time>2010-06-27T11:21:07Z</time>
      </trkpt>
      <trkpt lat="43.52195" lon="6.6937">
        <ele>409.085175</ele>
        <time>2010-06-27T11:21:12Z</time>
      </trkpt>
      <trkpt lat="43.52197" lon="6.6937">
        <ele>409.091705</ele>
        <time>2010-06-27T11:21:13Z</time>
      </trkpt>
      <trkpt lat="43.52204" lon="6.69363">
        <ele>408.535492</ele>
        <time>2010-06-27T11:21:16Z</time>
      </trkpt>
      <trkpt lat="43.5221" lon="6.69353">
        <ele>408.245605</ele>
        <time>2010-06-27T11:21:19Z</time>
      </trkpt>
      <trkpt lat="43.52215" lon="6.69342">
        <ele>408.064758</ele>
        <time>2010-06-27T11:21:22Z</time>
      </trkpt>
      <trkpt lat="43.52219" lon="6.69333">
        <ele>408.097443</ele>
        <time>2010-06-27T11:21:27Z</time>
      </trkpt>
      <trkpt lat="43.52219" lon="6.69333">
        <ele>408.097443</ele>
        <time>2010-06-27T11:21:30Z</time>
      </trkpt>
      <trkpt lat="43.52221" lon="6.69323">
        <ele>407.998932</ele>
        <time>2010-06-27T11:21:35Z</time>
      </trkpt>
      <trkpt lat="43.52221" lon="6.69318">
        <ele>407.887451</ele>
        <time>2010-06-27T11:21:37Z</time>
      </trkpt>
      <trkpt lat="43.52225" lon="6.69312">
        <ele>408.110382</ele>
        <time>2010-06-27T11:21:42Z</time>
      </trkpt>
      <trkpt lat="43.5224" lon="6.69299">
        <ele>408.000854</ele>
        <time>2010-06-27T11:22:00Z</time>
      </trkpt>
      <trkpt lat="43.52249" lon="6.69288">
        <ele>408.326843</ele>
        <time>2010-06-27T11:22:11Z</time>
      </trkpt>
      <trkpt lat="43.52249" lon="6.69284">
        <ele>408.538666</ele>
        <time>2010-06-27T11:22:14Z</time>
      </trkpt>
      <trkpt lat="43.52249" lon="6.69282">
        <ele>408.644958</ele>
        <time>2010-06-27T11:22:16Z</time>
      </trkpt>
      <trkpt lat="43.52247" lon="6.6928">
        <ele>408.831665</ele>
        <time>2010-06-27T11:22:20Z</time>
      </trkpt>
      <trkpt lat="43.52247" lon="6.69276">
        <ele>409.052185</ele>
        <time>2010-06-27T11:22:23Z</time>
      </trkpt>
      <trkpt lat="43.52245" lon="6.69267">
        <ele>409.595886</ele>
        <time>2010-06-27T11:22:30Z</time>
      </trkpt>
      <trkpt lat="43.52245" lon="6.69267">
        <ele>409.595886</ele>
        <time>2010-06-27T11:22:31Z</time>
      </trkpt>
      <trkpt lat="43.52238" lon="6.69263">
        <ele>410.141266</ele>
        <time>2010-06-27T11:22:47Z</time>
      </trkpt>
      <trkpt lat="43.5224" lon="6.69252">
        <ele>410.650238</ele>
        <time>2010-06-27T11:22:51Z</time>
      </trkpt>
      <trkpt lat="43.52242" lon="6.69233">
        <ele>411.555206</ele>
        <time>2010-06-27T11:23:00Z</time>
      </trkpt>
      <trkpt lat="43.52245" lon="6.69228">
        <ele>411.671997</ele>
        <time>2010-06-27T11:23:02Z</time>
      </trkpt>
      <trkpt lat="43.52247" lon="6.69222">
        <ele>411.924072</ele>
        <time>2010-06-27T11:23:05Z</time>
      </trkpt>
      <trkpt lat="43.52247" lon="6.6922">
        <ele>412.040039</ele>
        <time>2010-06-27T11:23:06Z</time>
      </trkpt>
      <trkpt lat="43.52249" lon="6.69211">
        <ele>412.442017</ele>
        <time>2010-06-27T11:23:10Z</time>
      </trkpt>
      <trkpt lat="43.52249" lon="6.69205">
        <ele>412.797546</ele>
        <time>2010-06-27T11:23:13Z</time>
      </trkpt>
      <trkpt lat="43.52249" lon="6.69198">
        <ele>413.149506</ele>
        <time>2010-06-27T11:23:15Z</time>
      </trkpt>
      <trkpt lat="43.52253" lon="6.69175">
        <ele>413.738281</ele>
        <time>2010-06-27T11:23:23Z</time>
      </trkpt>
      <trkpt lat="43.52253" lon="6.6917">
        <ele>413.599518</ele>
        <time>2010-06-27T11:23:24Z</time>
      </trkpt>
      <trkpt lat="43.52255" lon="6.69158">
        <ele>413.177887</ele>
        <time>2010-06-27T11:23:28Z</time>
      </trkpt>
      <trkpt lat="43.5226" lon="6.69134">
        <ele>412.404053</ele>
        <time>2010-06-27T11:23:35Z</time>
      </trkpt>
      <trkpt lat="43.52257" lon="6.69127">
        <ele>412.201172</ele>
        <time>2010-06-27T11:23:37Z</time>
      </trkpt>
      <trkpt lat="43.52257" lon="6.69121">
        <ele>411.982544</ele>
        <time>2010-06-27T11:23:40Z</time>
      </trkpt>
      <trkpt lat="43.52257" lon="6.69119">
        <ele>411.809082</ele>
        <time>2010-06-27T11:23:41Z</time>
      </trkpt>
      <trkpt lat="43.52257" lon="6.6911">
        <ele>411.115204</ele>
        <time>2010-06-27T11:23:44Z</time>
      </trkpt>
      <trkpt lat="43.52257" lon="6.69061">
        <ele>407.125427</ele>
        <time>2010-06-27T11:23:59Z</time>
      </trkpt>
      <trkpt lat="43.52257" lon="6.69012">
        <ele>403.908508</ele>
        <time>2010-06-27T11:24:15Z</time>
      </trkpt>
      <trkpt lat="43.52255" lon="6.68971">
        <ele>403.222626</ele>
        <time>2010-06-27T11:24:29Z</time>
      </trkpt>
      <trkpt lat="43.52249" lon="6.68868">
        <ele>404.889832</ele>
        <time>2010-06-27T11:25:05Z</time>
      </trkpt>
      <trkpt lat="43.52249" lon="6.68868">
        <ele>404.889832</ele>
        <time>2010-06-27T11:25:21Z</time>
      </trkpt>
      <trkpt lat="43.52249" lon="6.68868">
        <ele>404.889832</ele>
        <time>2010-06-27T11:25:46Z</time>
      </trkpt>
      <trkpt lat="43.52249" lon="6.68868">
        <ele>404.889832</ele>
        <time>2010-06-27T11:25:54Z</time>
      </trkpt>
      <trkpt lat="43.52249" lon="6.68868">
        <ele>404.889832</ele>
        <time>2010-06-27T11:26:08Z</time>
      </trkpt>
      <trkpt lat="43.52249" lon="6.68868">
        <ele>404.889832</ele>
        <time>2010-06-27T11:26:10Z</time>
      </trkpt>
      <trkpt lat="43.52333" lon="6.68715">
        <ele>396.352417</ele>
        <time>2010-06-27T11:26:13Z</time>
      </trkpt>
      <trkpt lat="43.52341" lon="6.68715">
        <ele>395.989594</ele>
        <time>2010-06-27T11:26:16Z</time>
      </trkpt>
      <trkpt lat="43.52345" lon="6.6872">
        <ele>396.138489</ele>
        <time>2010-06-27T11:26:17Z</time>
      </trkpt>
      <trkpt lat="43.52363" lon="6.68703">
        <ele>395.252106</ele>
        <time>2010-06-27T11:26:23Z</time>
      </trkpt>
      <trkpt lat="43.52365" lon="6.687">
        <ele>395.156708</ele>
        <time>2010-06-27T11:26:25Z</time>
      </trkpt>
      <trkpt lat="43.52378" lon="6.68694">
        <ele>395.077484</ele>
        <time>2010-06-27T11:26:29Z</time>
      </trkpt>
      <trkpt lat="43.52384" lon="6.6869">
        <ele>395.25943</ele>
        <time>2010-06-27T11:26:32Z</time>
      </trkpt>
      <trkpt lat="43.5241" lon="6.68643">
        <ele>396.262238</ele>
        <time>2010-06-27T11:26:47Z</time>
      </trkpt>
      <trkpt lat="43.52418" lon="6.6863">
        <ele>396.755402</ele>
        <time>2010-06-27T11:26:53Z</time>
      </trkpt>
      <trkpt lat="43.52448" lon="6.68572">
        <ele>398.384827</ele>
        <time>2010-06-27T11:27:15Z</time>
      </trkpt>
      <trkpt lat="43.52448" lon="6.68567">
        <ele>398.55484</ele>
        <time>2010-06-27T11:27:17Z</time>
      </trkpt>
      <trkpt lat="43.52451" lon="6.68561">
        <ele>398.621277</ele>
        <time>2010-06-27T11:27:19Z</time>
      </trkpt>
      <trkpt lat="43.52455" lon="6.68548">
        <ele>398.941986</ele>
        <time>2010-06-27T11:27:24Z</time>
      </trkpt>
      <trkpt lat="43.52461" lon="6.68535">
        <ele>399.478943</ele>
        <time>2010-06-27T11:27:29Z</time>
      </trkpt>
      <trkpt lat="43.5247" lon="6.68522">
        <ele>400.455719</ele>
        <time>2010-06-27T11:27:35Z</time>
      </trkpt>
      <trkpt lat="43.52479" lon="6.68503">
        <ele>400.673462</ele>
        <time>2010-06-27T11:27:42Z</time>
      </trkpt>
      <trkpt lat="43.52494" lon="6.68441">
        <ele>397.008881</ele>
        <time>2010-06-27T11:27:58Z</time>
      </trkpt>
      <trkpt lat="43.52496" lon="6.68432">
        <ele>395.875244</ele>
        <time>2010-06-27T11:28:00Z</time>
      </trkpt>
      <trkpt lat="43.52498" lon="6.68419">
        <ele>394.320313</ele>
        <time>2010-06-27T11:28:03Z</time>
      </trkpt>
      <trkpt lat="43.52498" lon="6.68409">
        <ele>393.297607</ele>
        <time>2010-06-27T11:28:06Z</time>
      </trkpt>
      <trkpt lat="43.525" lon="6.68374">
        <ele>390.80481</ele>
        <time>2010-06-27T11:28:16Z</time>
      </trkpt>
      <trkpt lat="43.525" lon="6.68368">
        <ele>390.50647</ele>
        <time>2010-06-27T11:28:18Z</time>
      </trkpt>
      <trkpt lat="43.52502" lon="6.68325">
        <ele>388.551239</ele>
        <time>2010-06-27T11:28:30Z</time>
      </trkpt>
      <trkpt lat="43.52504" lon="6.68319">
        <ele>388.109192</ele>
        <time>2010-06-27T11:28:32Z</time>
      </trkpt>
      <trkpt lat="43.52504" lon="6.68308">
        <ele>388.012543</ele>
        <time>2010-06-27T11:28:35Z</time>
      </trkpt>
      <trkpt lat="43.5253" lon="6.68252">
        <ele>382.121948</ele>
        <time>2010-06-27T11:28:42Z</time>
      </trkpt>
      <trkpt lat="43.52528" lon="6.6828">
        <ele>383.53653</ele>
        <time>2010-06-27T11:28:43Z</time>
      </trkpt>
      <trkpt lat="43.52526" lon="6.68276">
        <ele>383.876495</ele>
        <time>2010-06-27T11:28:47Z</time>
      </trkpt>
      <trkpt lat="43.52528" lon="6.68263">
        <ele>382.954865</ele>
        <time>2010-06-27T11:28:50Z</time>
      </trkpt>
      <trkpt lat="43.52532" lon="6.68241">
        <ele>381.289001</ele>
        <time>2010-06-27T11:28:55Z</time>
      </trkpt>
      <trkpt lat="43.52539" lon="6.68218">
        <ele>379.145081</ele>
        <time>2010-06-27T11:29:00Z</time>
      </trkpt>
      <trkpt lat="43.52541" lon="6.68216">
        <ele>378.843658</ele>
        <time>2010-06-27T11:29:10Z</time>
      </trkpt>
      <trkpt lat="43.52543" lon="6.68216">
        <ele>378.644714</ele>
        <time>2010-06-27T11:29:35Z</time>
      </trkpt>
      <trkpt lat="43.52532" lon="6.68246">
        <ele>381.466461</ele>
        <time>2010-06-27T11:30:05Z</time>
      </trkpt>
      <trkpt lat="43.52532" lon="6.68243">
        <ele>381.377716</ele>
        <time>2010-06-27T11:30:12Z</time>
      </trkpt>
      <trkpt lat="43.52539" lon="6.6822">
        <ele>379.235962</ele>
        <time>2010-06-27T11:31:07Z</time>
      </trkpt>
      <trkpt lat="43.52541" lon="6.68218">
        <ele>378.935211</ele>
        <time>2010-06-27T11:31:12Z</time>
      </trkpt>
      <trkpt lat="43.52558" lon="6.68207">
        <ele>376.972595</ele>
        <time>2010-06-27T11:31:41Z</time>
      </trkpt>
      <trkpt lat="43.52541" lon="6.6822">
        <ele>379.026337</ele>
        <time>2010-06-27T11:31:49Z</time>
      </trkpt>
      <trkpt lat="43.52541" lon="6.68211">
        <ele>378.599976</ele>
        <time>2010-06-27T11:31:50Z</time>
      </trkpt>
      <trkpt lat="43.52545" lon="6.68205">
        <ele>377.883301</ele>
        <time>2010-06-27T11:31:52Z</time>
      </trkpt>
      <trkpt lat="43.52545" lon="6.68198">
        <ele>377.537872</ele>
        <time>2010-06-27T11:31:56Z</time>
      </trkpt>
      <trkpt lat="43.52545" lon="6.68194">
        <ele>377.304932</ele>
        <time>2010-06-27T11:31:57Z</time>
      </trkpt>
      <trkpt lat="43.52545" lon="6.68188">
        <ele>376.951508</ele>
        <time>2010-06-27T11:32:00Z</time>
      </trkpt>
      <trkpt lat="43.52545" lon="6.68181">
        <ele>376.593292</ele>
        <time>2010-06-27T11:32:02Z</time>
      </trkpt>
      <trkpt lat="43.52543" lon="6.68177">
        <ele>376.433807</ele>
        <time>2010-06-27T11:32:03Z</time>
      </trkpt>
      <trkpt lat="43.52545" lon="6.68173">
        <ele>376.108215</ele>
        <time>2010-06-27T11:32:04Z</time>
      </trkpt>
      <trkpt lat="43.52554" lon="6.68136">
        <ele>374.49173</ele>
        <time>2010-06-27T11:32:14Z</time>
      </trkpt>
      <trkpt lat="43.52556" lon="6.68128">
        <ele>374.262939</ele>
        <time>2010-06-27T11:32:18Z</time>
      </trkpt>
      <trkpt lat="43.52556" lon="6.68125">
        <ele>374.203064</ele>
        <time>2010-06-27T11:32:19Z</time>
      </trkpt>
      <trkpt lat="43.52569" lon="6.68055">
        <ele>373.218628</ele>
        <time>2010-06-27T11:32:42Z</time>
      </trkpt>
      <trkpt lat="43.5259" lon="6.67988">
        <ele>374.514496</ele>
        <time>2010-06-27T11:33:01Z</time>
      </trkpt>
      <trkpt lat="43.5259" lon="6.67977">
        <ele>374.629761</ele>
        <time>2010-06-27T11:33:05Z</time>
      </trkpt>
      <trkpt lat="43.52586" lon="6.6796">
        <ele>374.604706</ele>
        <time>2010-06-27T11:33:11Z</time>
      </trkpt>
      <trkpt lat="43.52584" lon="6.67945">
        <ele>374.664795</ele>
        <time>2010-06-27T11:33:17Z</time>
      </trkpt>
      <trkpt lat="43.52579" lon="6.67937">
        <ele>374.117828</ele>
        <time>2010-06-27T11:33:22Z</time>
      </trkpt>
      <trkpt lat="43.52577" lon="6.67922">
        <ele>373.804352</ele>
        <time>2010-06-27T11:33:30Z</time>
      </trkpt>
      <trkpt lat="43.52577" lon="6.67911">
        <ele>373.806274</ele>
        <time>2010-06-27T11:33:35Z</time>
      </trkpt>
      <trkpt lat="43.52577" lon="6.67898">
        <ele>373.65976</ele>
        <time>2010-06-27T11:33:41Z</time>
      </trkpt>
      <trkpt lat="43.52577" lon="6.67892">
        <ele>373.567535</ele>
        <time>2010-06-27T11:33:43Z</time>
      </trkpt>
      <trkpt lat="43.52577" lon="6.67881">
        <ele>373.405884</ele>
        <time>2010-06-27T11:33:48Z</time>
      </trkpt>
      <trkpt lat="43.52586" lon="6.67846">
        <ele>375.270386</ele>
        <time>2010-06-27T11:34:05Z</time>
      </trkpt>
      <trkpt lat="43.52588" lon="6.67834">
        <ele>375.26358</ele>
        <time>2010-06-27T11:34:11Z</time>
      </trkpt>
      <trkpt lat="43.52594" lon="6.67821">
        <ele>376.311798</ele>
        <time>2010-06-27T11:34:17Z</time>
      </trkpt>
      <trkpt lat="43.52609" lon="6.67808">
        <ele>378.433258</ele>
        <time>2010-06-27T11:34:24Z</time>
      </trkpt>
      <trkpt lat="43.52612" lon="6.67804">
        <ele>378.524078</ele>
        <time>2010-06-27T11:34:25Z</time>
      </trkpt>
      <trkpt lat="43.52635" lon="6.6778">
        <ele>381.418518</ele>
        <time>2010-06-27T11:34:36Z</time>
      </trkpt>
      <trkpt lat="43.52633" lon="6.67761">
        <ele>381.389832</ele>
        <time>2010-06-27T11:34:43Z</time>
      </trkpt>
      <trkpt lat="43.52631" lon="6.67761">
        <ele>381.140137</ele>
        <time>2010-06-27T11:34:44Z</time>
      </trkpt>
      <trkpt lat="43.52631" lon="6.67758">
        <ele>381.18045</ele>
        <time>2010-06-27T11:34:45Z</time>
      </trkpt>
      <trkpt lat="43.52624" lon="6.67746">
        <ele>380.816833</ele>
        <time>2010-06-27T11:34:51Z</time>
      </trkpt>
      <trkpt lat="43.52614" lon="6.67733">
        <ele>380.357849</ele>
        <time>2010-06-27T11:34:59Z</time>
      </trkpt>
      <trkpt lat="43.52607" lon="6.67724">
        <ele>380.441986</ele>
        <time>2010-06-27T11:35:04Z</time>
      </trkpt>
      <trkpt lat="43.5259" lon="6.67707">
        <ele>381.411469</ele>
        <time>2010-06-27T11:35:17Z</time>
      </trkpt>
      <trkpt lat="43.52582" lon="6.67696">
        <ele>382.100586</ele>
        <time>2010-06-27T11:35:23Z</time>
      </trkpt>
      <trkpt lat="43.52571" lon="6.6767">
        <ele>384.659149</ele>
        <time>2010-06-27T11:35:35Z</time>
      </trkpt>
      <trkpt lat="43.52571" lon="6.67662">
        <ele>385.901062</ele>
        <time>2010-06-27T11:35:39Z</time>
      </trkpt>
      <trkpt lat="43.52571" lon="6.67662">
        <ele>385.901062</ele>
        <time>2010-06-27T11:35:53Z</time>
      </trkpt>
      <trkpt lat="43.52571" lon="6.67647">
        <ele>386.331146</ele>
        <time>2010-06-27T11:36:02Z</time>
      </trkpt>
      <trkpt lat="43.52571" lon="6.67645">
        <ele>386.369385</ele>
        <time>2010-06-27T11:36:11Z</time>
      </trkpt>
      <trkpt lat="43.52571" lon="6.67638">
        <ele>386.482513</ele>
        <time>2010-06-27T11:36:16Z</time>
      </trkpt>
      <trkpt lat="43.52577" lon="6.67628">
        <ele>387.547089</ele>
        <time>2010-06-27T11:36:29Z</time>
      </trkpt>
      <trkpt lat="43.52577" lon="6.67628">
        <ele>387.547089</ele>
        <time>2010-06-27T11:36:30Z</time>
      </trkpt>
      <trkpt lat="43.52582" lon="6.67621">
        <ele>388.293396</ele>
        <time>2010-06-27T11:36:34Z</time>
      </trkpt>
      <trkpt lat="43.52588" lon="6.67613">
        <ele>389.456085</ele>
        <time>2010-06-27T11:36:41Z</time>
      </trkpt>
      <trkpt lat="43.52594" lon="6.67602">
        <ele>390.767426</ele>
        <time>2010-06-27T11:36:46Z</time>
      </trkpt>
      <trkpt lat="43.52605" lon="6.67567">
        <ele>390.130493</ele>
        <time>2010-06-27T11:36:58Z</time>
      </trkpt>
      <trkpt lat="43.52609" lon="6.67512">
        <ele>384.944092</ele>
        <time>2010-06-27T11:37:09Z</time>
      </trkpt>
      <trkpt lat="43.52614" lon="6.67488">
        <ele>382.432617</ele>
        <time>2010-06-27T11:37:13Z</time>
      </trkpt>
      <trkpt lat="43.52627" lon="6.67413">
        <ele>379.447144</ele>
        <time>2010-06-27T11:37:29Z</time>
      </trkpt>
      <trkpt lat="43.52627" lon="6.67387">
        <ele>378.266113</ele>
        <time>2010-06-27T11:37:35Z</time>
      </trkpt>
      <trkpt lat="43.52622" lon="6.67381">
        <ele>377.729584</ele>
        <time>2010-06-27T11:37:37Z</time>
      </trkpt>
      <trkpt lat="43.52616" lon="6.67372">
        <ele>376.863831</ele>
        <time>2010-06-27T11:37:40Z</time>
      </trkpt>
      <trkpt lat="43.52575" lon="6.6731">
        <ele>366.31839</ele>
        <time>2010-06-27T11:38:02Z</time>
      </trkpt>
      <trkpt lat="43.52573" lon="6.67308">
        <ele>366.129272</ele>
        <time>2010-06-27T11:38:03Z</time>
      </trkpt>
      <trkpt lat="43.5256" lon="6.67284">
        <ele>365.470764</ele>
        <time>2010-06-27T11:38:11Z</time>
      </trkpt>
      <trkpt lat="43.5256" lon="6.67284">
        <ele>365.470764</ele>
        <time>2010-06-27T11:38:15Z</time>
      </trkpt>
      <trkpt lat="43.52549" lon="6.67269">
        <ele>366.32309</ele>
        <time>2010-06-27T11:38:24Z</time>
      </trkpt>
      <trkpt lat="43.52558" lon="6.67274">
        <ele>365.937775</ele>
        <time>2010-06-27T11:39:23Z</time>
      </trkpt>
      <trkpt lat="43.52558" lon="6.67274">
        <ele>365.937775</ele>
        <time>2010-06-27T11:40:00Z</time>
      </trkpt>
      <trkpt lat="43.52558" lon="6.67276">
        <ele>365.827972</ele>
        <time>2010-06-27T11:41:02Z</time>
      </trkpt>
      <trkpt lat="43.5256" lon="6.67276">
        <ele>365.830719</ele>
        <time>2010-06-27T11:41:05Z</time>
      </trkpt>
      <trkpt lat="43.52566" lon="6.67276">
        <ele>365.823975</ele>
        <time>2010-06-27T11:41:12Z</time>
      </trkpt>
      <trkpt lat="43.52582" lon="6.67269">
        <ele>365.404999</ele>
        <time>2010-06-27T11:41:21Z</time>
      </trkpt>
      <trkpt lat="43.52601" lon="6.67269">
        <ele>364.216675</ele>
        <time>2010-06-27T11:41:26Z</time>
      </trkpt>
      <trkpt lat="43.52614" lon="6.67267">
        <ele>362.998474</ele>
        <time>2010-06-27T11:41:29Z</time>
      </trkpt>
      <trkpt lat="43.52639" lon="6.67265">
        <ele>358.040955</ele>
        <time>2010-06-27T11:41:37Z</time>
      </trkpt>
      <trkpt lat="43.52648" lon="6.67265">
        <ele>356.09967</ele>
        <time>2010-06-27T11:41:41Z</time>
      </trkpt>
      <trkpt lat="43.52657" lon="6.67267">
        <ele>354.635468</ele>
        <time>2010-06-27T11:41:46Z</time>
      </trkpt>
      <trkpt lat="43.52661" lon="6.67267">
        <ele>353.663727</ele>
        <time>2010-06-27T11:41:48Z</time>
      </trkpt>
      <trkpt lat="43.52672" lon="6.67274">
        <ele>351.958527</ele>
        <time>2010-06-27T11:41:54Z</time>
      </trkpt>
      <trkpt lat="43.52693" lon="6.67282">
        <ele>345.274902</ele>
        <time>2010-06-27T11:42:05Z</time>
      </trkpt>
      <trkpt lat="43.52704" lon="6.67289">
        <ele>342.314514</ele>
        <time>2010-06-27T11:42:11Z</time>
      </trkpt>
      <trkpt lat="43.52715" lon="6.67293">
        <ele>338.962738</ele>
        <time>2010-06-27T11:42:16Z</time>
      </trkpt>
      <trkpt lat="43.52717" lon="6.67293">
        <ele>338.163025</ele>
        <time>2010-06-27T11:42:17Z</time>
      </trkpt>
      <trkpt lat="43.52717" lon="6.67293">
        <ele>338.163025</ele>
        <time>2010-06-27T11:42:28Z</time>
      </trkpt>
      <trkpt lat="43.52796" lon="6.67389">
        <ele>332.109894</ele>
        <time>2010-06-27T11:42:32Z</time>
      </trkpt>
      <trkpt lat="43.528" lon="6.67417">
        <ele>337.223663</ele>
        <time>2010-06-27T11:42:35Z</time>
      </trkpt>
      <trkpt lat="43.52805" lon="6.67411">
        <ele>333.594269</ele>
        <time>2010-06-27T11:42:37Z</time>
      </trkpt>
      <trkpt lat="43.52794" lon="6.67415">
        <ele>339.759949</ele>
        <time>2010-06-27T11:42:39Z</time>
      </trkpt>
      <trkpt lat="43.52796" lon="6.67419">
        <ele>339.856018</ele>
        <time>2010-06-27T11:42:40Z</time>
      </trkpt>
      <trkpt lat="43.5282" lon="6.67462">
        <ele>337.029541</ele>
        <time>2010-06-27T11:42:48Z</time>
      </trkpt>
      <trkpt lat="43.5283" lon="6.67467">
        <ele>332.323761</ele>
        <time>2010-06-27T11:42:51Z</time>
      </trkpt>
      <trkpt lat="43.52848" lon="6.67499">
        <ele>329.991394</ele>
        <time>2010-06-27T11:42:58Z</time>
      </trkpt>
      <trkpt lat="43.5286" lon="6.67514">
        <ele>326.140656</ele>
        <time>2010-06-27T11:43:03Z</time>
      </trkpt>
      <trkpt lat="43.52867" lon="6.67525">
        <ele>324.591003</ele>
        <time>2010-06-27T11:43:06Z</time>
      </trkpt>
      <trkpt lat="43.52869" lon="6.67527">
        <ele>323.874847</ele>
        <time>2010-06-27T11:43:07Z</time>
      </trkpt>
      <trkpt lat="43.5288" lon="6.6754">
        <ele>320.52002</ele>
        <time>2010-06-27T11:43:11Z</time>
      </trkpt>
      <trkpt lat="43.52886" lon="6.6755">
        <ele>319.360748</ele>
        <time>2010-06-27T11:43:14Z</time>
      </trkpt>
      <trkpt lat="43.5291" lon="6.67574">
        <ele>312.551331</ele>
        <time>2010-06-27T11:43:23Z</time>
      </trkpt>
      <trkpt lat="43.52914" lon="6.67578">
        <ele>311.182404</ele>
        <time>2010-06-27T11:43:25Z</time>
      </trkpt>
      <trkpt lat="43.52927" lon="6.67591">
        <ele>307.203857</ele>
        <time>2010-06-27T11:43:30Z</time>
      </trkpt>
      <trkpt lat="43.5294" lon="6.67608">
        <ele>304.064117</ele>
        <time>2010-06-27T11:43:36Z</time>
      </trkpt>
      <trkpt lat="43.52951" lon="6.67617">
        <ele>300.997833</ele>
        <time>2010-06-27T11:43:40Z</time>
      </trkpt>
      <trkpt lat="43.52981" lon="6.67651">
        <ele>295.871948</ele>
        <time>2010-06-27T11:43:53Z</time>
      </trkpt>
      <trkpt lat="43.52981" lon="6.67651">
        <ele>295.871948</ele>
        <time>2010-06-27T11:44:06Z</time>
      </trkpt>
      <trkpt lat="43.53062" lon="6.67821">
        <ele>289.85318</ele>
        <time>2010-06-27T11:44:14Z</time>
      </trkpt>
      <trkpt lat="43.53075" lon="6.67853">
        <ele>289.038544</ele>
        <time>2010-06-27T11:44:22Z</time>
      </trkpt>
      <trkpt lat="43.53081" lon="6.67866">
        <ele>288.065521</ele>
        <time>2010-06-27T11:44:24Z</time>
      </trkpt>
      <trkpt lat="43.5309" lon="6.67879">
        <ele>286.244354</ele>
        <time>2010-06-27T11:44:26Z</time>
      </trkpt>
      <trkpt lat="43.53096" lon="6.67894">
        <ele>285.527039</ele>
        <time>2010-06-27T11:44:28Z</time>
      </trkpt>
      <trkpt lat="43.53105" lon="6.67909">
        <ele>284.454071</ele>
        <time>2010-06-27T11:44:30Z</time>
      </trkpt>
      <trkpt lat="43.53116" lon="6.67947">
        <ele>283.876587</ele>
        <time>2010-06-27T11:44:34Z</time>
      </trkpt>
      <trkpt lat="43.53118" lon="6.67958">
        <ele>283.510223</ele>
        <time>2010-06-27T11:44:35Z</time>
      </trkpt>
      <trkpt lat="43.53124" lon="6.67979">
        <ele>281.947876</ele>
        <time>2010-06-27T11:44:37Z</time>
      </trkpt>
      <trkpt lat="43.53137" lon="6.68027">
        <ele>278.921814</ele>
        <time>2010-06-27T11:44:41Z</time>
      </trkpt>
      <trkpt lat="43.53157" lon="6.68091">
        <ele>274.92514</ele>
        <time>2010-06-27T11:44:46Z</time>
      </trkpt>
      <trkpt lat="43.53172" lon="6.6814">
        <ele>271.095581</ele>
        <time>2010-06-27T11:44:50Z</time>
      </trkpt>
      <trkpt lat="43.53182" lon="6.68179">
        <ele>270.484894</ele>
        <time>2010-06-27T11:44:53Z</time>
      </trkpt>
      <trkpt lat="43.53191" lon="6.68205">
        <ele>269.61377</ele>
        <time>2010-06-27T11:44:55Z</time>
      </trkpt>
      <trkpt lat="43.53193" lon="6.68218">
        <ele>269.106995</ele>
        <time>2010-06-27T11:44:56Z</time>
      </trkpt>
      <trkpt lat="43.53212" lon="6.6828">
        <ele>265.440887</ele>
        <time>2010-06-27T11:45:01Z</time>
      </trkpt>
      <trkpt lat="43.53227" lon="6.68331">
        <ele>262.763489</ele>
        <time>2010-06-27T11:45:05Z</time>
      </trkpt>
      <trkpt lat="43.53249" lon="6.68406">
        <ele>261.079224</ele>
        <time>2010-06-27T11:45:11Z</time>
      </trkpt>
      <trkpt lat="43.53249" lon="6.68406">
        <ele>261.079224</ele>
        <time>2010-06-27T11:45:18Z</time>
      </trkpt>
      <trkpt lat="43.53352" lon="6.68535">
        <ele>250.536545</ele>
        <time>2010-06-27T11:45:29Z</time>
      </trkpt>
      <trkpt lat="43.5336" lon="6.68557">
        <ele>249.81395</ele>
        <time>2010-06-27T11:45:31Z</time>
      </trkpt>
      <trkpt lat="43.5338" lon="6.68602">
        <ele>248.935852</ele>
        <time>2010-06-27T11:45:35Z</time>
      </trkpt>
      <trkpt lat="43.53403" lon="6.68683">
        <ele>247.740921</ele>
        <time>2010-06-27T11:45:42Z</time>
      </trkpt>
      <trkpt lat="43.53453" lon="6.68827">
        <ele>245.485291</ele>
        <time>2010-06-27T11:45:57Z</time>
      </trkpt>
      <trkpt lat="43.53534" lon="6.69039">
        <ele>243.691452</ele>
        <time>2010-06-27T11:46:21Z</time>
      </trkpt>
      <trkpt lat="43.53575" lon="6.68915">
        <ele>242.697388</ele>
        <time>2010-06-27T11:46:30Z</time>
      </trkpt>
      <trkpt lat="43.53596" lon="6.68891">
        <ele>242.296661</ele>
        <time>2010-06-27T11:46:36Z</time>
      </trkpt>
      <trkpt lat="43.53603" lon="6.68887">
        <ele>242.30455</ele>
        <time>2010-06-27T11:46:38Z</time>
      </trkpt>
      <trkpt lat="43.53603" lon="6.68879">
        <ele>242.480667</ele>
        <time>2010-06-27T11:46:42Z</time>
      </trkpt>
      <trkpt lat="43.53603" lon="6.68879">
        <ele>242.480667</ele>
        <time>2010-06-27T11:46:43Z</time>
      </trkpt>
      <trkpt lat="43.53601" lon="6.68881">
        <ele>242.455322</ele>
        <time>2010-06-27T11:46:47Z</time>
      </trkpt>
      <trkpt lat="43.53599" lon="6.68881">
        <ele>242.474075</ele>
        <time>2010-06-27T11:48:23Z</time>
      </trkpt>
      <trkpt lat="43.53599" lon="6.68885">
        <ele>242.392609</ele>
        <time>2010-06-27T11:48:34Z</time>
      </trkpt>
      <trkpt lat="43.53605" lon="6.68887">
        <ele>242.281357</ele>
        <time>2010-06-27T11:49:05Z</time>
      </trkpt>
      <trkpt lat="43.53616" lon="6.68887">
        <ele>242.169189</ele>
        <time>2010-06-27T11:49:08Z</time>
      </trkpt>
      <trkpt lat="43.53708" lon="6.68891">
        <ele>242.295929</ele>
        <time>2010-06-27T11:49:33Z</time>
      </trkpt>
      <trkpt lat="43.53717" lon="6.68894">
        <ele>242.362396</ele>
        <time>2010-06-27T11:49:35Z</time>
      </trkpt>
      <trkpt lat="43.53805" lon="6.68952">
        <ele>245.770874</ele>
        <time>2010-06-27T11:50:03Z</time>
      </trkpt>
      <trkpt lat="43.53867" lon="6.69001">
        <ele>250.636963</ele>
        <time>2010-06-27T11:50:28Z</time>
      </trkpt>
      <trkpt lat="43.53869" lon="6.69003">
        <ele>250.785751</ele>
        <time>2010-06-27T11:50:29Z</time>
      </trkpt>
      <trkpt lat="43.53899" lon="6.69033">
        <ele>252.868958</ele>
        <time>2010-06-27T11:50:46Z</time>
      </trkpt>
      <trkpt lat="43.53925" lon="6.69076">
        <ele>253.937744</ele>
        <time>2010-06-27T11:51:05Z</time>
      </trkpt>
      <trkpt lat="43.53931" lon="6.69091">
        <ele>253.499298</ele>
        <time>2010-06-27T11:51:11Z</time>
      </trkpt>
      <trkpt lat="43.53938" lon="6.69106">
        <ele>252.98735</ele>
        <time>2010-06-27T11:51:17Z</time>
      </trkpt>
      <trkpt lat="43.53955" lon="6.69127">
        <ele>253.032959</ele>
        <time>2010-06-27T11:51:28Z</time>
      </trkpt>
      <trkpt lat="43.53968" lon="6.6913">
        <ele>254.044769</ele>
        <time>2010-06-27T11:51:34Z</time>
      </trkpt>
      <trkpt lat="43.53974" lon="6.69117">
        <ele>255.683289</ele>
        <time>2010-06-27T11:51:40Z</time>
      </trkpt>
      <trkpt lat="43.53974" lon="6.69112">
        <ele>255.992935</ele>
        <time>2010-06-27T11:51:41Z</time>
      </trkpt>
      <trkpt lat="43.53983" lon="6.69091">
        <ele>258.462708</ele>
        <time>2010-06-27T11:51:50Z</time>
      </trkpt>
      <trkpt lat="43.53985" lon="6.69085">
        <ele>259.179901</ele>
        <time>2010-06-27T11:51:53Z</time>
      </trkpt>
      <trkpt lat="43.53993" lon="6.69078">
        <ele>261.076996</ele>
        <time>2010-06-27T11:51:58Z</time>
      </trkpt>
      <trkpt lat="43.54002" lon="6.69091">
        <ele>262.184937</ele>
        <time>2010-06-27T11:52:05Z</time>
      </trkpt>
      <trkpt lat="43.54004" lon="6.69093">
        <ele>262.558228</ele>
        <time>2010-06-27T11:52:06Z</time>
      </trkpt>
      <trkpt lat="43.54006" lon="6.69102">
        <ele>262.605469</ele>
        <time>2010-06-27T11:52:09Z</time>
      </trkpt>
      <trkpt lat="43.54015" lon="6.69123">
        <ele>263.764252</ele>
        <time>2010-06-27T11:52:17Z</time>
      </trkpt>
      <trkpt lat="43.5403" lon="6.69188">
        <ele>268.035095</ele>
        <time>2010-06-27T11:52:40Z</time>
      </trkpt>
      <trkpt lat="43.5403" lon="6.69192">
        <ele>268.07724</ele>
        <time>2010-06-27T11:52:41Z</time>
      </trkpt>
      <trkpt lat="43.54038" lon="6.69254">
        <ele>268.145569</ele>
        <time>2010-06-27T11:53:04Z</time>
      </trkpt>
      <trkpt lat="43.54038" lon="6.69256">
        <ele>268.05722</ele>
        <time>2010-06-27T11:53:05Z</time>
      </trkpt>
      <trkpt lat="43.54043" lon="6.69267">
        <ele>266.223938</ele>
        <time>2010-06-27T11:53:10Z</time>
      </trkpt>
      <trkpt lat="43.54051" lon="6.6928">
        <ele>264.355225</ele>
        <time>2010-06-27T11:53:16Z</time>
      </trkpt>
      <trkpt lat="43.5406" lon="6.69284">
        <ele>264.477936</ele>
        <time>2010-06-27T11:53:22Z</time>
      </trkpt>
      <trkpt lat="43.54069" lon="6.69284">
        <ele>265.536407</ele>
        <time>2010-06-27T11:53:28Z</time>
      </trkpt>
      <trkpt lat="43.54101" lon="6.69265">
        <ele>273.811249</ele>
        <time>2010-06-27T11:53:47Z</time>
      </trkpt>
      <trkpt lat="43.54105" lon="6.69263">
        <ele>274.623383</ele>
        <time>2010-06-27T11:53:49Z</time>
      </trkpt>
      <trkpt lat="43.54111" lon="6.69261">
        <ele>275.668243</ele>
        <time>2010-06-27T11:53:52Z</time>
      </trkpt>
      <trkpt lat="43.54133" lon="6.69263">
        <ele>278.677551</ele>
        <time>2010-06-27T11:54:03Z</time>
      </trkpt>
      <trkpt lat="43.5415" lon="6.69267">
        <ele>281.139587</ele>
        <time>2010-06-27T11:54:11Z</time>
      </trkpt>
      <trkpt lat="43.54159" lon="6.69273">
        <ele>282.323944</ele>
        <time>2010-06-27T11:54:16Z</time>
      </trkpt>
      <trkpt lat="43.54169" lon="6.69301">
        <ele>283.342194</ele>
        <time>2010-06-27T11:54:29Z</time>
      </trkpt>
      <trkpt lat="43.54174" lon="6.69306">
        <ele>283.958069</ele>
        <time>2010-06-27T11:54:32Z</time>
      </trkpt>
      <trkpt lat="43.54178" lon="6.69312">
        <ele>284.572235</ele>
        <time>2010-06-27T11:54:35Z</time>
      </trkpt>
      <trkpt lat="43.54184" lon="6.69321">
        <ele>285.576355</ele>
        <time>2010-06-27T11:54:41Z</time>
      </trkpt>
      <trkpt lat="43.54191" lon="6.69336">
        <ele>286.408508</ele>
        <time>2010-06-27T11:54:48Z</time>
      </trkpt>
      <trkpt lat="43.54193" lon="6.69348">
        <ele>286.260468</ele>
        <time>2010-06-27T11:54:53Z</time>
      </trkpt>
      <trkpt lat="43.54197" lon="6.69424">
        <ele>281.303131</ele>
        <time>2010-06-27T11:55:11Z</time>
      </trkpt>
      <trkpt lat="43.54208" lon="6.69454">
        <ele>280.442169</ele>
        <time>2010-06-27T11:55:16Z</time>
      </trkpt>
      <trkpt lat="43.54275" lon="6.69557">
        <ele>287.087555</ele>
        <time>2010-06-27T11:55:41Z</time>
      </trkpt>
      <trkpt lat="43.54307" lon="6.69602">
        <ele>292.617584</ele>
        <time>2010-06-27T11:55:58Z</time>
      </trkpt>
      <trkpt lat="43.54322" lon="6.69619">
        <ele>294.868835</ele>
        <time>2010-06-27T11:56:11Z</time>
      </trkpt>
      <trkpt lat="43.54332" lon="6.6964">
        <ele>296.271606</ele>
        <time>2010-06-27T11:56:23Z</time>
      </trkpt>
      <trkpt lat="43.54345" lon="6.6966">
        <ele>297.563019</ele>
        <time>2010-06-27T11:56:35Z</time>
      </trkpt>
      <trkpt lat="43.5435" lon="6.69672">
        <ele>298.289337</ele>
        <time>2010-06-27T11:56:41Z</time>
      </trkpt>
      <trkpt lat="43.54354" lon="6.69688">
        <ele>299.090759</ele>
        <time>2010-06-27T11:56:47Z</time>
      </trkpt>
      <trkpt lat="43.54354" lon="6.69705">
        <ele>299.691895</ele>
        <time>2010-06-27T11:56:53Z</time>
      </trkpt>
      <trkpt lat="43.54358" lon="6.6972">
        <ele>300.596466</ele>
        <time>2010-06-27T11:56:59Z</time>
      </trkpt>
      <trkpt lat="43.54375" lon="6.69752">
        <ele>302.934967</ele>
        <time>2010-06-27T11:57:15Z</time>
      </trkpt>
      <trkpt lat="43.5438" lon="6.69758">
        <ele>303.332336</ele>
        <time>2010-06-27T11:57:18Z</time>
      </trkpt>
      <trkpt lat="43.54397" lon="6.69795">
        <ele>305.526642</ele>
        <time>2010-06-27T11:57:35Z</time>
      </trkpt>
      <trkpt lat="43.54418" lon="6.69872">
        <ele>308.088196</ele>
        <time>2010-06-27T11:57:59Z</time>
      </trkpt>
      <trkpt lat="43.54425" lon="6.69924">
        <ele>308.552979</ele>
        <time>2010-06-27T11:58:11Z</time>
      </trkpt>
      <trkpt lat="43.54425" lon="6.69951">
        <ele>308.903625</ele>
        <time>2010-06-27T11:58:17Z</time>
      </trkpt>
      <trkpt lat="43.54416" lon="6.70033">
        <ele>308.995605</ele>
        <time>2010-06-27T11:58:35Z</time>
      </trkpt>
      <trkpt lat="43.54403" lon="6.70087">
        <ele>309.784393</ele>
        <time>2010-06-27T11:58:47Z</time>
      </trkpt>
      <trkpt lat="43.54369" lon="6.70155">
        <ele>311.302185</ele>
        <time>2010-06-27T11:59:05Z</time>
      </trkpt>
      <trkpt lat="43.54358" lon="6.7017">
        <ele>312.007965</ele>
        <time>2010-06-27T11:59:10Z</time>
      </trkpt>
      <trkpt lat="43.54358" lon="6.70142">
        <ele>311.690918</ele>
        <time>2010-06-27T11:59:17Z</time>
      </trkpt>
      <trkpt lat="43.54373" lon="6.70091">
        <ele>311.115967</ele>
        <time>2010-06-27T11:59:28Z</time>
      </trkpt>
      <trkpt lat="43.54326" lon="6.70072">
        <ele>310.869171</ele>
        <time>2010-06-27T11:59:40Z</time>
      </trkpt>
      <trkpt lat="43.54317" lon="6.70065">
        <ele>310.589905</ele>
        <time>2010-06-27T11:59:42Z</time>
      </trkpt>
      <trkpt lat="43.54313" lon="6.70063">
        <ele>310.449738</ele>
        <time>2010-06-27T11:59:43Z</time>
      </trkpt>
      <trkpt lat="43.54302" lon="6.70059">
        <ele>309.304626</ele>
        <time>2010-06-27T11:59:45Z</time>
      </trkpt>
      <trkpt lat="43.54285" lon="6.70052">
        <ele>306.864716</ele>
        <time>2010-06-27T11:59:48Z</time>
      </trkpt>
      <trkpt lat="43.54268" lon="6.70046">
        <ele>304.488922</ele>
        <time>2010-06-27T11:59:51Z</time>
      </trkpt>
      <trkpt lat="43.54232" lon="6.70039">
        <ele>299.372375</ele>
        <time>2010-06-27T11:59:57Z</time>
      </trkpt>
      <trkpt lat="43.54223" lon="6.70037">
        <ele>298.208862</ele>
        <time>2010-06-27T11:59:59Z</time>
      </trkpt>
      <trkpt lat="43.54199" lon="6.70031">
        <ele>294.136658</ele>
        <time>2010-06-27T12:00:04Z</time>
      </trkpt>
      <trkpt lat="43.54187" lon="6.70027">
        <ele>291.928986</ele>
        <time>2010-06-27T12:00:07Z</time>
      </trkpt>
      <trkpt lat="43.54159" lon="6.70018">
        <ele>283.485626</ele>
        <time>2010-06-27T12:00:14Z</time>
      </trkpt>
      <trkpt lat="43.54152" lon="6.70014">
        <ele>281.500305</ele>
        <time>2010-06-27T12:00:16Z</time>
      </trkpt>
      <trkpt lat="43.54154" lon="6.70003">
        <ele>283.387817</ele>
        <time>2010-06-27T12:00:19Z</time>
      </trkpt>
      <trkpt lat="43.54161" lon="6.69994">
        <ele>286.181488</ele>
        <time>2010-06-27T12:00:22Z</time>
      </trkpt>
      <trkpt lat="43.54165" lon="6.6999">
        <ele>287.943237</ele>
        <time>2010-06-27T12:00:26Z</time>
      </trkpt>
      <trkpt lat="43.54165" lon="6.69988">
        <ele>288.061249</ele>
        <time>2010-06-27T12:00:29Z</time>
      </trkpt>
    </trkseg>
  </trk>
</gpx>